<?xml version="1.0" encoding="UTF-8"?>
<gpx creator="Garmin Connect" version="1.1"
  xsi:schemaLocation="http://www.topografix.com/GPX/1/1 http://www.topografix.com/GPX/11.xsd"
  xmlns:ns3="http://www.garmin.com/xmlschemas/TrackPointExtension/v1"
  xmlns="http://www.topografix.com/GPX/1/1"
  xmlns:xsi="http://www.w3.org/2001/XMLSchema-instance" xmlns:ns2="http://www.garmin.com/xmlschemas/GpxExtensions/v3">
  <metadata>
    <name>ECLA G3  du 15-08-2024</name>
    <link href="connect.garmin.com">
      <text>Garmin Connect</text>
    </link>
    <time>2024-08-13T07:09:47.000Z</time>
  </metadata>
  <trk>
    <name>ECLA G3  du 15-08-2024</name>
    <trkseg>
      <trkpt lat="45.82563950680196" lon="4.608869086951017">
        <ele>227.59</ele>
        <time>2024-08-13T07:09:47.000Z</time>
      </trkpt>
      <trkpt lat="45.826334953308105" lon="4.610223770141602">
        <ele>229.54</ele>
        <time>2024-08-13T07:09:47.019Z</time>
      </trkpt>
      <trkpt lat="45.82649596966803" lon="4.610406160354614">
        <ele>229.69</ele>
        <time>2024-08-13T07:09:47.041Z</time>
      </trkpt>
      <trkpt lat="45.826624631881714" lon="4.610545635223389">
        <ele>229.87</ele>
        <time>2024-08-13T07:09:47.066Z</time>
      </trkpt>
      <trkpt lat="45.82701086997986" lon="4.610867500305176">
        <ele>230.06</ele>
        <time>2024-08-13T07:09:47.098Z</time>
      </trkpt>
      <trkpt lat="45.827397108078" lon="4.611146450042725">
        <ele>230.27</ele>
        <time>2024-08-13T07:09:47.137Z</time>
      </trkpt>
      <trkpt lat="45.82822322845459" lon="4.609043598175049">
        <ele>230.75</ele>
        <time>2024-08-13T07:09:47.203Z</time>
      </trkpt>
      <trkpt lat="45.82863092422485" lon="4.609247446060181">
        <ele>231.26</ele>
        <time>2024-08-13T07:09:47.276Z</time>
      </trkpt>
      <trkpt lat="45.82914590835571" lon="4.609537124633789">
        <ele>231.51</ele>
        <time>2024-08-13T07:09:47.358Z</time>
      </trkpt>
      <trkpt lat="45.83048701286316" lon="4.610953330993652">
        <ele>231.93</ele>
        <time>2024-08-13T07:09:47.466Z</time>
      </trkpt>
      <trkpt lat="45.83048709668219" lon="4.610953330993652">
        <ele>232.11</ele>
        <time>2024-08-13T07:09:47.574Z</time>
      </trkpt>
      <trkpt lat="45.83177447319031" lon="4.612305164337158">
        <ele>231.78</ele>
        <time>2024-08-13T07:09:47.708Z</time>
      </trkpt>
      <trkpt lat="45.83224654197693" lon="4.612820148468018">
        <ele>231.66</ele>
        <time>2024-08-13T07:09:47.851Z</time>
      </trkpt>
      <trkpt lat="45.83224662579596" lon="4.612820148468018">
        <ele>231.54</ele>
        <time>2024-08-13T07:09:47.994Z</time>
      </trkpt>
      <trkpt lat="45.832353914156556" lon="4.612938165664673">
        <ele>231.39</ele>
        <time>2024-08-13T07:09:48.139Z</time>
      </trkpt>
      <trkpt lat="45.83267577923834" lon="4.613292217254639">
        <ele>231.47</ele>
        <time>2024-08-13T07:09:48.291Z</time>
      </trkpt>
      <trkpt lat="45.83282598294318" lon="4.613453149795532">
        <ele>231.46</ele>
        <time>2024-08-13T07:09:48.446Z</time>
      </trkpt>
      <trkpt lat="45.83314776420593" lon="4.6137964725494385">
        <ele>231.3</ele>
        <time>2024-08-13T07:09:48.607Z</time>
      </trkpt>
      <trkpt lat="45.833147848024964" lon="4.6137964725494385">
        <ele>231.14</ele>
        <time>2024-08-13T07:09:48.768Z</time>
      </trkpt>
      <trkpt lat="45.83371639251709" lon="4.614408016204834">
        <ele>231.14</ele>
        <time>2024-08-13T07:09:48.941Z</time>
      </trkpt>
      <trkpt lat="45.834113359451294" lon="4.614901542663574">
        <ele>230.53</ele>
        <time>2024-08-13T07:09:49.122Z</time>
      </trkpt>
      <trkpt lat="45.83449959754944" lon="4.615416526794434">
        <ele>230.13</ele>
        <time>2024-08-13T07:09:49.312Z</time>
      </trkpt>
      <trkpt lat="45.83449968136847" lon="4.615416526794434">
        <ele>229.8</ele>
        <time>2024-08-13T07:09:49.502Z</time>
      </trkpt>
      <trkpt lat="45.834853732958436" lon="4.615931510925293">
        <ele>229.39</ele>
        <time>2024-08-13T07:09:49.700Z</time>
      </trkpt>
      <trkpt lat="45.83523988723755" lon="4.616435766220093">
        <ele>229.5</ele>
        <time>2024-08-13T07:09:49.906Z</time>
      </trkpt>
      <trkpt lat="45.83519697189331" lon="4.616682529449463">
        <ele>229.26</ele>
        <time>2024-08-13T07:09:50.115Z</time>
      </trkpt>
      <trkpt lat="45.8352077845484" lon="4.617379903793335">
        <ele>228.69</ele>
        <time>2024-08-13T07:09:50.332Z</time>
      </trkpt>
      <trkpt lat="45.83525061607361" lon="4.617830514907837">
        <ele>228.21</ele>
        <time>2024-08-13T07:09:50.554Z</time>
      </trkpt>
      <trkpt lat="45.83523988723755" lon="4.617937803268433">
        <ele>227.89</ele>
        <time>2024-08-13T07:09:50.777Z</time>
      </trkpt>
      <trkpt lat="45.83518624305725" lon="4.618109464645386">
        <ele>227.6</ele>
        <time>2024-08-13T07:09:51.002Z</time>
      </trkpt>
      <trkpt lat="45.83504676818848" lon="4.618517160415649">
        <ele>227.4</ele>
        <time>2024-08-13T07:09:51.232Z</time>
      </trkpt>
      <trkpt lat="45.8350145816803" lon="4.618624448776245">
        <ele>227.31</ele>
        <time>2024-08-13T07:09:51.463Z</time>
      </trkpt>
      <trkpt lat="45.8350145816803" lon="4.618645906448364">
        <ele>227.29</ele>
        <time>2024-08-13T07:09:51.695Z</time>
      </trkpt>
      <trkpt lat="45.83492875099182" lon="4.6188390254974365">
        <ele>227.35</ele>
        <time>2024-08-13T07:09:51.929Z</time>
      </trkpt>
      <trkpt lat="45.83477854728699" lon="4.61925745010376">
        <ele>227.5</ele>
        <time>2024-08-13T07:09:52.169Z</time>
      </trkpt>
      <trkpt lat="45.83474636077881" lon="4.619386196136475">
        <ele>227.65</ele>
        <time>2024-08-13T07:09:52.410Z</time>
      </trkpt>
      <trkpt lat="45.83474636077881" lon="4.619697332382202">
        <ele>227.8</ele>
        <time>2024-08-13T07:09:52.655Z</time>
      </trkpt>
      <trkpt lat="45.83477854728699" lon="4.619890451431274">
        <ele>228.03</ele>
        <time>2024-08-13T07:09:52.902Z</time>
      </trkpt>
      <trkpt lat="45.834864377975464" lon="4.620126485824585">
        <ele>228.29</ele>
        <time>2024-08-13T07:09:53.152Z</time>
      </trkpt>
      <trkpt lat="45.8349609375" lon="4.620276689529419">
        <ele>228.53</ele>
        <time>2024-08-13T07:09:53.404Z</time>
      </trkpt>
      <trkpt lat="45.83546527661383" lon="4.620780944824219">
        <ele>228.7</ele>
        <time>2024-08-13T07:09:53.666Z</time>
      </trkpt>
      <trkpt lat="45.83573341369629" lon="4.62100625038147">
        <ele>228.86</ele>
        <time>2024-08-13T07:09:53.933Z</time>
      </trkpt>
      <trkpt lat="45.836387956514955" lon="4.621424674987793">
        <ele>229.09</ele>
        <time>2024-08-13T07:09:54.211Z</time>
      </trkpt>
      <trkpt lat="45.837353467941284" lon="4.622025489807129">
        <ele>228.86</ele>
        <time>2024-08-13T07:09:54.506Z</time>
      </trkpt>
      <trkpt lat="45.83747148513794" lon="4.622079133987427">
        <ele>228.88</ele>
        <time>2024-08-13T07:09:54.803Z</time>
      </trkpt>
      <trkpt lat="45.837643230333924" lon="4.622132778167725">
        <ele>228.87</ele>
        <time>2024-08-13T07:09:55.103Z</time>
      </trkpt>
      <trkpt lat="45.83769679069519" lon="4.622175693511963">
        <ele>228.81</ele>
        <time>2024-08-13T07:09:55.404Z</time>
      </trkpt>
      <trkpt lat="45.83782562054694" lon="4.622175693511963">
        <ele>228.63</ele>
        <time>2024-08-13T07:09:55.707Z</time>
      </trkpt>
      <trkpt lat="45.8378791809082" lon="4.622132778167725">
        <ele>228.31</ele>
        <time>2024-08-13T07:09:56.011Z</time>
      </trkpt>
      <trkpt lat="45.83794363774359" lon="4.622046947479248">
        <ele>227.81</ele>
        <time>2024-08-13T07:09:56.316Z</time>
      </trkpt>
      <trkpt lat="45.83797574043274" lon="4.621918201446533">
        <ele>227.28</ele>
        <time>2024-08-13T07:09:56.623Z</time>
      </trkpt>
      <trkpt lat="45.83797582425177" lon="4.621843099594116">
        <ele>226.9</ele>
        <time>2024-08-13T07:09:56.931Z</time>
      </trkpt>
      <trkpt lat="45.83794355392456" lon="4.621725082397461">
        <ele>226.59</ele>
        <time>2024-08-13T07:09:57.240Z</time>
      </trkpt>
      <trkpt lat="45.83819031715393" lon="4.621671438217163">
        <ele>226.29</ele>
        <time>2024-08-13T07:09:57.553Z</time>
      </trkpt>
      <trkpt lat="45.83866238594055" lon="4.621692895889282">
        <ele>226.02</ele>
        <time>2024-08-13T07:09:57.874Z</time>
      </trkpt>
      <trkpt lat="45.83866246975958" lon="4.621692895889282">
        <ele>225.7</ele>
        <time>2024-08-13T07:09:58.195Z</time>
      </trkpt>
      <trkpt lat="45.83920955657959" lon="4.6217358112335205">
        <ele>225.38</ele>
        <time>2024-08-13T07:09:58.525Z</time>
      </trkpt>
      <trkpt lat="45.83968162536621" lon="4.62199330329895">
        <ele>225.34</ele>
        <time>2024-08-13T07:09:58.863Z</time>
      </trkpt>
      <trkpt lat="45.840067863464355" lon="4.622379541397095">
        <ele>224.83</ele>
        <time>2024-08-13T07:09:59.208Z</time>
      </trkpt>
      <trkpt lat="45.840346813201904" lon="4.622937440872192">
        <ele>224.03</ele>
        <time>2024-08-13T07:09:59.561Z</time>
      </trkpt>
      <trkpt lat="45.84044337272644" lon="4.62323784828186">
        <ele>223.74</ele>
        <time>2024-08-13T07:09:59.918Z</time>
      </trkpt>
      <trkpt lat="45.8404541015625" lon="4.623398780822754">
        <ele>223.63</ele>
        <time>2024-08-13T07:10:00.276Z</time>
      </trkpt>
      <trkpt lat="45.84045418538153" lon="4.623398780822754">
        <ele>223.49</ele>
        <time>2024-08-13T07:10:00.634Z</time>
      </trkpt>
      <trkpt lat="45.84046483039856" lon="4.623527526855469">
        <ele>223.47</ele>
        <time>2024-08-13T07:10:00.994Z</time>
      </trkpt>
      <trkpt lat="45.84044337272644" lon="4.624385833740234">
        <ele>223.48</ele>
        <time>2024-08-13T07:10:01.363Z</time>
      </trkpt>
      <trkpt lat="45.84044345654547" lon="4.624385833740234">
        <ele>223.43</ele>
        <time>2024-08-13T07:10:01.732Z</time>
      </trkpt>
      <trkpt lat="45.84052920341492" lon="4.624868631362915">
        <ele>223.42</ele>
        <time>2024-08-13T07:10:02.107Z</time>
      </trkpt>
      <trkpt lat="45.84097981452942" lon="4.626199007034302">
        <ele>223.49</ele>
        <time>2024-08-13T07:10:02.499Z</time>
      </trkpt>
      <trkpt lat="45.84100127220154" lon="4.626767635345459">
        <ele>223.46</ele>
        <time>2024-08-13T07:10:02.897Z</time>
      </trkpt>
      <trkpt lat="45.84070086479187" lon="4.628409147262573">
        <ele>223.33</ele>
        <time>2024-08-13T07:10:03.314Z</time>
      </trkpt>
      <trkpt lat="45.84066867828369" lon="4.628623723983765">
        <ele>223.14</ele>
        <time>2024-08-13T07:10:03.733Z</time>
      </trkpt>
      <trkpt lat="45.840615117922425" lon="4.629793167114258">
        <ele>222.62</ele>
        <time>2024-08-13T07:10:04.165Z</time>
      </trkpt>
      <trkpt lat="45.840582847595215" lon="4.630511999130249">
        <ele>222.34</ele>
        <time>2024-08-13T07:10:04.606Z</time>
      </trkpt>
      <trkpt lat="45.840593576431274" lon="4.631016254425049">
        <ele>222.27</ele>
        <time>2024-08-13T07:10:05.052Z</time>
      </trkpt>
      <trkpt lat="45.84067940711975" lon="4.631295204162598">
        <ele>222.46</ele>
        <time>2024-08-13T07:10:05.502Z</time>
      </trkpt>
      <trkpt lat="45.84077596664429" lon="4.631541967391968">
        <ele>222.71</ele>
        <time>2024-08-13T07:10:05.955Z</time>
      </trkpt>
      <trkpt lat="45.84174156188965" lon="4.633280038833618">
        <ele>223.11</ele>
        <time>2024-08-13T07:10:06.433Z</time>
      </trkpt>
      <trkpt lat="45.84193468093872" lon="4.633591175079346">
        <ele>223.07</ele>
        <time>2024-08-13T07:10:06.915Z</time>
      </trkpt>
      <trkpt lat="45.84215998649597" lon="4.633848667144775">
        <ele>222.99</ele>
        <time>2024-08-13T07:10:07.402Z</time>
      </trkpt>
      <trkpt lat="45.84237456321716" lon="4.634063243865967">
        <ele>222.98</ele>
        <time>2024-08-13T07:10:07.893Z</time>
      </trkpt>
      <trkpt lat="45.842524766922" lon="4.6341705322265625">
        <ele>222.95</ele>
        <time>2024-08-13T07:10:08.387Z</time>
      </trkpt>
      <trkpt lat="45.84269642829895" lon="4.6342456340789795">
        <ele>222.82</ele>
        <time>2024-08-13T07:10:08.884Z</time>
      </trkpt>
      <trkpt lat="45.84296464920044" lon="4.634277820587158">
        <ele>222.65</ele>
        <time>2024-08-13T07:10:09.385Z</time>
      </trkpt>
      <trkpt lat="45.84328651428223" lon="4.634191989898682">
        <ele>222.62</ele>
        <time>2024-08-13T07:10:09.891Z</time>
      </trkpt>
      <trkpt lat="45.84351181983948" lon="4.634063243865967">
        <ele>222.57</ele>
        <time>2024-08-13T07:10:10.401Z</time>
      </trkpt>
      <trkpt lat="45.843801498413086" lon="4.633837938308716">
        <ele>222.5</ele>
        <time>2024-08-13T07:10:10.916Z</time>
      </trkpt>
      <trkpt lat="45.84396243095398" lon="4.633784294128418">
        <ele>222.52</ele>
        <time>2024-08-13T07:10:11.434Z</time>
      </trkpt>
      <trkpt lat="45.844295024871826" lon="4.633666276931763">
        <ele>222.51</ele>
        <time>2024-08-13T07:10:11.957Z</time>
      </trkpt>
      <trkpt lat="45.84487438201904" lon="4.633601903915405">
        <ele>222.74</ele>
        <time>2024-08-13T07:10:12.490Z</time>
      </trkpt>
      <trkpt lat="45.84512114524841" lon="4.633634090423584">
        <ele>221.69</ele>
        <time>2024-08-13T07:10:13.027Z</time>
      </trkpt>
      <trkpt lat="45.84524989128113" lon="4.633698463439941">
        <ele>220.55</ele>
        <time>2024-08-13T07:10:13.566Z</time>
      </trkpt>
      <trkpt lat="45.845561027526855" lon="4.633923768997192">
        <ele>219.27</ele>
        <time>2024-08-13T07:10:14.110Z</time>
      </trkpt>
      <trkpt lat="45.84627122618258" lon="4.634484434500337">
        <ele>218.47</ele>
        <time>2024-08-13T07:10:14.667Z</time>
      </trkpt>
      <trkpt lat="45.84627131000161" lon="4.634484518319368">
        <ele>218.47</ele>
        <time>2024-08-13T07:10:15.224Z</time>
      </trkpt>
      <trkpt lat="45.84637641906738" lon="4.634567499160767">
        <ele>217.22</ele>
        <time>2024-08-13T07:10:15.783Z</time>
      </trkpt>
      <trkpt lat="45.846548080444336" lon="4.63472843170166">
        <ele>217.63</ele>
        <time>2024-08-13T07:10:16.346Z</time>
      </trkpt>
      <trkpt lat="45.84668755531311" lon="4.634921550750732">
        <ele>218.22</ele>
        <time>2024-08-13T07:10:16.912Z</time>
      </trkpt>
      <trkpt lat="45.84678411483765" lon="4.635114669799805">
        <ele>218.89</ele>
        <time>2024-08-13T07:10:17.480Z</time>
      </trkpt>
      <trkpt lat="45.84685921669006" lon="4.635350704193115">
        <ele>219.61</ele>
        <time>2024-08-13T07:10:18.051Z</time>
      </trkpt>
      <trkpt lat="45.84691286087036" lon="4.635672569274902">
        <ele>220.32</ele>
        <time>2024-08-13T07:10:18.626Z</time>
      </trkpt>
      <trkpt lat="45.84694504737854" lon="4.636112451553345">
        <ele>220.71</ele>
        <time>2024-08-13T07:10:19.206Z</time>
      </trkpt>
      <trkpt lat="45.84699869155884" lon="4.636348485946655">
        <ele>221.04</ele>
        <time>2024-08-13T07:10:19.789Z</time>
      </trkpt>
      <trkpt lat="45.847063064575195" lon="4.636509418487549">
        <ele>221.32</ele>
        <time>2024-08-13T07:10:20.374Z</time>
      </trkpt>
      <trkpt lat="45.84714889526367" lon="4.636627435684204">
        <ele>221.69</ele>
        <time>2024-08-13T07:10:20.961Z</time>
      </trkpt>
      <trkpt lat="45.848071575164795" lon="4.637281894683838">
        <ele>223.13</ele>
        <time>2024-08-13T07:10:21.564Z</time>
      </trkpt>
      <trkpt lat="45.848318338394165" lon="4.637550115585327">
        <ele>223.7</ele>
        <time>2024-08-13T07:10:22.172Z</time>
      </trkpt>
      <trkpt lat="45.84872603416443" lon="4.63823676109314">
        <ele>224.03</ele>
        <time>2024-08-13T07:10:22.790Z</time>
      </trkpt>
      <trkpt lat="45.84889769554138" lon="4.6386659145355225">
        <ele>224.27</ele>
        <time>2024-08-13T07:10:23.414Z</time>
      </trkpt>
      <trkpt lat="45.84892988204956" lon="4.638901948928833">
        <ele>224.26</ele>
        <time>2024-08-13T07:10:24.040Z</time>
      </trkpt>
      <trkpt lat="45.84892988204956" lon="4.639148712158203">
        <ele>224.18</ele>
        <time>2024-08-13T07:10:24.669Z</time>
      </trkpt>
      <trkpt lat="45.84868311882019" lon="4.640125036239624">
        <ele>223.74</ele>
        <time>2024-08-13T07:10:25.310Z</time>
      </trkpt>
      <trkpt lat="45.84864020347595" lon="4.640564918518066">
        <ele>223.33</ele>
        <time>2024-08-13T07:10:25.956Z</time>
      </trkpt>
      <trkpt lat="45.84873676300049" lon="4.641841650009155">
        <ele>222.82</ele>
        <time>2024-08-13T07:10:26.616Z</time>
      </trkpt>
      <trkpt lat="45.848833322525024" lon="4.6422600746154785">
        <ele>222.31</ele>
        <time>2024-08-13T07:10:27.281Z</time>
      </trkpt>
      <trkpt lat="45.849080085754395" lon="4.642646312713623">
        <ele>221.89</ele>
        <time>2024-08-13T07:10:27.952Z</time>
      </trkpt>
      <trkpt lat="45.850099325180054" lon="4.643601179122925">
        <ele>221.54</ele>
        <time>2024-08-13T07:10:28.642Z</time>
      </trkpt>
      <trkpt lat="45.85038900375366" lon="4.643998146057129">
        <ele>221.2</ele>
        <time>2024-08-13T07:10:29.339Z</time>
      </trkpt>
      <trkpt lat="45.85117220878601" lon="4.645510911941528">
        <ele>220.3</ele>
        <time>2024-08-13T07:10:30.057Z</time>
      </trkpt>
      <trkpt lat="45.85117229260504" lon="4.645510911941528">
        <ele>219.65</ele>
        <time>2024-08-13T07:10:30.775Z</time>
      </trkpt>
      <trkpt lat="45.851311683654785" lon="4.646422863006592">
        <ele>218.99</ele>
        <time>2024-08-13T07:10:31.503Z</time>
      </trkpt>
      <trkpt lat="45.85152626037598" lon="4.647291898727417">
        <ele>217.97</ele>
        <time>2024-08-13T07:10:32.242Z</time>
      </trkpt>
      <trkpt lat="45.85168719291687" lon="4.647742509841919">
        <ele>217.29</ele>
        <time>2024-08-13T07:10:32.986Z</time>
      </trkpt>
      <trkpt lat="45.852288007736206" lon="4.648847579956055">
        <ele>216.18</ele>
        <time>2024-08-13T07:10:33.746Z</time>
      </trkpt>
      <trkpt lat="45.852792263031006" lon="4.649630784988403">
        <ele>215.43</ele>
        <time>2024-08-13T07:10:34.518Z</time>
      </trkpt>
      <trkpt lat="45.85312485694885" lon="4.650038480758667">
        <ele>214.97</ele>
        <time>2024-08-13T07:10:35.297Z</time>
      </trkpt>
      <trkpt lat="45.855292081832886" lon="4.652044773101807">
        <ele>214.19</ele>
        <time>2024-08-13T07:10:36.117Z</time>
      </trkpt>
      <trkpt lat="45.85544228553772" lon="4.652152061462402">
        <ele>213.6</ele>
        <time>2024-08-13T07:10:36.940Z</time>
      </trkpt>
      <trkpt lat="45.8563756942749" lon="4.652634859085083">
        <ele>213.22</ele>
        <time>2024-08-13T07:10:37.779Z</time>
      </trkpt>
      <trkpt lat="45.85665464401245" lon="4.652860164642334">
        <ele>212.88</ele>
        <time>2024-08-13T07:10:38.623Z</time>
      </trkpt>
      <trkpt lat="45.85696578025818" lon="4.65320348739624">
        <ele>212.41</ele>
        <time>2024-08-13T07:10:39.473Z</time>
      </trkpt>
      <trkpt lat="45.85710525512695" lon="4.653418064117432">
        <ele>211.93</ele>
        <time>2024-08-13T07:10:40.326Z</time>
      </trkpt>
      <trkpt lat="45.85721254348755" lon="4.6536219120025635">
        <ele>211.5</ele>
        <time>2024-08-13T07:10:41.182Z</time>
      </trkpt>
      <trkpt lat="45.85740566253662" lon="4.654169082641602">
        <ele>211.05</ele>
        <time>2024-08-13T07:10:42.045Z</time>
      </trkpt>
      <trkpt lat="45.85759878158569" lon="4.654791355133057">
        <ele>210.45</ele>
        <time>2024-08-13T07:10:42.916Z</time>
      </trkpt>
      <trkpt lat="45.85772752761841" lon="4.655102491378784">
        <ele>210.05</ele>
        <time>2024-08-13T07:10:43.791Z</time>
      </trkpt>
      <trkpt lat="45.85800647735596" lon="4.655671119689941">
        <ele>209.92</ele>
        <time>2024-08-13T07:10:44.674Z</time>
      </trkpt>
      <trkpt lat="45.85803874768317" lon="4.655746221542358">
        <ele>209.57</ele>
        <time>2024-08-13T07:10:45.558Z</time>
      </trkpt>
      <trkpt lat="45.858564376831055" lon="4.656722545623779">
        <ele>208.69</ele>
        <time>2024-08-13T07:10:46.455Z</time>
      </trkpt>
      <trkpt lat="45.85863947868347" lon="4.656904935836792">
        <ele>208.36</ele>
        <time>2024-08-13T07:10:47.355Z</time>
      </trkpt>
      <trkpt lat="45.85872530937195" lon="4.6571946144104">
        <ele>208.07</ele>
        <time>2024-08-13T07:10:48.258Z</time>
      </trkpt>
      <trkpt lat="45.85874676704407" lon="4.657409191131592">
        <ele>207.93</ele>
        <time>2024-08-13T07:10:49.164Z</time>
      </trkpt>
      <trkpt lat="45.85876822471619" lon="4.657645225524902">
        <ele>207.97</ele>
        <time>2024-08-13T07:10:50.072Z</time>
      </trkpt>
      <trkpt lat="45.85875757969916" lon="4.657881259918213">
        <ele>208.29</ele>
        <time>2024-08-13T07:10:50.983Z</time>
      </trkpt>
      <trkpt lat="45.85872530937195" lon="4.658128023147583">
        <ele>208.76</ele>
        <time>2024-08-13T07:10:51.897Z</time>
      </trkpt>
      <trkpt lat="45.85867166519165" lon="4.658321142196655">
        <ele>209.56</ele>
        <time>2024-08-13T07:10:52.813Z</time>
      </trkpt>
      <trkpt lat="45.858585834503174" lon="4.658535718917847">
        <ele>210.47</ele>
        <time>2024-08-13T07:10:53.732Z</time>
      </trkpt>
      <trkpt lat="45.8585000038147" lon="4.65869665145874">
        <ele>211.15</ele>
        <time>2024-08-13T07:10:54.653Z</time>
      </trkpt>
      <trkpt lat="45.85850008763373" lon="4.65869665145874">
        <ele>211.66</ele>
        <time>2024-08-13T07:10:55.574Z</time>
      </trkpt>
      <trkpt lat="45.85836052894592" lon="4.658900499343872">
        <ele>212.24</ele>
        <time>2024-08-13T07:10:56.498Z</time>
      </trkpt>
      <trkpt lat="45.85764169692993" lon="4.659619331359863">
        <ele>212.74</ele>
        <time>2024-08-13T07:10:57.436Z</time>
      </trkpt>
      <trkpt lat="45.85748076438904" lon="4.659823179244995">
        <ele>212.8</ele>
        <time>2024-08-13T07:10:58.378Z</time>
      </trkpt>
      <trkpt lat="45.85737347602844" lon="4.660048484802246">
        <ele>212.77</ele>
        <time>2024-08-13T07:10:59.323Z</time>
      </trkpt>
      <trkpt lat="45.857309103012085" lon="4.660284519195557">
        <ele>213.0</ele>
        <time>2024-08-13T07:11:00.271Z</time>
      </trkpt>
      <trkpt lat="45.85686922073364" lon="4.662505388259888">
        <ele>213.79</ele>
        <time>2024-08-13T07:11:01.245Z</time>
      </trkpt>
      <trkpt lat="45.85672974586487" lon="4.663020372390747">
        <ele>213.23</ele>
        <time>2024-08-13T07:11:02.225Z</time>
      </trkpt>
      <trkpt lat="45.85641860961914" lon="4.663964509963989">
        <ele>212.81</ele>
        <time>2024-08-13T07:11:03.216Z</time>
      </trkpt>
      <trkpt lat="45.856343507766724" lon="4.664350748062134">
        <ele>212.06</ele>
        <time>2024-08-13T07:11:04.212Z</time>
      </trkpt>
      <trkpt lat="45.85616111755371" lon="4.666324853897095">
        <ele>210.84</ele>
        <time>2024-08-13T07:11:05.230Z</time>
      </trkpt>
      <trkpt lat="45.85616111755371" lon="4.666796922683716">
        <ele>209.87</ele>
        <time>2024-08-13T07:11:06.253Z</time>
      </trkpt>
      <trkpt lat="45.856279134750366" lon="4.6682775020599365">
        <ele>208.71</ele>
        <time>2024-08-13T07:11:07.293Z</time>
      </trkpt>
      <trkpt lat="45.856322050094604" lon="4.668620824813843">
        <ele>207.98</ele>
        <time>2024-08-13T07:11:08.337Z</time>
      </trkpt>
      <trkpt lat="45.85640788078308" lon="4.668824672698975">
        <ele>207.63</ele>
        <time>2024-08-13T07:11:09.384Z</time>
      </trkpt>
      <trkpt lat="45.8564829826355" lon="4.66894268989563">
        <ele>207.58</ele>
        <time>2024-08-13T07:11:10.432Z</time>
      </trkpt>
      <trkpt lat="45.85662245750427" lon="4.6690285205841064">
        <ele>207.98</ele>
        <time>2024-08-13T07:11:11.483Z</time>
      </trkpt>
      <trkpt lat="45.85686410777271" lon="4.669136814773083">
        <ele>208.53</ele>
        <time>2024-08-13T07:11:12.538Z</time>
      </trkpt>
      <trkpt lat="45.85686419159174" lon="4.669136814773083">
        <ele>208.53</ele>
        <time>2024-08-13T07:11:13.593Z</time>
      </trkpt>
      <trkpt lat="45.8568643592298" lon="4.669136982411146">
        <ele>208.54</ele>
        <time>2024-08-13T07:11:14.648Z</time>
      </trkpt>
      <trkpt lat="45.85693359375" lon="4.669167995452881">
        <ele>207.47</ele>
        <time>2024-08-13T07:11:15.704Z</time>
      </trkpt>
      <trkpt lat="45.85603245534003" lon="4.669296741485596">
        <ele>207.02</ele>
        <time>2024-08-13T07:11:16.775Z</time>
      </trkpt>
      <trkpt lat="45.855592489242554" lon="4.669414758682251">
        <ele>207.7</ele>
        <time>2024-08-13T07:11:17.853Z</time>
      </trkpt>
      <trkpt lat="45.85535645484924" lon="4.669457674026489">
        <ele>208.76</ele>
        <time>2024-08-13T07:11:18.935Z</time>
      </trkpt>
      <trkpt lat="45.855335080996156" lon="4.669457674026489">
        <ele>209.91</ele>
        <time>2024-08-13T07:11:20.017Z</time>
      </trkpt>
      <trkpt lat="45.854605520144105" lon="4.669607877731323">
        <ele>211.84</ele>
        <time>2024-08-13T07:11:21.111Z</time>
      </trkpt>
      <trkpt lat="45.854541063308716" lon="4.669618606567383">
        <ele>213.46</ele>
        <time>2024-08-13T07:11:22.206Z</time>
      </trkpt>
      <trkpt lat="45.85416555404663" lon="4.669522047042847">
        <ele>215.37</ele>
        <time>2024-08-13T07:11:23.307Z</time>
      </trkpt>
      <trkpt lat="45.85400462150574" lon="4.6695756912231445">
        <ele>216.95</ele>
        <time>2024-08-13T07:11:24.410Z</time>
      </trkpt>
      <trkpt lat="45.85392951965332" lon="4.669404029846191">
        <ele>219.04</ele>
        <time>2024-08-13T07:11:25.516Z</time>
      </trkpt>
      <trkpt lat="45.85319995880127" lon="4.66917872428894">
        <ele>221.29</ele>
        <time>2024-08-13T07:11:26.634Z</time>
      </trkpt>
      <trkpt lat="45.8529531955719" lon="4.669167995452881">
        <ele>223.57</ele>
        <time>2024-08-13T07:11:27.756Z</time>
      </trkpt>
      <trkpt lat="45.85249185562134" lon="4.669210910797119">
        <ele>225.61</ele>
        <time>2024-08-13T07:11:28.885Z</time>
      </trkpt>
      <trkpt lat="45.85235238075256" lon="4.66917872428894">
        <ele>227.49</ele>
        <time>2024-08-13T07:11:30.016Z</time>
      </trkpt>
      <trkpt lat="45.85211634635925" lon="4.669060707092285">
        <ele>229.11</ele>
        <time>2024-08-13T07:11:31.151Z</time>
      </trkpt>
      <trkpt lat="45.85193395614624" lon="4.668835401535034">
        <ele>230.78</ele>
        <time>2024-08-13T07:11:32.290Z</time>
      </trkpt>
      <trkpt lat="45.85135459899902" lon="4.66793417930603">
        <ele>232.5</ele>
        <time>2024-08-13T07:11:33.443Z</time>
      </trkpt>
      <trkpt lat="45.85121512413025" lon="4.667762517929077">
        <ele>234.09</ele>
        <time>2024-08-13T07:11:34.599Z</time>
      </trkpt>
      <trkpt lat="45.851032733917236" lon="4.667569398880005">
        <ele>235.85</ele>
        <time>2024-08-13T07:11:35.758Z</time>
      </trkpt>
      <trkpt lat="45.850807428359985" lon="4.667397737503052">
        <ele>237.62</ele>
        <time>2024-08-13T07:11:36.922Z</time>
      </trkpt>
      <trkpt lat="45.85046410560608" lon="4.667226076126099">
        <ele>239.43</ele>
        <time>2024-08-13T07:11:38.091Z</time>
      </trkpt>
      <trkpt lat="45.85018515586853" lon="4.66718316078186">
        <ele>241.22</ele>
        <time>2024-08-13T07:11:39.265Z</time>
      </trkpt>
      <trkpt lat="45.84968090057373" lon="4.6669793128967285">
        <ele>243.08</ele>
        <time>2024-08-13T07:11:40.447Z</time>
      </trkpt>
      <trkpt lat="45.84890842437744" lon="4.66693639755249">
        <ele>244.13</ele>
        <time>2024-08-13T07:11:41.642Z</time>
      </trkpt>
      <trkpt lat="45.84876894950867" lon="4.666893482208252">
        <ele>245.34</ele>
        <time>2024-08-13T07:11:42.839Z</time>
      </trkpt>
      <trkpt lat="45.84867238998413" lon="4.666807651519775">
        <ele>246.54</ele>
        <time>2024-08-13T07:11:44.038Z</time>
      </trkpt>
      <trkpt lat="45.84860801696777" lon="4.66670036315918">
        <ele>247.74</ele>
        <time>2024-08-13T07:11:45.238Z</time>
      </trkpt>
      <trkpt lat="45.848565101623535" lon="4.666528701782227">
        <ele>248.92</ele>
        <time>2024-08-13T07:11:46.440Z</time>
      </trkpt>
      <trkpt lat="45.848586559295654" lon="4.665863513946533">
        <ele>250.43</ele>
        <time>2024-08-13T07:11:47.650Z</time>
      </trkpt>
      <trkpt lat="45.848586643114686" lon="4.665863513946533">
        <ele>251.52</ele>
        <time>2024-08-13T07:11:48.860Z</time>
      </trkpt>
      <trkpt lat="45.84847927093506" lon="4.665423631668091">
        <ele>253.02</ele>
        <time>2024-08-13T07:11:50.075Z</time>
      </trkpt>
      <trkpt lat="45.84840416908264" lon="4.665251970291138">
        <ele>254.23</ele>
        <time>2024-08-13T07:11:51.292Z</time>
      </trkpt>
      <trkpt lat="45.84826469421387" lon="4.665080308914185">
        <ele>255.29</ele>
        <time>2024-08-13T07:11:52.512Z</time>
      </trkpt>
      <trkpt lat="45.848071575164795" lon="4.664887189865112">
        <ele>256.27</ele>
        <time>2024-08-13T07:11:53.736Z</time>
      </trkpt>
      <trkpt lat="45.84792137145996" lon="4.6647584438323975">
        <ele>257.16</ele>
        <time>2024-08-13T07:11:54.963Z</time>
      </trkpt>
      <trkpt lat="45.84776043891907" lon="4.664672613143921">
        <ele>257.91</ele>
        <time>2024-08-13T07:11:56.192Z</time>
      </trkpt>
      <trkpt lat="45.84765315055847" lon="4.664651155471802">
        <ele>258.6</ele>
        <time>2024-08-13T07:11:57.423Z</time>
      </trkpt>
      <trkpt lat="45.847545862197876" lon="4.664661884307861">
        <ele>259.28</ele>
        <time>2024-08-13T07:11:58.656Z</time>
      </trkpt>
      <trkpt lat="45.8474063873291" lon="4.664736986160278">
        <ele>259.96</ele>
        <time>2024-08-13T07:11:59.891Z</time>
      </trkpt>
      <trkpt lat="45.84675192832947" lon="4.665369987487793">
        <ele>261.26</ele>
        <time>2024-08-13T07:12:01.139Z</time>
      </trkpt>
      <trkpt lat="45.84652662277222" lon="4.665541648864746">
        <ele>262.03</ele>
        <time>2024-08-13T07:12:02.391Z</time>
      </trkpt>
      <trkpt lat="45.84627985954285" lon="4.665627479553223">
        <ele>263.09</ele>
        <time>2024-08-13T07:12:03.647Z</time>
      </trkpt>
      <trkpt lat="45.84601163864136" lon="4.665648937225342">
        <ele>264.02</ele>
        <time>2024-08-13T07:12:04.907Z</time>
      </trkpt>
      <trkpt lat="45.845829248428345" lon="4.665616750717163">
        <ele>265.07</ele>
        <time>2024-08-13T07:12:06.170Z</time>
      </trkpt>
      <trkpt lat="45.84564685821533" lon="4.665552377700806">
        <ele>266.24</ele>
        <time>2024-08-13T07:12:07.436Z</time>
      </trkpt>
      <trkpt lat="45.84513187408447" lon="4.6652305126190186">
        <ele>267.74</ele>
        <time>2024-08-13T07:12:08.711Z</time>
      </trkpt>
      <trkpt lat="45.844852924346924" lon="4.665133953094482">
        <ele>268.87</ele>
        <time>2024-08-13T07:12:09.991Z</time>
      </trkpt>
      <trkpt lat="45.84450960159302" lon="4.665048122406006">
        <ele>270.1</ele>
        <time>2024-08-13T07:12:11.277Z</time>
      </trkpt>
      <trkpt lat="45.844305753707886" lon="4.66495156288147">
        <ele>271.45</ele>
        <time>2024-08-13T07:12:12.566Z</time>
      </trkpt>
      <trkpt lat="45.84415555000305" lon="4.664801359176636">
        <ele>272.84</ele>
        <time>2024-08-13T07:12:13.858Z</time>
      </trkpt>
      <trkpt lat="45.84402680397034" lon="4.664618968963623">
        <ele>274.3</ele>
        <time>2024-08-13T07:12:15.153Z</time>
      </trkpt>
      <trkpt lat="45.84394097328186" lon="4.664404392242432">
        <ele>275.85</ele>
        <time>2024-08-13T07:12:16.451Z</time>
      </trkpt>
      <trkpt lat="45.843855142593384" lon="4.664061069488525">
        <ele>277.48</ele>
        <time>2024-08-13T07:12:17.753Z</time>
      </trkpt>
      <trkpt lat="45.843833768740296" lon="4.663492441177368">
        <ele>279.2</ele>
        <time>2024-08-13T07:12:19.061Z</time>
      </trkpt>
      <trkpt lat="45.843801498413086" lon="4.663041830062866">
        <ele>280.73</ele>
        <time>2024-08-13T07:12:20.374Z</time>
      </trkpt>
      <trkpt lat="45.84371575154364" lon="4.66245174407959">
        <ele>282.42</ele>
        <time>2024-08-13T07:12:21.694Z</time>
      </trkpt>
      <trkpt lat="45.84353336133063" lon="4.6612608432769775">
        <ele>284.33</ele>
        <time>2024-08-13T07:12:23.027Z</time>
      </trkpt>
      <trkpt lat="45.8435332775116" lon="4.66119647026062">
        <ele>285.86</ele>
        <time>2024-08-13T07:12:24.361Z</time>
      </trkpt>
      <trkpt lat="45.84349036216736" lon="4.660885334014893">
        <ele>287.44</ele>
        <time>2024-08-13T07:12:25.699Z</time>
      </trkpt>
      <trkpt lat="45.84343671798706" lon="4.6606385707855225">
        <ele>288.98</ele>
        <time>2024-08-13T07:12:27.040Z</time>
      </trkpt>
      <trkpt lat="45.84338307380676" lon="4.66044545173645">
        <ele>290.51</ele>
        <time>2024-08-13T07:12:28.383Z</time>
      </trkpt>
      <trkpt lat="45.843307971954346" lon="4.660284519195557">
        <ele>292.0</ele>
        <time>2024-08-13T07:12:29.728Z</time>
      </trkpt>
      <trkpt lat="45.84321149624884" lon="4.660145044326782">
        <ele>293.46</ele>
        <time>2024-08-13T07:12:31.075Z</time>
      </trkpt>
      <trkpt lat="45.843104124069214" lon="4.660016298294067">
        <ele>294.86</ele>
        <time>2024-08-13T07:12:32.425Z</time>
      </trkpt>
      <trkpt lat="45.84295392036438" lon="4.659930467605591">
        <ele>296.18</ele>
        <time>2024-08-13T07:12:33.777Z</time>
      </trkpt>
      <trkpt lat="45.84211707115173" lon="4.659662246704102">
        <ele>297.54</ele>
        <time>2024-08-13T07:12:35.143Z</time>
      </trkpt>
      <trkpt lat="45.84194549359381" lon="4.659576416015625">
        <ele>298.68</ele>
        <time>2024-08-13T07:12:36.512Z</time>
      </trkpt>
      <trkpt lat="45.84163427352905" lon="4.659329652786255">
        <ele>299.74</ele>
        <time>2024-08-13T07:12:37.886Z</time>
      </trkpt>
      <trkpt lat="45.8415162563324" lon="4.6592116355896">
        <ele>300.7</ele>
        <time>2024-08-13T07:12:39.263Z</time>
      </trkpt>
      <trkpt lat="45.84141969680786" lon="4.659082889556885">
        <ele>301.61</ele>
        <time>2024-08-13T07:12:40.642Z</time>
      </trkpt>
      <trkpt lat="45.84122657775879" lon="4.65869665145874">
        <ele>302.5</ele>
        <time>2024-08-13T07:12:42.026Z</time>
      </trkpt>
      <trkpt lat="45.84118366241455" lon="4.658546447753906">
        <ele>303.39</ele>
        <time>2024-08-13T07:12:43.412Z</time>
      </trkpt>
      <trkpt lat="45.84115147590637" lon="4.658396244049072">
        <ele>304.28</ele>
        <time>2024-08-13T07:12:44.800Z</time>
      </trkpt>
      <trkpt lat="45.84115147590637" lon="4.658052921295166">
        <ele>305.36</ele>
        <time>2024-08-13T07:12:46.192Z</time>
      </trkpt>
      <trkpt lat="45.84116220474243" lon="4.6578919887542725">
        <ele>306.26</ele>
        <time>2024-08-13T07:12:47.585Z</time>
      </trkpt>
      <trkpt lat="45.84120512008667" lon="4.657720327377319">
        <ele>307.19</ele>
        <time>2024-08-13T07:12:48.980Z</time>
      </trkpt>
      <trkpt lat="45.84144115447998" lon="4.6569907665252686">
        <ele>308.3</ele>
        <time>2024-08-13T07:12:50.384Z</time>
      </trkpt>
      <trkpt lat="45.841569900512695" lon="4.65645432472229">
        <ele>309.42</ele>
        <time>2024-08-13T07:12:51.795Z</time>
      </trkpt>
      <trkpt lat="45.841602087020874" lon="4.656186103820801">
        <ele>310.43</ele>
        <time>2024-08-13T07:12:53.209Z</time>
      </trkpt>
      <trkpt lat="45.841602087020874" lon="4.655939340591431">
        <ele>311.47</ele>
        <time>2024-08-13T07:12:54.626Z</time>
      </trkpt>
      <trkpt lat="45.841580629348755" lon="4.655799865722656">
        <ele>312.46</ele>
        <time>2024-08-13T07:12:56.044Z</time>
      </trkpt>
      <trkpt lat="45.84153771400452" lon="4.655660390853882">
        <ele>313.48</ele>
        <time>2024-08-13T07:12:57.464Z</time>
      </trkpt>
      <trkpt lat="45.84147334098816" lon="4.655520915985107">
        <ele>314.49</ele>
        <time>2024-08-13T07:12:58.886Z</time>
      </trkpt>
      <trkpt lat="45.84087252616882" lon="4.65470552444458">
        <ele>315.77</ele>
        <time>2024-08-13T07:13:00.321Z</time>
      </trkpt>
      <trkpt lat="45.84079750813544" lon="4.654523134231567">
        <ele>316.68</ele>
        <time>2024-08-13T07:13:01.758Z</time>
      </trkpt>
      <trkpt lat="45.840797424316406" lon="4.654523134231567">
        <ele>317.54</ele>
        <time>2024-08-13T07:13:03.195Z</time>
      </trkpt>
      <trkpt lat="45.84075450897217" lon="4.654372930526733">
        <ele>318.48</ele>
        <time>2024-08-13T07:13:04.634Z</time>
      </trkpt>
      <trkpt lat="45.84078669548035" lon="4.654308557510376">
        <ele>319.33</ele>
        <time>2024-08-13T07:13:06.074Z</time>
      </trkpt>
      <trkpt lat="45.840797424316406" lon="4.654233455657959">
        <ele>320.15</ele>
        <time>2024-08-13T07:13:07.515Z</time>
      </trkpt>
      <trkpt lat="45.84078669548035" lon="4.654147624969482">
        <ele>320.97</ele>
        <time>2024-08-13T07:13:08.957Z</time>
      </trkpt>
      <trkpt lat="45.84075450897217" lon="4.654061794281006">
        <ele>321.79</ele>
        <time>2024-08-13T07:13:10.400Z</time>
      </trkpt>
      <trkpt lat="45.84070086479187" lon="4.654018878936768">
        <ele>322.59</ele>
        <time>2024-08-13T07:13:11.844Z</time>
      </trkpt>
      <trkpt lat="45.84065803326666" lon="4.653868675231934">
        <ele>323.44</ele>
        <time>2024-08-13T07:13:13.290Z</time>
      </trkpt>
      <trkpt lat="45.84065794944763" lon="4.6538472175598145">
        <ele>324.19</ele>
        <time>2024-08-13T07:13:14.736Z</time>
      </trkpt>
      <trkpt lat="45.84076523780823" lon="4.653654098510742">
        <ele>325.03</ele>
        <time>2024-08-13T07:13:16.185Z</time>
      </trkpt>
      <trkpt lat="45.84145188331604" lon="4.653235673904419">
        <ele>325.68</ele>
        <time>2024-08-13T07:13:17.646Z</time>
      </trkpt>
      <trkpt lat="45.84137678146362" lon="4.653074741363525">
        <ele>326.6</ele>
        <time>2024-08-13T07:13:19.109Z</time>
      </trkpt>
      <trkpt lat="45.84116220474243" lon="4.652838706970215">
        <ele>327.59</ele>
        <time>2024-08-13T07:13:20.576Z</time>
      </trkpt>
      <trkpt lat="45.840904712677" lon="4.652602672576904">
        <ele>328.65</ele>
        <time>2024-08-13T07:13:22.048Z</time>
      </trkpt>
      <trkpt lat="45.84075450897217" lon="4.652527570724487">
        <ele>329.7</ele>
        <time>2024-08-13T07:13:23.523Z</time>
      </trkpt>
      <trkpt lat="45.8404541015625" lon="4.652538299560547">
        <ele>330.83</ele>
        <time>2024-08-13T07:13:25.003Z</time>
      </trkpt>
      <trkpt lat="45.83976745605469" lon="4.652731418609619">
        <ele>331.98</ele>
        <time>2024-08-13T07:13:26.494Z</time>
      </trkpt>
      <trkpt lat="45.839359760284424" lon="4.652806520462036">
        <ele>333.01</ele>
        <time>2024-08-13T07:13:27.991Z</time>
      </trkpt>
      <trkpt lat="45.8392954710871" lon="4.652774333953857">
        <ele>334.1</ele>
        <time>2024-08-13T07:13:29.489Z</time>
      </trkpt>
      <trkpt lat="45.83912372589111" lon="4.652667045593262">
        <ele>335.22</ele>
        <time>2024-08-13T07:13:30.990Z</time>
      </trkpt>
      <trkpt lat="45.83876967430115" lon="4.652742147445679">
        <ele>336.25</ele>
        <time>2024-08-13T07:13:32.497Z</time>
      </trkpt>
      <trkpt lat="45.838351249694824" lon="4.6529459953308105">
        <ele>337.49</ele>
        <time>2024-08-13T07:13:34.011Z</time>
      </trkpt>
      <trkpt lat="45.83781489171088" lon="4.652988910675049">
        <ele>338.96</ele>
        <time>2024-08-13T07:13:35.534Z</time>
      </trkpt>
      <trkpt lat="45.83743929862976" lon="4.652924537658691">
        <ele>340.49</ele>
        <time>2024-08-13T07:13:37.063Z</time>
      </trkpt>
      <trkpt lat="45.83714962005615" lon="4.652827978134155">
        <ele>341.81</ele>
        <time>2024-08-13T07:13:38.597Z</time>
      </trkpt>
      <trkpt lat="45.83683856762946" lon="4.652785062789917">
        <ele>343.03</ele>
        <time>2024-08-13T07:13:40.136Z</time>
      </trkpt>
      <trkpt lat="45.83673127926886" lon="4.652774333953857">
        <ele>344.03</ele>
        <time>2024-08-13T07:13:41.676Z</time>
      </trkpt>
      <trkpt lat="45.83663463592529" lon="4.652731418609619">
        <ele>344.92</ele>
        <time>2024-08-13T07:13:43.218Z</time>
      </trkpt>
      <trkpt lat="45.83592653274536" lon="4.652130603790283">
        <ele>345.84</ele>
        <time>2024-08-13T07:13:44.773Z</time>
      </trkpt>
      <trkpt lat="45.83571195602417" lon="4.652034044265747">
        <ele>346.23</ele>
        <time>2024-08-13T07:13:46.332Z</time>
      </trkpt>
      <trkpt lat="45.83533653058112" lon="4.651926755905151">
        <ele>346.29</ele>
        <time>2024-08-13T07:13:47.897Z</time>
      </trkpt>
      <trkpt lat="45.8349072933197" lon="4.6517980098724365">
        <ele>346.22</ele>
        <time>2024-08-13T07:13:49.469Z</time>
      </trkpt>
      <trkpt lat="45.83428502082825" lon="4.651765823364258">
        <ele>346.26</ele>
        <time>2024-08-13T07:13:51.051Z</time>
      </trkpt>
      <trkpt lat="45.83428510464728" lon="4.651765823364258">
        <ele>346.3</ele>
        <time>2024-08-13T07:13:52.633Z</time>
      </trkpt>
      <trkpt lat="45.833877408877015" lon="4.6517014503479">
        <ele>346.04</ele>
        <time>2024-08-13T07:13:54.221Z</time>
      </trkpt>
      <trkpt lat="45.8329439163208" lon="4.651529788970947">
        <ele>346.36</ele>
        <time>2024-08-13T07:13:55.824Z</time>
      </trkpt>
      <trkpt lat="45.83268642425537" lon="4.65145468711853">
        <ele>346.06</ele>
        <time>2024-08-13T07:13:57.432Z</time>
      </trkpt>
      <trkpt lat="45.83242901600897" lon="4.651315212249756">
        <ele>345.8</ele>
        <time>2024-08-13T07:13:59.044Z</time>
      </trkpt>
      <trkpt lat="45.83226799964905" lon="4.651154279708862">
        <ele>345.57</ele>
        <time>2024-08-13T07:14:00.659Z</time>
      </trkpt>
      <trkpt lat="45.832128608599305" lon="4.650993347167969">
        <ele>345.27</ele>
        <time>2024-08-13T07:14:02.277Z</time>
      </trkpt>
      <trkpt lat="45.83201050758362" lon="4.650832414627075">
        <ele>344.89</ele>
        <time>2024-08-13T07:14:03.898Z</time>
      </trkpt>
      <trkpt lat="45.83129167556763" lon="4.650156497955322">
        <ele>344.24</ele>
        <time>2024-08-13T07:14:05.532Z</time>
      </trkpt>
      <trkpt lat="45.83026170730591" lon="4.648793935775757">
        <ele>343.95</ele>
        <time>2024-08-13T07:14:07.189Z</time>
      </trkpt>
      <trkpt lat="45.830122232437134" lon="4.648547172546387">
        <ele>343.01</ele>
        <time>2024-08-13T07:14:08.849Z</time>
      </trkpt>
      <trkpt lat="45.82990765571594" lon="4.648075103759766">
        <ele>341.75</ele>
        <time>2024-08-13T07:14:10.516Z</time>
      </trkpt>
      <trkpt lat="45.82974672317505" lon="4.647635221481323">
        <ele>340.42</ele>
        <time>2024-08-13T07:14:12.188Z</time>
      </trkpt>
      <trkpt lat="45.82944639958441" lon="4.646658897399902">
        <ele>339.15</ele>
        <time>2024-08-13T07:14:13.872Z</time>
      </trkpt>
      <trkpt lat="45.82939728163183" lon="4.646785128861666">
        <ele>338.29</ele>
        <time>2024-08-13T07:14:15.558Z</time>
      </trkpt>
      <trkpt lat="45.82939736545086" lon="4.646785128861666">
        <ele>338.29</ele>
        <time>2024-08-13T07:14:17.244Z</time>
      </trkpt>
      <trkpt lat="45.82939744926989" lon="4.646785045042634">
        <ele>338.29</ele>
        <time>2024-08-13T07:14:18.930Z</time>
      </trkpt>
      <trkpt lat="45.82939744926989" lon="4.646785128861666">
        <ele>338.29</ele>
        <time>2024-08-13T07:14:20.616Z</time>
      </trkpt>
      <trkpt lat="45.82939753308892" lon="4.646785128861666">
        <ele>338.29</ele>
        <time>2024-08-13T07:14:22.302Z</time>
      </trkpt>
      <trkpt lat="45.82939753308892" lon="4.646785212680697">
        <ele>332.54</ele>
        <time>2024-08-13T07:14:23.988Z</time>
      </trkpt>
      <trkpt lat="45.82944631576538" lon="4.646658897399902">
        <ele>332.55</ele>
        <time>2024-08-13T07:14:25.675Z</time>
      </trkpt>
      <trkpt lat="45.82928538322449" lon="4.646433591842651">
        <ele>332.02</ele>
        <time>2024-08-13T07:14:27.366Z</time>
      </trkpt>
      <trkpt lat="45.828856229782104" lon="4.645950794219971">
        <ele>331.57</ele>
        <time>2024-08-13T07:14:29.066Z</time>
      </trkpt>
      <trkpt lat="45.82874894142151" lon="4.645779132843018">
        <ele>331.42</ele>
        <time>2024-08-13T07:14:30.768Z</time>
      </trkpt>
      <trkpt lat="45.82867383956909" lon="4.645575284957886">
        <ele>331.52</ele>
        <time>2024-08-13T07:14:32.473Z</time>
      </trkpt>
      <trkpt lat="45.82824468612671" lon="4.644255638122559">
        <ele>332.31</ele>
        <time>2024-08-13T07:14:34.194Z</time>
      </trkpt>
      <trkpt lat="45.82815885543823" lon="4.643826484680176">
        <ele>333.24</ele>
        <time>2024-08-13T07:14:35.920Z</time>
      </trkpt>
      <trkpt lat="45.828126752749085" lon="4.643354415893555">
        <ele>334.26</ele>
        <time>2024-08-13T07:14:37.652Z</time>
      </trkpt>
      <trkpt lat="45.828105295076966" lon="4.643182754516602">
        <ele>335.54</ele>
        <time>2024-08-13T07:14:39.386Z</time>
      </trkpt>
      <trkpt lat="45.82804083824158" lon="4.643021821975708">
        <ele>337.01</ele>
        <time>2024-08-13T07:14:41.122Z</time>
      </trkpt>
      <trkpt lat="45.82774043083191" lon="4.642614126205444">
        <ele>338.82</ele>
        <time>2024-08-13T07:14:42.864Z</time>
      </trkpt>
      <trkpt lat="45.827622413635254" lon="4.642378091812134">
        <ele>340.79</ele>
        <time>2024-08-13T07:14:44.609Z</time>
      </trkpt>
      <trkpt lat="45.827568769454956" lon="4.6421849727630615">
        <ele>342.88</ele>
        <time>2024-08-13T07:14:46.357Z</time>
      </trkpt>
      <trkpt lat="45.827332735061646" lon="4.6411120891571045">
        <ele>345.67</ele>
        <time>2024-08-13T07:14:48.117Z</time>
      </trkpt>
      <trkpt lat="45.82723617553711" lon="4.640790224075317">
        <ele>348.24</ele>
        <time>2024-08-13T07:14:49.881Z</time>
      </trkpt>
      <trkpt lat="45.827085971832275" lon="4.64046835899353">
        <ele>350.79</ele>
        <time>2024-08-13T07:14:51.650Z</time>
      </trkpt>
      <trkpt lat="45.82654961384833" lon="4.639545679092407">
        <ele>354.24</ele>
        <time>2024-08-13T07:14:53.432Z</time>
      </trkpt>
      <trkpt lat="45.82648515701294" lon="4.639266729354858">
        <ele>356.71</ele>
        <time>2024-08-13T07:14:55.217Z</time>
      </trkpt>
      <trkpt lat="45.82650661468506" lon="4.638869762420654">
        <ele>358.92</ele>
        <time>2024-08-13T07:14:57.007Z</time>
      </trkpt>
      <trkpt lat="45.826367223635316" lon="4.638451337814331">
        <ele>360.76</ele>
        <time>2024-08-13T07:14:58.802Z</time>
      </trkpt>
      <trkpt lat="45.826377952471375" lon="4.6382153034210205">
        <ele>362.45</ele>
        <time>2024-08-13T07:15:00.600Z</time>
      </trkpt>
      <trkpt lat="45.82625985145569" lon="4.63797926902771">
        <ele>363.9</ele>
        <time>2024-08-13T07:15:02.401Z</time>
      </trkpt>
      <trkpt lat="45.82598090171814" lon="4.6378397941589355">
        <ele>364.99</ele>
        <time>2024-08-13T07:15:04.207Z</time>
      </trkpt>
      <trkpt lat="45.825380086898804" lon="4.637410640716553">
        <ele>365.34</ele>
        <time>2024-08-13T07:15:06.023Z</time>
      </trkpt>
      <trkpt lat="45.82497239112854" lon="4.636809825897217">
        <ele>366.85</ele>
        <time>2024-08-13T07:15:07.849Z</time>
      </trkpt>
      <trkpt lat="45.82480072975159" lon="4.6364665031433105">
        <ele>367.92</ele>
        <time>2024-08-13T07:15:09.679Z</time>
      </trkpt>
      <trkpt lat="45.8245325088501" lon="4.635715484619141">
        <ele>368.95</ele>
        <time>2024-08-13T07:15:11.519Z</time>
      </trkpt>
      <trkpt lat="45.82452178001404" lon="4.635511636734009">
        <ele>369.72</ele>
        <time>2024-08-13T07:15:13.361Z</time>
      </trkpt>
      <trkpt lat="45.8245325088501" lon="4.635415077209473">
        <ele>370.33</ele>
        <time>2024-08-13T07:15:15.204Z</time>
      </trkpt>
      <trkpt lat="45.82481145858765" lon="4.6345460414886475">
        <ele>371.06</ele>
        <time>2024-08-13T07:15:17.058Z</time>
      </trkpt>
      <trkpt lat="45.82479008473456" lon="4.634342193603516">
        <ele>371.37</ele>
        <time>2024-08-13T07:15:18.914Z</time>
      </trkpt>
      <trkpt lat="45.82473635673523" lon="4.6342456340789795">
        <ele>371.77</ele>
        <time>2024-08-13T07:15:20.772Z</time>
      </trkpt>
      <trkpt lat="45.82452178001404" lon="4.6340954303741455">
        <ele>372.33</ele>
        <time>2024-08-13T07:15:22.633Z</time>
      </trkpt>
      <trkpt lat="45.82452186383307" lon="4.6340954303741455">
        <ele>373.01</ele>
        <time>2024-08-13T07:15:24.494Z</time>
      </trkpt>
      <trkpt lat="45.824328660964966" lon="4.633966684341431">
        <ele>373.89</ele>
        <time>2024-08-13T07:15:26.359Z</time>
      </trkpt>
      <trkpt lat="45.823320150375366" lon="4.633558988571167">
        <ele>375.36</ele>
        <time>2024-08-13T07:15:28.241Z</time>
      </trkpt>
      <trkpt lat="45.8229660987854" lon="4.633333683013916">
        <ele>376.08</ele>
        <time>2024-08-13T07:15:30.129Z</time>
      </trkpt>
      <trkpt lat="45.8217538241297" lon="4.632292985916138">
        <ele>377.44</ele>
        <time>2024-08-13T07:15:32.040Z</time>
      </trkpt>
      <trkpt lat="45.82171132788062" lon="4.63223984465003">
        <ele>378.03</ele>
        <time>2024-08-13T07:15:33.951Z</time>
      </trkpt>
      <trkpt lat="45.82171116024256" lon="4.632239677011967">
        <ele>378.04</ele>
        <time>2024-08-13T07:15:35.862Z</time>
      </trkpt>
      <trkpt lat="45.821711076423526" lon="4.632239593192935">
        <ele>378.05</ele>
        <time>2024-08-13T07:15:37.773Z</time>
      </trkpt>
      <trkpt lat="45.82171082496643" lon="4.63223934173584">
        <ele>377.58</ele>
        <time>2024-08-13T07:15:39.684Z</time>
      </trkpt>
      <trkpt lat="45.82152843475342" lon="4.632453918457031">
        <ele>377.11</ele>
        <time>2024-08-13T07:15:41.599Z</time>
      </trkpt>
      <trkpt lat="45.82142114639282" lon="4.632561206817627">
        <ele>376.97</ele>
        <time>2024-08-13T07:15:43.516Z</time>
      </trkpt>
      <trkpt lat="45.821077823638916" lon="4.632818698883057">
        <ele>377.15</ele>
        <time>2024-08-13T07:15:45.440Z</time>
      </trkpt>
      <trkpt lat="45.820605754852295" lon="4.63299036026001">
        <ele>377.76</ele>
        <time>2024-08-13T07:15:47.371Z</time>
      </trkpt>
      <trkpt lat="45.8204984664917" lon="4.633065462112427">
        <ele>378.11</ele>
        <time>2024-08-13T07:15:49.304Z</time>
      </trkpt>
      <trkpt lat="45.82040190696716" lon="4.633162021636963">
        <ele>378.42</ele>
        <time>2024-08-13T07:15:51.239Z</time>
      </trkpt>
      <trkpt lat="45.82030534744263" lon="4.633290767669678">
        <ele>378.69</ele>
        <time>2024-08-13T07:15:53.176Z</time>
      </trkpt>
      <trkpt lat="45.82024097442627" lon="4.633430242538452">
        <ele>379.21</ele>
        <time>2024-08-13T07:15:55.115Z</time>
      </trkpt>
      <trkpt lat="45.82017660140991" lon="4.633655548095703">
        <ele>380.02</ele>
        <time>2024-08-13T07:15:57.057Z</time>
      </trkpt>
      <trkpt lat="45.820080041885376" lon="4.634288549423218">
        <ele>381.29</ele>
        <time>2024-08-13T07:15:59.006Z</time>
      </trkpt>
      <trkpt lat="45.820069313049316" lon="4.63472843170166">
        <ele>383.2</ele>
        <time>2024-08-13T07:16:00.960Z</time>
      </trkpt>
      <trkpt lat="45.82031607627869" lon="4.6359193325042725">
        <ele>386.53</ele>
        <time>2024-08-13T07:16:02.928Z</time>
      </trkpt>
      <trkpt lat="45.8204448223114" lon="4.637346267700195">
        <ele>389.8</ele>
        <time>2024-08-13T07:16:04.912Z</time>
      </trkpt>
      <trkpt lat="45.82068085670471" lon="4.638301134109497">
        <ele>392.64</ele>
        <time>2024-08-13T07:16:06.907Z</time>
      </trkpt>
      <trkpt lat="45.82069158554077" lon="4.6387410163879395">
        <ele>394.96</ele>
        <time>2024-08-13T07:16:08.907Z</time>
      </trkpt>
      <trkpt lat="45.82053065299988" lon="4.63971734046936">
        <ele>397.66</ele>
        <time>2024-08-13T07:16:10.918Z</time>
      </trkpt>
      <trkpt lat="45.82019805908203" lon="4.640414714813232">
        <ele>399.64</ele>
        <time>2024-08-13T07:16:12.939Z</time>
      </trkpt>
      <trkpt lat="45.81997275352478" lon="4.640779495239258">
        <ele>401.0</ele>
        <time>2024-08-13T07:16:14.965Z</time>
      </trkpt>
      <trkpt lat="45.81942558288574" lon="4.641551971435547">
        <ele>402.38</ele>
        <time>2024-08-13T07:16:17.004Z</time>
      </trkpt>
      <trkpt lat="45.81940412521362" lon="4.641605615615845">
        <ele>403.01</ele>
        <time>2024-08-13T07:16:19.043Z</time>
      </trkpt>
      <trkpt lat="45.819382667541504" lon="4.641669988632202">
        <ele>403.21</ele>
        <time>2024-08-13T07:16:21.083Z</time>
      </trkpt>
      <trkpt lat="45.81923246383667" lon="4.642045497894287">
        <ele>402.92</ele>
        <time>2024-08-13T07:16:23.128Z</time>
      </trkpt>
      <trkpt lat="45.81906080245972" lon="4.642453193664551">
        <ele>402.32</ele>
        <time>2024-08-13T07:16:25.178Z</time>
      </trkpt>
      <trkpt lat="45.81880331039429" lon="4.64272141456604">
        <ele>401.35</ele>
        <time>2024-08-13T07:16:27.233Z</time>
      </trkpt>
      <trkpt lat="45.81851363182068" lon="4.642850160598755">
        <ele>400.57</ele>
        <time>2024-08-13T07:16:29.293Z</time>
      </trkpt>
      <trkpt lat="45.81833643838763" lon="4.642882347106934">
        <ele>400.0</ele>
        <time>2024-08-13T07:16:31.356Z</time>
      </trkpt>
      <trkpt lat="45.818336103111506" lon="4.642882430925965">
        <ele>400.0</ele>
        <time>2024-08-13T07:16:33.419Z</time>
      </trkpt>
      <trkpt lat="45.81833576783538" lon="4.642882514744997">
        <ele>400.0</ele>
        <time>2024-08-13T07:16:35.482Z</time>
      </trkpt>
      <trkpt lat="45.81815958023071" lon="4.642914533615112">
        <ele>393.3</ele>
        <time>2024-08-13T07:16:37.548Z</time>
      </trkpt>
      <trkpt lat="45.81699022091925" lon="4.643043279647827">
        <ele>392.04</ele>
        <time>2024-08-13T07:16:39.633Z</time>
      </trkpt>
      <trkpt lat="45.81675410270691" lon="4.643043279647827">
        <ele>391.12</ele>
        <time>2024-08-13T07:16:41.722Z</time>
      </trkpt>
      <trkpt lat="45.8165717124939" lon="4.642989635467529">
        <ele>390.34</ele>
        <time>2024-08-13T07:16:43.814Z</time>
      </trkpt>
      <trkpt lat="45.81616401672363" lon="4.642678499221802">
        <ele>389.75</ele>
        <time>2024-08-13T07:16:45.913Z</time>
      </trkpt>
      <trkpt lat="45.8160138130188" lon="4.6424853801727295">
        <ele>389.01</ele>
        <time>2024-08-13T07:16:48.015Z</time>
      </trkpt>
      <trkpt lat="45.8159065246582" lon="4.642292261123657">
        <ele>388.09</ele>
        <time>2024-08-13T07:16:50.120Z</time>
      </trkpt>
      <trkpt lat="45.8155632019043" lon="4.640607833862305">
        <ele>386.72</ele>
        <time>2024-08-13T07:16:52.245Z</time>
      </trkpt>
      <trkpt lat="45.815509557724" lon="4.640489816665649">
        <ele>385.9</ele>
        <time>2024-08-13T07:16:54.371Z</time>
      </trkpt>
      <trkpt lat="45.815434539690614" lon="4.640414714813232">
        <ele>385.19</ele>
        <time>2024-08-13T07:16:56.499Z</time>
      </trkpt>
      <trkpt lat="45.81530570983887" lon="4.640318155288696">
        <ele>384.63</ele>
        <time>2024-08-13T07:16:58.629Z</time>
      </trkpt>
      <trkpt lat="45.81517696380615" lon="4.640253782272339">
        <ele>384.28</ele>
        <time>2024-08-13T07:17:00.761Z</time>
      </trkpt>
      <trkpt lat="45.815080404281616" lon="4.640253782272339">
        <ele>384.06</ele>
        <time>2024-08-13T07:17:02.895Z</time>
      </trkpt>
      <trkpt lat="45.81469416618347" lon="4.640339612960815">
        <ele>384.0</ele>
        <time>2024-08-13T07:17:05.035Z</time>
      </trkpt>
      <trkpt lat="45.81443667411804" lon="4.640328884124756">
        <ele>384.39</ele>
        <time>2024-08-13T07:17:07.179Z</time>
      </trkpt>
      <trkpt lat="45.81425436772406" lon="4.640275239944458">
        <ele>384.92</ele>
        <time>2024-08-13T07:17:09.326Z</time>
      </trkpt>
      <trkpt lat="45.81400760449469" lon="4.640178680419922">
        <ele>385.67</ele>
        <time>2024-08-13T07:17:11.477Z</time>
      </trkpt>
      <trkpt lat="45.81373929977417" lon="4.640060663223267">
        <ele>386.47</ele>
        <time>2024-08-13T07:17:13.633Z</time>
      </trkpt>
      <trkpt lat="45.813428247347474" lon="4.639899730682373">
        <ele>387.01</ele>
        <time>2024-08-13T07:17:15.794Z</time>
      </trkpt>
      <trkpt lat="45.81305265426636" lon="4.639674425125122">
        <ele>387.22</ele>
        <time>2024-08-13T07:17:17.961Z</time>
      </trkpt>
      <trkpt lat="45.81276297569275" lon="4.639406204223633">
        <ele>387.34</ele>
        <time>2024-08-13T07:17:20.134Z</time>
      </trkpt>
      <trkpt lat="45.811829566955566" lon="4.6385908126831055">
        <ele>387.86</ele>
        <time>2024-08-13T07:17:22.324Z</time>
      </trkpt>
      <trkpt lat="45.81172227859497" lon="4.638537168502808">
        <ele>388.16</ele>
        <time>2024-08-13T07:17:24.516Z</time>
      </trkpt>
      <trkpt lat="45.811647176742554" lon="4.638526439666748">
        <ele>388.46</ele>
        <time>2024-08-13T07:17:26.709Z</time>
      </trkpt>
      <trkpt lat="45.81157207489014" lon="4.638537168502808">
        <ele>388.72</ele>
        <time>2024-08-13T07:17:28.904Z</time>
      </trkpt>
      <trkpt lat="45.81135758198798" lon="4.6386659145355225">
        <ele>388.97</ele>
        <time>2024-08-13T07:17:31.102Z</time>
      </trkpt>
      <trkpt lat="45.81101417541504" lon="4.638923406600952">
        <ele>389.52</ele>
        <time>2024-08-13T07:17:33.307Z</time>
      </trkpt>
      <trkpt lat="45.81093907356262" lon="4.639019966125488">
        <ele>389.93</ele>
        <time>2024-08-13T07:17:35.513Z</time>
      </trkpt>
      <trkpt lat="45.810853242874146" lon="4.639148712158203">
        <ele>390.31</ele>
        <time>2024-08-13T07:17:37.721Z</time>
      </trkpt>
      <trkpt lat="45.81059583462775" lon="4.639706611633301">
        <ele>390.85</ele>
        <time>2024-08-13T07:17:39.937Z</time>
      </trkpt>
      <trkpt lat="45.81025251187384" lon="4.64047908782959">
        <ele>391.51</ele>
        <time>2024-08-13T07:17:42.163Z</time>
      </trkpt>
      <trkpt lat="45.80994129180908" lon="4.641176462173462">
        <ele>391.74</ele>
        <time>2024-08-13T07:17:44.398Z</time>
      </trkpt>
      <trkpt lat="45.80972671508789" lon="4.64147686958313">
        <ele>391.93</ele>
        <time>2024-08-13T07:17:46.638Z</time>
      </trkpt>
      <trkpt lat="45.80942630767822" lon="4.641755819320679">
        <ele>391.91</ele>
        <time>2024-08-13T07:17:48.884Z</time>
      </trkpt>
      <trkpt lat="45.80921173095703" lon="4.641906023025513">
        <ele>392.04</ele>
        <time>2024-08-13T07:17:51.134Z</time>
      </trkpt>
      <trkpt lat="45.808846950531006" lon="4.6420347690582275">
        <ele>392.2</ele>
        <time>2024-08-13T07:17:53.390Z</time>
      </trkpt>
      <trkpt lat="45.80853581428528" lon="4.6421098709106445">
        <ele>392.4</ele>
        <time>2024-08-13T07:17:55.651Z</time>
      </trkpt>
      <trkpt lat="45.808106660842896" lon="4.6421098709106445">
        <ele>392.61</ele>
        <time>2024-08-13T07:17:57.918Z</time>
      </trkpt>
      <trkpt lat="45.8072377089411" lon="4.642045497894287">
        <ele>393.12</ele>
        <time>2024-08-13T07:18:00.199Z</time>
      </trkpt>
      <trkpt lat="45.80723762512207" lon="4.642045497894287">
        <ele>393.45</ele>
        <time>2024-08-13T07:18:02.480Z</time>
      </trkpt>
      <trkpt lat="45.80717325210571" lon="4.642024040222168">
        <ele>393.84</ele>
        <time>2024-08-13T07:18:04.762Z</time>
      </trkpt>
      <trkpt lat="45.80706596374512" lon="4.64198112487793">
        <ele>394.29</ele>
        <time>2024-08-13T07:18:07.046Z</time>
      </trkpt>
      <trkpt lat="45.8069908618927" lon="4.641895294189453">
        <ele>394.74</ele>
        <time>2024-08-13T07:18:09.332Z</time>
      </trkpt>
      <trkpt lat="45.80676555633545" lon="4.641498327255249">
        <ele>395.22</ele>
        <time>2024-08-13T07:18:11.624Z</time>
      </trkpt>
      <trkpt lat="45.80669045448303" lon="4.6413373947143555">
        <ele>395.74</ele>
        <time>2024-08-13T07:18:13.918Z</time>
      </trkpt>
      <trkpt lat="45.80651879310608" lon="4.641283750534058">
        <ele>396.26</ele>
        <time>2024-08-13T07:18:16.214Z</time>
      </trkpt>
      <trkpt lat="45.80630430020392" lon="4.641315937042236">
        <ele>396.84</ele>
        <time>2024-08-13T07:18:18.514Z</time>
      </trkpt>
      <trkpt lat="45.80623992718756" lon="4.641423225402832">
        <ele>397.48</ele>
        <time>2024-08-13T07:18:20.816Z</time>
      </trkpt>
      <trkpt lat="45.80623984336853" lon="4.641423225402832">
        <ele>398.13</ele>
        <time>2024-08-13T07:18:23.118Z</time>
      </trkpt>
      <trkpt lat="45.80626138485968" lon="4.641530513763428">
        <ele>398.83</ele>
        <time>2024-08-13T07:18:25.421Z</time>
      </trkpt>
      <trkpt lat="45.80628275871277" lon="4.641873836517334">
        <ele>399.63</ele>
        <time>2024-08-13T07:18:27.728Z</time>
      </trkpt>
      <trkpt lat="45.80626130104065" lon="4.642249345779419">
        <ele>400.5</ele>
        <time>2024-08-13T07:18:30.039Z</time>
      </trkpt>
      <trkpt lat="45.80620765686035" lon="4.642539024353027">
        <ele>401.3</ele>
        <time>2024-08-13T07:18:32.353Z</time>
      </trkpt>
      <trkpt lat="45.80605745315552" lon="4.643011093139648">
        <ele>401.91</ele>
        <time>2024-08-13T07:18:34.673Z</time>
      </trkpt>
      <trkpt lat="45.805842876434326" lon="4.6436333656311035">
        <ele>402.58</ele>
        <time>2024-08-13T07:18:37.001Z</time>
      </trkpt>
      <trkpt lat="45.80572485923767" lon="4.643912315368652">
        <ele>403.28</ele>
        <time>2024-08-13T07:18:39.332Z</time>
      </trkpt>
      <trkpt lat="45.8057249430567" lon="4.643912315368652">
        <ele>403.81</ele>
        <time>2024-08-13T07:18:41.663Z</time>
      </trkpt>
      <trkpt lat="45.80545663833618" lon="4.644556045532227">
        <ele>404.42</ele>
        <time>2024-08-13T07:18:44.003Z</time>
      </trkpt>
      <trkpt lat="45.805156230926514" lon="4.645586013793945">
        <ele>404.92</ele>
        <time>2024-08-13T07:18:46.355Z</time>
      </trkpt>
      <trkpt lat="45.805124044418335" lon="4.645746946334839">
        <ele>405.2</ele>
        <time>2024-08-13T07:18:48.709Z</time>
      </trkpt>
      <trkpt lat="45.80500602722168" lon="4.6462297439575195">
        <ele>405.51</ele>
        <time>2024-08-13T07:18:51.069Z</time>
      </trkpt>
      <trkpt lat="45.80498456954956" lon="4.646422863006592">
        <ele>405.59</ele>
        <time>2024-08-13T07:18:53.431Z</time>
      </trkpt>
      <trkpt lat="45.8049738407135" lon="4.646637439727783">
        <ele>405.47</ele>
        <time>2024-08-13T07:18:55.796Z</time>
      </trkpt>
      <trkpt lat="45.80498456954956" lon="4.647098779678345">
        <ele>405.11</ele>
        <time>2024-08-13T07:18:58.166Z</time>
      </trkpt>
      <trkpt lat="45.80509194172919" lon="4.648579359054565">
        <ele>404.15</ele>
        <time>2024-08-13T07:19:00.552Z</time>
      </trkpt>
      <trkpt lat="45.80520987510681" lon="4.650413990020752">
        <ele>403.71</ele>
        <time>2024-08-13T07:19:02.959Z</time>
      </trkpt>
      <trkpt lat="45.80531716346741" lon="4.652420282363892">
        <ele>402.14</ele>
        <time>2024-08-13T07:19:05.388Z</time>
      </trkpt>
      <trkpt lat="45.805338621139526" lon="4.652892351150513">
        <ele>401.37</ele>
        <time>2024-08-13T07:19:07.823Z</time>
      </trkpt>
      <trkpt lat="45.80530651845038" lon="4.653578996658325">
        <ele>400.48</ele>
        <time>2024-08-13T07:19:10.265Z</time>
      </trkpt>
      <trkpt lat="45.80528506077826" lon="4.653825759887695">
        <ele>399.34</ele>
        <time>2024-08-13T07:19:12.710Z</time>
      </trkpt>
      <trkpt lat="45.80526360310614" lon="4.654018878936768">
        <ele>398.12</ele>
        <time>2024-08-13T07:19:15.157Z</time>
      </trkpt>
      <trkpt lat="45.80503821372986" lon="4.655359983444214">
        <ele>396.54</ele>
        <time>2024-08-13T07:19:17.620Z</time>
      </trkpt>
      <trkpt lat="45.80503829754889" lon="4.655359983444214">
        <ele>395.38</ele>
        <time>2024-08-13T07:19:20.083Z</time>
      </trkpt>
      <trkpt lat="45.80499529838562" lon="4.656046628952026">
        <ele>394.17</ele>
        <time>2024-08-13T07:19:22.554Z</time>
      </trkpt>
      <trkpt lat="45.80501683987677" lon="4.656615257263184">
        <ele>393.02</ele>
        <time>2024-08-13T07:19:25.031Z</time>
      </trkpt>
      <trkpt lat="45.80511339940131" lon="4.65720534324646">
        <ele>391.92</ele>
        <time>2024-08-13T07:19:27.515Z</time>
      </trkpt>
      <trkpt lat="45.805167043581605" lon="4.657430648803711">
        <ele>390.76</ele>
        <time>2024-08-13T07:19:30.001Z</time>
      </trkpt>
      <trkpt lat="45.80522060394287" lon="4.657731056213379">
        <ele>389.66</ele>
        <time>2024-08-13T07:19:32.491Z</time>
      </trkpt>
      <trkpt lat="45.80531716346741" lon="4.658310413360596">
        <ele>388.6</ele>
        <time>2024-08-13T07:19:34.988Z</time>
      </trkpt>
      <trkpt lat="45.805349349975586" lon="4.658675193786621">
        <ele>387.35</ele>
        <time>2024-08-13T07:19:37.489Z</time>
      </trkpt>
      <trkpt lat="45.805381536483765" lon="4.659426212310791">
        <ele>385.84</ele>
        <time>2024-08-13T07:19:39.998Z</time>
      </trkpt>
      <trkpt lat="45.80544590950012" lon="4.660005569458008">
        <ele>384.45</ele>
        <time>2024-08-13T07:19:42.514Z</time>
      </trkpt>
      <trkpt lat="45.80555319786072" lon="4.6604883670806885">
        <ele>383.26</ele>
        <time>2024-08-13T07:19:45.035Z</time>
      </trkpt>
      <trkpt lat="45.80581077374518" lon="4.661400318145752">
        <ele>381.99</ele>
        <time>2024-08-13T07:19:47.567Z</time>
      </trkpt>
      <trkpt lat="45.80584296025336" lon="4.661507606506348">
        <ele>380.7</ele>
        <time>2024-08-13T07:19:50.101Z</time>
      </trkpt>
      <trkpt lat="45.806089639663696" lon="4.66244101524353">
        <ele>379.41</ele>
        <time>2024-08-13T07:19:52.646Z</time>
      </trkpt>
      <trkpt lat="45.80612190999091" lon="4.662580490112305">
        <ele>378.31</ele>
        <time>2024-08-13T07:19:55.192Z</time>
      </trkpt>
      <trkpt lat="45.806121826171875" lon="4.662580490112305">
        <ele>377.26</ele>
        <time>2024-08-13T07:19:57.738Z</time>
      </trkpt>
      <trkpt lat="45.80646514892578" lon="4.66394305229187">
        <ele>375.59</ele>
        <time>2024-08-13T07:20:00.301Z</time>
      </trkpt>
      <trkpt lat="45.80657252110541" lon="4.6643078327178955">
        <ele>374.74</ele>
        <time>2024-08-13T07:20:02.868Z</time>
      </trkpt>
      <trkpt lat="45.80657243728638" lon="4.6643078327178955">
        <ele>374.08</ele>
        <time>2024-08-13T07:20:05.435Z</time>
      </trkpt>
      <trkpt lat="45.80656170845032" lon="4.664479494094849">
        <ele>373.55</ele>
        <time>2024-08-13T07:20:08.004Z</time>
      </trkpt>
      <trkpt lat="45.80650806427002" lon="4.664586782455444">
        <ele>373.21</ele>
        <time>2024-08-13T07:20:10.575Z</time>
      </trkpt>
      <trkpt lat="45.806433046236634" lon="4.664597511291504">
        <ele>373.08</ele>
        <time>2024-08-13T07:20:13.147Z</time>
      </trkpt>
      <trkpt lat="45.80629348754883" lon="4.664618968963623">
        <ele>373.18</ele>
        <time>2024-08-13T07:20:15.721Z</time>
      </trkpt>
      <trkpt lat="45.80523133277893" lon="4.664618968963623">
        <ele>373.89</ele>
        <time>2024-08-13T07:20:18.312Z</time>
      </trkpt>
      <trkpt lat="45.80468416213989" lon="4.664361476898193">
        <ele>374.47</ele>
        <time>2024-08-13T07:20:20.912Z</time>
      </trkpt>
      <trkpt lat="45.804126262664795" lon="4.664061069488525">
        <ele>375.01</ele>
        <time>2024-08-13T07:20:23.522Z</time>
      </trkpt>
      <trkpt lat="45.80405124463141" lon="4.663975238800049">
        <ele>375.75</ele>
        <time>2024-08-13T07:20:26.133Z</time>
      </trkpt>
      <trkpt lat="45.80398678779602" lon="4.663900136947632">
        <ele>376.66</ele>
        <time>2024-08-13T07:20:28.746Z</time>
      </trkpt>
      <trkpt lat="45.803868770599365" lon="4.66370701789856">
        <ele>377.75</ele>
        <time>2024-08-13T07:20:31.361Z</time>
      </trkpt>
      <trkpt lat="45.80380439758301" lon="4.663481712341309">
        <ele>379.05</ele>
        <time>2024-08-13T07:20:33.979Z</time>
      </trkpt>
      <trkpt lat="45.80375075340271" lon="4.663256406784058">
        <ele>380.54</ele>
        <time>2024-08-13T07:20:36.600Z</time>
      </trkpt>
      <trkpt lat="45.80372929573059" lon="4.663041830062866">
        <ele>382.21</ele>
        <time>2024-08-13T07:20:39.223Z</time>
      </trkpt>
      <trkpt lat="45.80369710922241" lon="4.662548303604126">
        <ele>384.05</ele>
        <time>2024-08-13T07:20:41.852Z</time>
      </trkpt>
      <trkpt lat="45.803589820861816" lon="4.662215709686279">
        <ele>386.04</ele>
        <time>2024-08-13T07:20:44.485Z</time>
      </trkpt>
      <trkpt lat="45.80343961715698" lon="4.661904573440552">
        <ele>388.24</ele>
        <time>2024-08-13T07:20:47.122Z</time>
      </trkpt>
      <trkpt lat="45.80326795578003" lon="4.661614894866943">
        <ele>390.5</ele>
        <time>2024-08-13T07:20:49.763Z</time>
      </trkpt>
      <trkpt lat="45.80304265022278" lon="4.6613359451293945">
        <ele>392.74</ele>
        <time>2024-08-13T07:20:52.409Z</time>
      </trkpt>
      <trkpt lat="45.80282807350159" lon="4.661099910736084">
        <ele>394.99</ele>
        <time>2024-08-13T07:20:55.060Z</time>
      </trkpt>
      <trkpt lat="45.80246329307556" lon="4.660767316818237">
        <ele>397.1</ele>
        <time>2024-08-13T07:20:57.717Z</time>
      </trkpt>
      <trkpt lat="45.802366733551025" lon="4.660627841949463">
        <ele>399.22</ele>
        <time>2024-08-13T07:21:00.377Z</time>
      </trkpt>
      <trkpt lat="45.8020555973053" lon="4.659919738769531">
        <ele>401.87</ele>
        <time>2024-08-13T07:21:03.046Z</time>
      </trkpt>
      <trkpt lat="45.8019483089447" lon="4.6597373485565186">
        <ele>404.04</ele>
        <time>2024-08-13T07:21:05.718Z</time>
      </trkpt>
      <trkpt lat="45.80180883407593" lon="4.659640789031982">
        <ele>405.99</ele>
        <time>2024-08-13T07:21:08.392Z</time>
      </trkpt>
      <trkpt lat="45.80169081687927" lon="4.659608602523804">
        <ele>407.78</ele>
        <time>2024-08-13T07:21:11.068Z</time>
      </trkpt>
      <trkpt lat="45.8015513420105" lon="4.659640789031982">
        <ele>409.45</ele>
        <time>2024-08-13T07:21:13.746Z</time>
      </trkpt>
      <trkpt lat="45.80147624015808" lon="4.659715890884399">
        <ele>411.13</ele>
        <time>2024-08-13T07:21:16.426Z</time>
      </trkpt>
      <trkpt lat="45.801401138305664" lon="4.659823179244995">
        <ele>412.82</ele>
        <time>2024-08-13T07:21:19.108Z</time>
      </trkpt>
      <trkpt lat="45.80121874809265" lon="4.660241603851318">
        <ele>414.5</ele>
        <time>2024-08-13T07:21:21.795Z</time>
      </trkpt>
      <trkpt lat="45.80102562904358" lon="4.6605634689331055">
        <ele>416.22</ele>
        <time>2024-08-13T07:21:24.487Z</time>
      </trkpt>
      <trkpt lat="45.80058574676514" lon="4.660842418670654">
        <ele>418.24</ele>
        <time>2024-08-13T07:21:27.186Z</time>
      </trkpt>
      <trkpt lat="45.80029606819153" lon="4.660906791687012">
        <ele>419.92</ele>
        <time>2024-08-13T07:21:29.890Z</time>
      </trkpt>
      <trkpt lat="45.80004930496216" lon="4.660756587982178">
        <ele>421.5</ele>
        <time>2024-08-13T07:21:32.598Z</time>
      </trkpt>
      <trkpt lat="45.799641609191895" lon="4.660423994064331">
        <ele>422.92</ele>
        <time>2024-08-13T07:21:35.314Z</time>
      </trkpt>
      <trkpt lat="45.79950213432312" lon="4.6604132652282715">
        <ele>424.13</ele>
        <time>2024-08-13T07:21:38.032Z</time>
      </trkpt>
      <trkpt lat="45.79950221814215" lon="4.6604132652282715">
        <ele>425.21</ele>
        <time>2024-08-13T07:21:40.750Z</time>
      </trkpt>
      <trkpt lat="45.799405574798584" lon="4.660509824752808">
        <ele>426.26</ele>
        <time>2024-08-13T07:21:43.470Z</time>
      </trkpt>
      <trkpt lat="45.79925537109375" lon="4.6611106395721436">
        <ele>427.11</ele>
        <time>2024-08-13T07:21:46.197Z</time>
      </trkpt>
      <trkpt lat="45.7992232684046" lon="4.661142826080322">
        <ele>428.03</ele>
        <time>2024-08-13T07:21:48.925Z</time>
      </trkpt>
      <trkpt lat="45.79904079437256" lon="4.661378860473633">
        <ele>428.96</ele>
        <time>2024-08-13T07:21:51.657Z</time>
      </trkpt>
      <trkpt lat="45.79856872558594" lon="4.661743640899658">
        <ele>430.12</ele>
        <time>2024-08-13T07:21:54.397Z</time>
      </trkpt>
      <trkpt lat="45.79832196235657" lon="4.661968946456909">
        <ele>430.87</ele>
        <time>2024-08-13T07:21:57.142Z</time>
      </trkpt>
      <trkpt lat="45.7979679107666" lon="4.662365913391113">
        <ele>431.53</ele>
        <time>2024-08-13T07:21:59.894Z</time>
      </trkpt>
      <trkpt lat="45.79784997738898" lon="4.6625590324401855">
        <ele>432.12</ele>
        <time>2024-08-13T07:22:02.649Z</time>
      </trkpt>
      <trkpt lat="45.797603130340576" lon="4.663074016571045">
        <ele>432.4</ele>
        <time>2024-08-13T07:22:05.411Z</time>
      </trkpt>
      <trkpt lat="45.79743146896362" lon="4.6633851528167725">
        <ele>432.61</ele>
        <time>2024-08-13T07:22:08.178Z</time>
      </trkpt>
      <trkpt lat="45.79728126525879" lon="4.663470983505249">
        <ele>433.22</ele>
        <time>2024-08-13T07:22:10.947Z</time>
      </trkpt>
      <trkpt lat="45.797141790390015" lon="4.6634602546691895">
        <ele>433.94</ele>
        <time>2024-08-13T07:22:13.718Z</time>
      </trkpt>
      <trkpt lat="45.79692721366882" lon="4.6633100509643555">
        <ele>434.88</ele>
        <time>2024-08-13T07:22:16.493Z</time>
      </trkpt>
      <trkpt lat="45.79669117927551" lon="4.663245677947998">
        <ele>435.82</ele>
        <time>2024-08-13T07:22:19.272Z</time>
      </trkpt>
      <trkpt lat="45.79653024673462" lon="4.663331508636475">
        <ele>436.6</ele>
        <time>2024-08-13T07:22:22.054Z</time>
      </trkpt>
      <trkpt lat="45.7964551448822" lon="4.663492441177368">
        <ele>437.32</ele>
        <time>2024-08-13T07:22:24.838Z</time>
      </trkpt>
      <trkpt lat="45.796412229537964" lon="4.664114713668823">
        <ele>438.12</ele>
        <time>2024-08-13T07:22:27.629Z</time>
      </trkpt>
      <trkpt lat="45.79630494117737" lon="4.664543867111206">
        <ele>439.02</ele>
        <time>2024-08-13T07:22:30.425Z</time>
      </trkpt>
      <trkpt lat="45.796122550964355" lon="4.664865732192993">
        <ele>440.28</ele>
        <time>2024-08-13T07:22:33.226Z</time>
      </trkpt>
      <trkpt lat="45.79578995704651" lon="4.665144681930542">
        <ele>441.92</ele>
        <time>2024-08-13T07:22:36.033Z</time>
      </trkpt>
      <trkpt lat="45.79579004086554" lon="4.665144681930542">
        <ele>443.22</ele>
        <time>2024-08-13T07:22:38.840Z</time>
      </trkpt>
      <trkpt lat="45.79559683799744" lon="4.665294885635376">
        <ele>444.74</ele>
        <time>2024-08-13T07:22:41.650Z</time>
      </trkpt>
      <trkpt lat="45.79518914222717" lon="4.665327072143555">
        <ele>446.54</ele>
        <time>2024-08-13T07:22:44.467Z</time>
      </trkpt>
      <trkpt lat="45.79495310783386" lon="4.665616750717163">
        <ele>447.56</ele>
        <time>2024-08-13T07:22:47.289Z</time>
      </trkpt>
      <trkpt lat="45.794953191652894" lon="4.665616750717163">
        <ele>447.99</ele>
        <time>2024-08-13T07:22:50.111Z</time>
      </trkpt>
      <trkpt lat="45.79471707344055" lon="4.6660566329956055">
        <ele>448.37</ele>
        <time>2024-08-13T07:22:52.939Z</time>
      </trkpt>
      <trkpt lat="45.79459914006293" lon="4.666550159454346">
        <ele>448.0</ele>
        <time>2024-08-13T07:22:55.773Z</time>
      </trkpt>
      <trkpt lat="45.79457759857178" lon="4.667172431945801">
        <ele>447.84</ele>
        <time>2024-08-13T07:22:58.614Z</time>
      </trkpt>
      <trkpt lat="45.7945454120636" lon="4.667365550994873">
        <ele>448.34</ele>
        <time>2024-08-13T07:23:01.457Z</time>
      </trkpt>
      <trkpt lat="45.79450249671936" lon="4.667526483535767">
        <ele>448.98</ele>
        <time>2024-08-13T07:23:04.302Z</time>
      </trkpt>
      <trkpt lat="45.79444885253906" lon="4.667633771896362">
        <ele>449.77</ele>
        <time>2024-08-13T07:23:07.149Z</time>
      </trkpt>
      <trkpt lat="45.79434156417847" lon="4.667537212371826">
        <ele>450.81</ele>
        <time>2024-08-13T07:23:09.998Z</time>
      </trkpt>
      <trkpt lat="45.79421709291637" lon="4.667494213208556">
        <ele>451.62</ele>
        <time>2024-08-13T07:23:12.849Z</time>
      </trkpt>
      <trkpt lat="45.79421675764024" lon="4.6674941293895245">
        <ele>451.63</ele>
        <time>2024-08-13T07:23:15.700Z</time>
      </trkpt>
      <trkpt lat="45.794216422364116" lon="4.667494045570493">
        <ele>451.64</ele>
        <time>2024-08-13T07:23:18.551Z</time>
      </trkpt>
      <trkpt lat="45.79434156417847" lon="4.667537212371826">
        <ele>451.3</ele>
        <time>2024-08-13T07:23:21.404Z</time>
      </trkpt>
      <trkpt lat="45.79444885253906" lon="4.667633771896362">
        <ele>450.45</ele>
        <time>2024-08-13T07:23:24.259Z</time>
      </trkpt>
      <trkpt lat="45.794384479522705" lon="4.66769814491272">
        <ele>450.11</ele>
        <time>2024-08-13T07:23:27.115Z</time>
      </trkpt>
      <trkpt lat="45.79428791999817" lon="4.667773246765137">
        <ele>449.86</ele>
        <time>2024-08-13T07:23:29.973Z</time>
      </trkpt>
      <trkpt lat="45.793912410736084" lon="4.667923450469971">
        <ele>449.73</ele>
        <time>2024-08-13T07:23:32.837Z</time>
      </trkpt>
      <trkpt lat="45.79371929168701" lon="4.667923450469971">
        <ele>449.58</ele>
        <time>2024-08-13T07:23:35.704Z</time>
      </trkpt>
      <trkpt lat="45.793536901474" lon="4.667891263961792">
        <ele>449.37</ele>
        <time>2024-08-13T07:23:38.574Z</time>
      </trkpt>
      <trkpt lat="45.793375968933105" lon="4.667816162109375">
        <ele>449.19</ele>
        <time>2024-08-13T07:23:41.447Z</time>
      </trkpt>
      <trkpt lat="45.793107748031616" lon="4.667633771896362">
        <ele>449.13</ele>
        <time>2024-08-13T07:23:44.325Z</time>
      </trkpt>
      <trkpt lat="45.79296827316284" lon="4.667590856552124">
        <ele>448.92</ele>
        <time>2024-08-13T07:23:47.205Z</time>
      </trkpt>
      <trkpt lat="45.792860984802246" lon="4.667612314224243">
        <ele>448.53</ele>
        <time>2024-08-13T07:23:50.087Z</time>
      </trkpt>
      <trkpt lat="45.79280734062195" lon="4.667676687240601">
        <ele>448.01</ele>
        <time>2024-08-13T07:23:52.970Z</time>
      </trkpt>
      <trkpt lat="45.79275369644165" lon="4.667773246765137">
        <ele>447.35</ele>
        <time>2024-08-13T07:23:55.854Z</time>
      </trkpt>
      <trkpt lat="45.79271078109741" lon="4.667901992797852">
        <ele>446.62</ele>
        <time>2024-08-13T07:23:58.740Z</time>
      </trkpt>
      <trkpt lat="45.792646491900086" lon="4.668320417404175">
        <ele>445.55</ele>
        <time>2024-08-13T07:24:01.630Z</time>
      </trkpt>
      <trkpt lat="45.79254984855652" lon="4.6689534187316895">
        <ele>443.51</ele>
        <time>2024-08-13T07:24:04.528Z</time>
      </trkpt>
      <trkpt lat="45.79248547554016" lon="4.669125080108643">
        <ele>442.03</ele>
        <time>2024-08-13T07:24:07.428Z</time>
      </trkpt>
      <trkpt lat="45.792410373687744" lon="4.669232368469238">
        <ele>440.53</ele>
        <time>2024-08-13T07:24:10.330Z</time>
      </trkpt>
      <trkpt lat="45.79227089881897" lon="4.6693503856658936">
        <ele>439.16</ele>
        <time>2024-08-13T07:24:13.234Z</time>
      </trkpt>
      <trkpt lat="45.792120695114136" lon="4.669479131698608">
        <ele>437.99</ele>
        <time>2024-08-13T07:24:16.141Z</time>
      </trkpt>
      <trkpt lat="45.791916931048036" lon="4.669586420059204">
        <ele>437.01</ele>
        <time>2024-08-13T07:24:19.051Z</time>
      </trkpt>
      <trkpt lat="45.79172372817993" lon="4.669661521911621">
        <ele>436.14</ele>
        <time>2024-08-13T07:24:21.965Z</time>
      </trkpt>
      <trkpt lat="45.79149842262268" lon="4.669704437255859">
        <ele>435.35</ele>
        <time>2024-08-13T07:24:24.882Z</time>
      </trkpt>
      <trkpt lat="45.79126238822937" lon="4.669704437255859">
        <ele>434.57</ele>
        <time>2024-08-13T07:24:27.803Z</time>
      </trkpt>
      <trkpt lat="45.791144371032715" lon="4.669672250747681">
        <ele>433.98</ele>
        <time>2024-08-13T07:24:30.726Z</time>
      </trkpt>
      <trkpt lat="45.79099416732788" lon="4.669554233551025">
        <ele>433.57</ele>
        <time>2024-08-13T07:24:33.652Z</time>
      </trkpt>
      <trkpt lat="45.79058647155762" lon="4.669092893600464">
        <ele>433.31</ele>
        <time>2024-08-13T07:24:36.586Z</time>
      </trkpt>
      <trkpt lat="45.79010367393494" lon="4.668459892272949">
        <ele>433.37</ele>
        <time>2024-08-13T07:24:39.531Z</time>
      </trkpt>
      <trkpt lat="45.78997492790222" lon="4.668395519256592">
        <ele>433.17</ele>
        <time>2024-08-13T07:24:42.478Z</time>
      </trkpt>
      <trkpt lat="45.78982472419739" lon="4.668395519256592">
        <ele>432.8</ele>
        <time>2024-08-13T07:24:45.427Z</time>
      </trkpt>
      <trkpt lat="45.78972816467285" lon="4.668459892272949">
        <ele>432.34</ele>
        <time>2024-08-13T07:24:48.378Z</time>
      </trkpt>
      <trkpt lat="45.789653062820435" lon="4.668556451797485">
        <ele>431.74</ele>
        <time>2024-08-13T07:24:51.330Z</time>
      </trkpt>
      <trkpt lat="45.78948140144348" lon="4.6689534187316895">
        <ele>430.7</ele>
        <time>2024-08-13T07:24:54.288Z</time>
      </trkpt>
      <trkpt lat="45.789395570755005" lon="4.669071435928345">
        <ele>429.94</ele>
        <time>2024-08-13T07:24:57.248Z</time>
      </trkpt>
      <trkpt lat="45.78928828239441" lon="4.669167995452881">
        <ele>429.17</ele>
        <time>2024-08-13T07:25:00.210Z</time>
      </trkpt>
      <trkpt lat="45.78906297683716" lon="4.669264554977417">
        <ele>428.45</ele>
        <time>2024-08-13T07:25:03.175Z</time>
      </trkpt>
      <trkpt lat="45.788912773132324" lon="4.669253826141357">
        <ele>427.61</ele>
        <time>2024-08-13T07:25:06.143Z</time>
      </trkpt>
      <trkpt lat="45.788912856951356" lon="4.669253826141357">
        <ele>426.74</ele>
        <time>2024-08-13T07:25:09.111Z</time>
      </trkpt>
      <trkpt lat="45.78877329826355" lon="4.669157266616821">
        <ele>425.69</ele>
        <time>2024-08-13T07:25:12.081Z</time>
      </trkpt>
      <trkpt lat="45.7885479927063" lon="4.668921232223511">
        <ele>424.47</ele>
        <time>2024-08-13T07:25:15.056Z</time>
      </trkpt>
      <trkpt lat="45.78832268714905" lon="4.668620824813843">
        <ele>423.14</ele>
        <time>2024-08-13T07:25:18.036Z</time>
      </trkpt>
      <trkpt lat="45.7880437374115" lon="4.6681809425354">
        <ele>422.04</ele>
        <time>2024-08-13T07:25:21.022Z</time>
      </trkpt>
      <trkpt lat="45.78775405883789" lon="4.667665958404541">
        <ele>420.98</ele>
        <time>2024-08-13T07:25:24.016Z</time>
      </trkpt>
      <trkpt lat="45.78760385513306" lon="4.667547941207886">
        <ele>419.84</ele>
        <time>2024-08-13T07:25:27.012Z</time>
      </trkpt>
      <trkpt lat="45.787400007247925" lon="4.6675050258636475">
        <ele>418.73</ele>
        <time>2024-08-13T07:25:30.012Z</time>
      </trkpt>
      <trkpt lat="45.78727126121521" lon="4.667537212371826">
        <ele>417.57</ele>
        <time>2024-08-13T07:25:33.014Z</time>
      </trkpt>
      <trkpt lat="45.787142515182495" lon="4.667601585388184">
        <ele>416.36</ele>
        <time>2024-08-13T07:25:36.018Z</time>
      </trkpt>
      <trkpt lat="45.78708895482123" lon="4.6676552295684814">
        <ele>415.16</ele>
        <time>2024-08-13T07:25:39.023Z</time>
      </trkpt>
      <trkpt lat="45.78684210777283" lon="4.667891263961792">
        <ele>413.75</ele>
        <time>2024-08-13T07:25:42.033Z</time>
      </trkpt>
      <trkpt lat="45.78654170036316" lon="4.668148756027222">
        <ele>412.35</ele>
        <time>2024-08-13T07:25:45.048Z</time>
      </trkpt>
      <trkpt lat="45.786402225494385" lon="4.66819167137146">
        <ele>411.15</ele>
        <time>2024-08-13T07:25:48.066Z</time>
      </trkpt>
      <trkpt lat="45.78626275062561" lon="4.6682024002075195">
        <ele>410.01</ele>
        <time>2024-08-13T07:25:51.086Z</time>
      </trkpt>
      <trkpt lat="45.786134004592896" lon="4.668159484863281">
        <ele>408.89</ele>
        <time>2024-08-13T07:25:54.108Z</time>
      </trkpt>
      <trkpt lat="45.78600525856018" lon="4.668084383010864">
        <ele>407.78</ele>
        <time>2024-08-13T07:25:57.132Z</time>
      </trkpt>
      <trkpt lat="45.78600534237921" lon="4.668084383010864">
        <ele>406.8</ele>
        <time>2024-08-13T07:26:00.156Z</time>
      </trkpt>
      <trkpt lat="45.78581213951111" lon="4.667515754699707">
        <ele>405.78</ele>
        <time>2024-08-13T07:26:03.187Z</time>
      </trkpt>
      <trkpt lat="45.78555473126471" lon="4.66644287109375">
        <ele>404.74</ele>
        <time>2024-08-13T07:26:06.231Z</time>
      </trkpt>
      <trkpt lat="45.78530788421631" lon="4.665648937225342">
        <ele>403.51</ele>
        <time>2024-08-13T07:26:09.285Z</time>
      </trkpt>
      <trkpt lat="45.78523278236389" lon="4.665123224258423">
        <ele>402.83</ele>
        <time>2024-08-13T07:26:12.345Z</time>
      </trkpt>
      <trkpt lat="45.785168409347534" lon="4.6645331382751465">
        <ele>402.5</ele>
        <time>2024-08-13T07:26:15.411Z</time>
      </trkpt>
      <trkpt lat="45.785114765167236" lon="4.664361476898193">
        <ele>402.25</ele>
        <time>2024-08-13T07:26:18.480Z</time>
      </trkpt>
      <trkpt lat="45.78505039215088" lon="4.664329290390015">
        <ele>402.05</ele>
        <time>2024-08-13T07:26:21.550Z</time>
      </trkpt>
      <trkpt lat="45.78500747680664" lon="4.664329290390015">
        <ele>401.94</ele>
        <time>2024-08-13T07:26:24.620Z</time>
      </trkpt>
      <trkpt lat="45.784932374954224" lon="4.6643829345703125">
        <ele>401.94</ele>
        <time>2024-08-13T07:26:27.692Z</time>
      </trkpt>
      <trkpt lat="45.784159898757935" lon="4.665112495422363">
        <ele>402.06</ele>
        <time>2024-08-13T07:26:30.779Z</time>
      </trkpt>
      <trkpt lat="45.78380584716797" lon="4.665541648864746">
        <ele>402.66</ele>
        <time>2024-08-13T07:26:33.873Z</time>
      </trkpt>
      <trkpt lat="45.78326948918402" lon="4.666517972946167">
        <ele>402.85</ele>
        <time>2024-08-13T07:26:36.981Z</time>
      </trkpt>
      <trkpt lat="45.78315147198737" lon="4.666625261306763">
        <ele>403.35</ele>
        <time>2024-08-13T07:26:40.091Z</time>
      </trkpt>
      <trkpt lat="45.782947624102235" lon="4.6666789054870605">
        <ele>403.82</ele>
        <time>2024-08-13T07:26:43.204Z</time>
      </trkpt>
      <trkpt lat="45.78272223472595" lon="4.666721820831299">
        <ele>404.32</ele>
        <time>2024-08-13T07:26:46.321Z</time>
      </trkpt>
      <trkpt lat="45.782647132873535" lon="4.666668176651001">
        <ele>405.12</ele>
        <time>2024-08-13T07:26:49.439Z</time>
      </trkpt>
      <trkpt lat="45.78257203102112" lon="4.666560888290405">
        <ele>406.1</ele>
        <time>2024-08-13T07:26:52.559Z</time>
      </trkpt>
      <trkpt lat="45.782185792922974" lon="4.6658313274383545">
        <ele>407.44</ele>
        <time>2024-08-13T07:26:55.689Z</time>
      </trkpt>
      <trkpt lat="45.78206777572632" lon="4.66570258140564">
        <ele>408.71</ele>
        <time>2024-08-13T07:26:58.822Z</time>
      </trkpt>
      <trkpt lat="45.78198194503784" lon="4.665638208389282">
        <ele>410.15</ele>
        <time>2024-08-13T07:27:01.956Z</time>
      </trkpt>
      <trkpt lat="45.781928384676576" lon="4.665638208389282">
        <ele>411.7</ele>
        <time>2024-08-13T07:27:05.091Z</time>
      </trkpt>
      <trkpt lat="45.78177818097174" lon="4.665734767913818">
        <ele>413.48</ele>
        <time>2024-08-13T07:27:08.229Z</time>
      </trkpt>
      <trkpt lat="45.781649351119995" lon="4.666002988815308">
        <ele>415.29</ele>
        <time>2024-08-13T07:27:11.370Z</time>
      </trkpt>
      <trkpt lat="45.7814884185791" lon="4.666721820831299">
        <ele>417.4</ele>
        <time>2024-08-13T07:27:14.520Z</time>
      </trkpt>
      <trkpt lat="45.781370401382446" lon="4.667848348617554">
        <ele>419.13</ele>
        <time>2024-08-13T07:27:17.683Z</time>
      </trkpt>
      <trkpt lat="45.78128457069397" lon="4.6682024002075195">
        <ele>420.85</ele>
        <time>2024-08-13T07:27:20.850Z</time>
      </trkpt>
      <trkpt lat="45.7810914516449" lon="4.6685028076171875">
        <ele>422.44</ele>
        <time>2024-08-13T07:27:24.021Z</time>
      </trkpt>
      <trkpt lat="45.78080177307129" lon="4.668738842010498">
        <ele>423.92</ele>
        <time>2024-08-13T07:27:27.198Z</time>
      </trkpt>
      <trkpt lat="45.78054428100586" lon="4.668706655502319">
        <ele>425.52</ele>
        <time>2024-08-13T07:27:30.379Z</time>
      </trkpt>
      <trkpt lat="45.77950358390808" lon="4.668384790420532">
        <ele>427.27</ele>
        <time>2024-08-13T07:27:33.577Z</time>
      </trkpt>
      <trkpt lat="45.77885985374451" lon="4.668395519256592">
        <ele>428.94</ele>
        <time>2024-08-13T07:27:36.785Z</time>
      </trkpt>
      <trkpt lat="45.77807664871216" lon="4.6685779094696045">
        <ele>430.72</ele>
        <time>2024-08-13T07:27:40.006Z</time>
      </trkpt>
      <trkpt lat="45.77802308835089" lon="4.668556451797485">
        <ele>432.11</ele>
        <time>2024-08-13T07:27:43.228Z</time>
      </trkpt>
      <trkpt lat="45.777926445007324" lon="4.668320417404175">
        <ele>433.51</ele>
        <time>2024-08-13T07:27:46.453Z</time>
      </trkpt>
      <trkpt lat="45.77786207199097" lon="4.668148756027222">
        <ele>434.77</ele>
        <time>2024-08-13T07:27:49.680Z</time>
      </trkpt>
      <trkpt lat="45.77746510505676" lon="4.667140245437622">
        <ele>436.13</ele>
        <time>2024-08-13T07:27:52.920Z</time>
      </trkpt>
      <trkpt lat="45.776907205581665" lon="4.665144681930542">
        <ele>437.16</ele>
        <time>2024-08-13T07:27:56.184Z</time>
      </trkpt>
      <trkpt lat="45.7769072894007" lon="4.665144681930542">
        <ele>437.97</ele>
        <time>2024-08-13T07:27:59.448Z</time>
      </trkpt>
      <trkpt lat="45.776885747909546" lon="4.665058851242065">
        <ele>438.65</ele>
        <time>2024-08-13T07:28:02.713Z</time>
      </trkpt>
      <trkpt lat="45.77676773071289" lon="4.664479494094849">
        <ele>438.89</ele>
        <time>2024-08-13T07:28:05.985Z</time>
      </trkpt>
      <trkpt lat="45.77673554420471" lon="4.664061069488525">
        <ele>439.21</ele>
        <time>2024-08-13T07:28:09.262Z</time>
      </trkpt>
      <trkpt lat="45.77678918838501" lon="4.663277864456177">
        <ele>439.56</ele>
        <time>2024-08-13T07:28:12.547Z</time>
      </trkpt>
      <trkpt lat="45.77676773071289" lon="4.662977457046509">
        <ele>439.86</ele>
        <time>2024-08-13T07:28:15.836Z</time>
      </trkpt>
      <trkpt lat="45.776671171188354" lon="4.662816524505615">
        <ele>439.93</ele>
        <time>2024-08-13T07:28:19.127Z</time>
      </trkpt>
      <trkpt lat="45.776435136795044" lon="4.662730693817139">
        <ele>439.81</ele>
        <time>2024-08-13T07:28:22.422Z</time>
      </trkpt>
      <trkpt lat="45.775941610336304" lon="4.6627843379974365">
        <ele>439.82</ele>
        <time>2024-08-13T07:28:25.725Z</time>
      </trkpt>
      <trkpt lat="45.77555545605719" lon="4.66295599937439">
        <ele>439.18</ele>
        <time>2024-08-13T07:28:29.034Z</time>
      </trkpt>
      <trkpt lat="45.775179862976074" lon="4.663127660751343">
        <ele>438.35</ele>
        <time>2024-08-13T07:28:32.350Z</time>
      </trkpt>
      <trkpt lat="45.774911642074585" lon="4.663116931915283">
        <ele>437.63</ele>
        <time>2024-08-13T07:28:35.670Z</time>
      </trkpt>
      <trkpt lat="45.774643421173096" lon="4.662988185882568">
        <ele>436.72</ele>
        <time>2024-08-13T07:28:38.995Z</time>
      </trkpt>
      <trkpt lat="45.774375200271606" lon="4.662773609161377">
        <ele>435.52</ele>
        <time>2024-08-13T07:28:42.324Z</time>
      </trkpt>
      <trkpt lat="45.774160623550415" lon="4.662494659423828">
        <ele>434.26</ele>
        <time>2024-08-13T07:28:45.658Z</time>
      </trkpt>
      <trkpt lat="45.773946046829224" lon="4.6619367599487305">
        <ele>433.1</ele>
        <time>2024-08-13T07:28:48.999Z</time>
      </trkpt>
      <trkpt lat="45.77381730079651" lon="4.6614110469818115">
        <ele>431.82</ele>
        <time>2024-08-13T07:28:52.346Z</time>
      </trkpt>
      <trkpt lat="45.77381738461554" lon="4.6614110469818115">
        <ele>430.46</ele>
        <time>2024-08-13T07:28:55.693Z</time>
      </trkpt>
      <trkpt lat="45.7735276222229" lon="4.660316705703735">
        <ele>428.64</ele>
        <time>2024-08-13T07:28:59.054Z</time>
      </trkpt>
      <trkpt lat="45.773441791534424" lon="4.659973382949829">
        <ele>427.28</ele>
        <time>2024-08-13T07:29:02.419Z</time>
      </trkpt>
      <trkpt lat="45.773420333862305" lon="4.65995192527771">
        <ele>425.78</ele>
        <time>2024-08-13T07:29:05.784Z</time>
      </trkpt>
      <trkpt lat="45.773420417681336" lon="4.65995192527771">
        <ele>424.24</ele>
        <time>2024-08-13T07:29:09.149Z</time>
      </trkpt>
      <trkpt lat="45.77332377433777" lon="4.659769535064697">
        <ele>422.72</ele>
        <time>2024-08-13T07:29:12.517Z</time>
      </trkpt>
      <trkpt lat="45.77311992645264" lon="4.65970516204834">
        <ele>421.11</ele>
        <time>2024-08-13T07:29:15.888Z</time>
      </trkpt>
      <trkpt lat="45.77221870422363" lon="4.660069942474365">
        <ele>418.95</ele>
        <time>2024-08-13T07:29:19.274Z</time>
      </trkpt>
      <trkpt lat="45.772132873535156" lon="4.660080671310425">
        <ele>417.35</ele>
        <time>2024-08-13T07:29:22.661Z</time>
      </trkpt>
      <trkpt lat="45.77203631401062" lon="4.660027027130127">
        <ele>415.83</ele>
        <time>2024-08-13T07:29:26.050Z</time>
      </trkpt>
      <trkpt lat="45.77197194099426" lon="4.65994119644165">
        <ele>414.36</ele>
        <time>2024-08-13T07:29:29.440Z</time>
      </trkpt>
      <trkpt lat="45.77173590660095" lon="4.659522771835327">
        <ele>412.88</ele>
        <time>2024-08-13T07:29:32.836Z</time>
      </trkpt>
      <trkpt lat="45.77155351638794" lon="4.659050703048706">
        <ele>411.71</ele>
        <time>2024-08-13T07:29:36.239Z</time>
      </trkpt>
      <trkpt lat="45.77146768569946" lon="4.6587395668029785">
        <ele>410.59</ele>
        <time>2024-08-13T07:29:39.645Z</time>
      </trkpt>
      <trkpt lat="45.77134966850281" lon="4.658117294311523">
        <ele>409.47</ele>
        <time>2024-08-13T07:29:43.058Z</time>
      </trkpt>
      <trkpt lat="45.77131748199463" lon="4.658031463623047">
        <ele>408.68</ele>
        <time>2024-08-13T07:29:46.473Z</time>
      </trkpt>
      <trkpt lat="45.77126383781433" lon="4.6579670906066895">
        <ele>408.02</ele>
        <time>2024-08-13T07:29:49.889Z</time>
      </trkpt>
      <trkpt lat="45.771188735961914" lon="4.657924175262451">
        <ele>407.46</ele>
        <time>2024-08-13T07:29:53.306Z</time>
      </trkpt>
      <trkpt lat="45.77111371792853" lon="4.657902717590332">
        <ele>407.1</ele>
        <time>2024-08-13T07:29:56.724Z</time>
      </trkpt>
      <trkpt lat="45.77104926109314" lon="4.657913446426392">
        <ele>406.83</ele>
        <time>2024-08-13T07:30:00.143Z</time>
      </trkpt>
      <trkpt lat="45.77100642956793" lon="4.65794563293457">
        <ele>406.64</ele>
        <time>2024-08-13T07:30:03.563Z</time>
      </trkpt>
      <trkpt lat="45.77096343040466" lon="4.657988548278809">
        <ele>406.55</ele>
        <time>2024-08-13T07:30:06.984Z</time>
      </trkpt>
      <trkpt lat="45.770909786224365" lon="4.658085107803345">
        <ele>406.56</ele>
        <time>2024-08-13T07:30:10.406Z</time>
      </trkpt>
      <trkpt lat="45.77083468437195" lon="4.658278226852417">
        <ele>406.8</ele>
        <time>2024-08-13T07:30:13.831Z</time>
      </trkpt>
      <trkpt lat="45.77077031135559" lon="4.658621549606323">
        <ele>407.21</ele>
        <time>2024-08-13T07:30:17.260Z</time>
      </trkpt>
      <trkpt lat="45.77072739601135" lon="4.659018516540527">
        <ele>407.87</ele>
        <time>2024-08-13T07:30:20.693Z</time>
      </trkpt>
      <trkpt lat="45.77071666717529" lon="4.6594154834747314">
        <ele>408.79</ele>
        <time>2024-08-13T07:30:24.131Z</time>
      </trkpt>
      <trkpt lat="45.77075958251953" lon="4.660327434539795">
        <ele>409.68</ele>
        <time>2024-08-13T07:30:27.579Z</time>
      </trkpt>
      <trkpt lat="45.77072739601135" lon="4.661056995391846">
        <ele>410.97</ele>
        <time>2024-08-13T07:30:31.035Z</time>
      </trkpt>
      <trkpt lat="45.770684480667114" lon="4.661432504653931">
        <ele>412.17</ele>
        <time>2024-08-13T07:30:34.495Z</time>
      </trkpt>
      <trkpt lat="45.770684564486146" lon="4.661432504653931">
        <ele>413.2</ele>
        <time>2024-08-13T07:30:37.955Z</time>
      </trkpt>
      <trkpt lat="45.77059864997864" lon="4.661732912063599">
        <ele>414.36</ele>
        <time>2024-08-13T07:30:41.419Z</time>
      </trkpt>
      <trkpt lat="45.77049136161804" lon="4.661926031112671">
        <ele>415.61</ele>
        <time>2024-08-13T07:30:44.886Z</time>
      </trkpt>
      <trkpt lat="45.77036261558533" lon="4.662054777145386">
        <ele>416.89</ele>
        <time>2024-08-13T07:30:48.355Z</time>
      </trkpt>
      <trkpt lat="45.77023386955261" lon="4.662172794342041">
        <ele>418.22</ele>
        <time>2024-08-13T07:30:51.827Z</time>
      </trkpt>
      <trkpt lat="45.77004075050354" lon="4.662269353866577">
        <ele>419.59</ele>
        <time>2024-08-13T07:30:55.302Z</time>
      </trkpt>
      <trkpt lat="45.76982617378235" lon="4.662290811538696">
        <ele>420.92</ele>
        <time>2024-08-13T07:30:58.780Z</time>
      </trkpt>
      <trkpt lat="45.76961159706116" lon="4.662237167358398">
        <ele>422.16</ele>
        <time>2024-08-13T07:31:02.262Z</time>
      </trkpt>
      <trkpt lat="45.769397020339966" lon="4.662065505981445">
        <ele>423.48</ele>
        <time>2024-08-13T07:31:05.748Z</time>
      </trkpt>
      <trkpt lat="45.769139528274536" lon="4.661808013916016">
        <ele>424.89</ele>
        <time>2024-08-13T07:31:09.239Z</time>
      </trkpt>
      <trkpt lat="45.768903493881226" lon="4.66168999671936">
        <ele>426.14</ele>
        <time>2024-08-13T07:31:12.734Z</time>
      </trkpt>
      <trkpt lat="45.76856017112732" lon="4.661754369735718">
        <ele>427.22</ele>
        <time>2024-08-13T07:31:16.234Z</time>
      </trkpt>
      <trkpt lat="45.76846361160278" lon="4.661818742752075">
        <ele>427.51</ele>
        <time>2024-08-13T07:31:19.736Z</time>
      </trkpt>
      <trkpt lat="45.768463695421815" lon="4.661818742752075">
        <ele>427.37</ele>
        <time>2024-08-13T07:31:23.238Z</time>
      </trkpt>
      <trkpt lat="45.768141746520996" lon="4.662044048309326">
        <ele>426.82</ele>
        <time>2024-08-13T07:31:26.746Z</time>
      </trkpt>
      <trkpt lat="45.76761603355408" lon="4.662172794342041">
        <ele>425.72</ele>
        <time>2024-08-13T07:31:30.262Z</time>
      </trkpt>
      <trkpt lat="45.767433643341064" lon="4.662172794342041">
        <ele>425.25</ele>
        <time>2024-08-13T07:31:33.781Z</time>
      </trkpt>
      <trkpt lat="45.76728343963623" lon="4.662054777145386">
        <ele>425.18</ele>
        <time>2024-08-13T07:31:37.303Z</time>
      </trkpt>
      <trkpt lat="45.76683282852173" lon="4.661250114440918">
        <ele>425.44</ele>
        <time>2024-08-13T07:31:40.837Z</time>
      </trkpt>
      <trkpt lat="45.766682624816895" lon="4.6611106395721436">
        <ele>425.37</ele>
        <time>2024-08-13T07:31:44.373Z</time>
      </trkpt>
      <trkpt lat="45.766539042815566" lon="4.661043081432581">
        <ele>425.22</ele>
        <time>2024-08-13T07:31:47.912Z</time>
      </trkpt>
      <trkpt lat="45.76653862372041" lon="4.6610429137945175">
        <ele>425.22</ele>
        <time>2024-08-13T07:31:51.451Z</time>
      </trkpt>
      <trkpt lat="45.76653828844428" lon="4.661042746156454">
        <ele>425.22</ele>
        <time>2024-08-13T07:31:54.990Z</time>
      </trkpt>
      <trkpt lat="45.76650023460388" lon="4.661024808883667">
        <ele>426.6</ele>
        <time>2024-08-13T07:31:58.530Z</time>
      </trkpt>
      <trkpt lat="45.76628574170172" lon="4.66096043586731">
        <ele>427.09</ele>
        <time>2024-08-13T07:32:02.073Z</time>
      </trkpt>
      <trkpt lat="45.76610326766968" lon="4.66093897819519">
        <ele>427.56</ele>
        <time>2024-08-13T07:32:05.619Z</time>
      </trkpt>
      <trkpt lat="45.765684926882386" lon="4.661099910736084">
        <ele>427.95</ele>
        <time>2024-08-13T07:32:09.172Z</time>
      </trkpt>
      <trkpt lat="45.765438079833984" lon="4.661175012588501">
        <ele>428.63</ele>
        <time>2024-08-13T07:32:12.729Z</time>
      </trkpt>
      <trkpt lat="45.765169858932495" lon="4.661121368408203">
        <ele>429.32</ele>
        <time>2024-08-13T07:32:16.290Z</time>
      </trkpt>
      <trkpt lat="45.76505184173584" lon="4.661056995391846">
        <ele>429.69</ele>
        <time>2024-08-13T07:32:19.853Z</time>
      </trkpt>
      <trkpt lat="45.76501965522766" lon="4.661024808883667">
        <ele>429.76</ele>
        <time>2024-08-13T07:32:23.417Z</time>
      </trkpt>
      <trkpt lat="45.76497673988342" lon="4.66093897819519">
        <ele>429.61</ele>
        <time>2024-08-13T07:32:26.982Z</time>
      </trkpt>
      <trkpt lat="45.764944553375244" lon="4.660745859146118">
        <ele>429.28</ele>
        <time>2024-08-13T07:32:30.549Z</time>
      </trkpt>
      <trkpt lat="45.76457977294922" lon="4.660531282424927">
        <ele>428.67</ele>
        <time>2024-08-13T07:32:34.123Z</time>
      </trkpt>
      <trkpt lat="45.764193534851074" lon="4.660348892211914">
        <ele>428.03</ele>
        <time>2024-08-13T07:32:37.703Z</time>
      </trkpt>
      <trkpt lat="45.76408633030951" lon="4.6603381633758545">
        <ele>426.96</ele>
        <time>2024-08-13T07:32:41.285Z</time>
      </trkpt>
      <trkpt lat="45.76398968696594" lon="4.660359621047974">
        <ele>425.65</ele>
        <time>2024-08-13T07:32:44.868Z</time>
      </trkpt>
      <trkpt lat="45.763442516326904" lon="4.6607136726379395">
        <ele>423.58</ele>
        <time>2024-08-13T07:32:48.461Z</time>
      </trkpt>
      <trkpt lat="45.763142108917236" lon="4.660928249359131">
        <ele>421.6</ele>
        <time>2024-08-13T07:32:52.059Z</time>
      </trkpt>
      <trkpt lat="45.762948989868164" lon="4.661014080047607">
        <ele>419.39</ele>
        <time>2024-08-13T07:32:55.661Z</time>
      </trkpt>
      <trkpt lat="45.76282024383545" lon="4.661046266555786">
        <ele>417.15</ele>
        <time>2024-08-13T07:32:59.265Z</time>
      </trkpt>
      <trkpt lat="45.76282032765448" lon="4.661046266555786">
        <ele>415.13</ele>
        <time>2024-08-13T07:33:02.869Z</time>
      </trkpt>
      <trkpt lat="45.762691497802734" lon="4.661056995391846">
        <ele>412.99</ele>
        <time>2024-08-13T07:33:06.475Z</time>
      </trkpt>
      <trkpt lat="45.762391090393066" lon="4.660971164703369">
        <ele>410.83</ele>
        <time>2024-08-13T07:33:10.086Z</time>
      </trkpt>
      <trkpt lat="45.761919021606445" lon="4.660799503326416">
        <ele>408.56</ele>
        <time>2024-08-13T07:33:13.705Z</time>
      </trkpt>
      <trkpt lat="45.761661529541016" lon="4.660670757293701">
        <ele>406.47</ele>
        <time>2024-08-13T07:33:17.328Z</time>
      </trkpt>
      <trkpt lat="45.76156497001648" lon="4.660595655441284">
        <ele>404.62</ele>
        <time>2024-08-13T07:33:20.953Z</time>
      </trkpt>
      <trkpt lat="45.761479139328" lon="4.660499095916748">
        <ele>402.86</ele>
        <time>2024-08-13T07:33:24.579Z</time>
      </trkpt>
      <trkpt lat="45.76135039329529" lon="4.660284519195557">
        <ele>401.09</ele>
        <time>2024-08-13T07:33:28.209Z</time>
      </trkpt>
      <trkpt lat="45.760942697525024" lon="4.659233093261719">
        <ele>399.18</ele>
        <time>2024-08-13T07:33:31.852Z</time>
      </trkpt>
      <trkpt lat="45.76083540916443" lon="4.659007787704468">
        <ele>397.85</ele>
        <time>2024-08-13T07:33:35.498Z</time>
      </trkpt>
      <trkpt lat="45.760695934295654" lon="4.658846855163574">
        <ele>396.72</ele>
        <time>2024-08-13T07:33:39.147Z</time>
      </trkpt>
      <trkpt lat="45.76056718826294" lon="4.658782482147217">
        <ele>395.77</ele>
        <time>2024-08-13T07:33:42.798Z</time>
      </trkpt>
      <trkpt lat="45.760427713394165" lon="4.658750295639038">
        <ele>394.98</ele>
        <time>2024-08-13T07:33:46.451Z</time>
      </trkpt>
      <trkpt lat="45.76026678085327" lon="4.6587395668029785">
        <ele>394.3</ele>
        <time>2024-08-13T07:33:50.107Z</time>
      </trkpt>
      <trkpt lat="45.76010584831238" lon="4.658793210983276">
        <ele>393.64</ele>
        <time>2024-08-13T07:33:53.766Z</time>
      </trkpt>
      <trkpt lat="45.75998783111572" lon="4.658868312835693">
        <ele>393.01</ele>
        <time>2024-08-13T07:33:57.427Z</time>
      </trkpt>
      <trkpt lat="45.75988054275513" lon="4.659018516540527">
        <ele>392.41</ele>
        <time>2024-08-13T07:34:01.090Z</time>
      </trkpt>
      <trkpt lat="45.75960159301758" lon="4.659597873687744">
        <ele>391.66</ele>
        <time>2024-08-13T07:34:04.761Z</time>
      </trkpt>
      <trkpt lat="45.75947284698486" lon="4.6598124504089355">
        <ele>391.11</ele>
        <time>2024-08-13T07:34:08.435Z</time>
      </trkpt>
      <trkpt lat="45.759397745132446" lon="4.659909009933472">
        <ele>390.5</ele>
        <time>2024-08-13T07:34:12.111Z</time>
      </trkpt>
      <trkpt lat="45.75930118560791" lon="4.660016298294067">
        <ele>390.01</ele>
        <time>2024-08-13T07:34:15.789Z</time>
      </trkpt>
      <trkpt lat="45.75930126942694" lon="4.660016298294067">
        <ele>389.55</ele>
        <time>2024-08-13T07:34:19.467Z</time>
      </trkpt>
      <trkpt lat="45.759236896410584" lon="4.660069942474365">
        <ele>389.11</ele>
        <time>2024-08-13T07:34:23.146Z</time>
      </trkpt>
      <trkpt lat="45.75904369354248" lon="4.660177230834961">
        <ele>388.61</ele>
        <time>2024-08-13T07:34:26.828Z</time>
      </trkpt>
      <trkpt lat="45.75876474380493" lon="4.660284519195557">
        <ele>388.31</ele>
        <time>2024-08-13T07:34:30.515Z</time>
      </trkpt>
      <trkpt lat="45.75807809829712" lon="4.660466909408569">
        <ele>388.16</ele>
        <time>2024-08-13T07:34:34.213Z</time>
      </trkpt>
      <trkpt lat="45.75778841972351" lon="4.660477638244629">
        <ele>387.88</ele>
        <time>2024-08-13T07:34:37.916Z</time>
      </trkpt>
      <trkpt lat="45.75705894269049" lon="4.660348892211914">
        <ele>387.63</ele>
        <time>2024-08-13T07:34:41.630Z</time>
      </trkpt>
      <trkpt lat="45.75662970542908" lon="4.6602630615234375">
        <ele>387.36</ele>
        <time>2024-08-13T07:34:45.351Z</time>
      </trkpt>
      <trkpt lat="45.75572848320007" lon="4.660166501998901">
        <ele>386.55</ele>
        <time>2024-08-13T07:34:49.087Z</time>
      </trkpt>
      <trkpt lat="45.755460262298584" lon="4.660069942474365">
        <ele>386.29</ele>
        <time>2024-08-13T07:34:52.827Z</time>
      </trkpt>
      <trkpt lat="45.75505256652832" lon="4.659844636917114">
        <ele>386.15</ele>
        <time>2024-08-13T07:34:56.574Z</time>
      </trkpt>
      <trkpt lat="45.754966819658875" lon="4.659780263900757">
        <ele>386.25</ele>
        <time>2024-08-13T07:35:00.323Z</time>
      </trkpt>
      <trkpt lat="45.75489171780646" lon="4.659726619720459">
        <ele>386.53</ele>
        <time>2024-08-13T07:35:04.073Z</time>
      </trkpt>
      <trkpt lat="45.7545268535614" lon="4.659404754638672">
        <ele>386.94</ele>
        <time>2024-08-13T07:35:07.830Z</time>
      </trkpt>
      <trkpt lat="45.753250205889344" lon="4.658117294311523">
        <ele>388.04</ele>
        <time>2024-08-13T07:35:11.612Z</time>
      </trkpt>
      <trkpt lat="45.75307846069336" lon="4.65795636177063">
        <ele>388.95</ele>
        <time>2024-08-13T07:35:15.397Z</time>
      </trkpt>
      <trkpt lat="45.75299263000488" lon="4.657913446426392">
        <ele>389.96</ele>
        <time>2024-08-13T07:35:19.184Z</time>
      </trkpt>
      <trkpt lat="45.75289607048035" lon="4.657913446426392">
        <ele>391.12</ele>
        <time>2024-08-13T07:35:22.972Z</time>
      </trkpt>
      <trkpt lat="45.75278878211975" lon="4.65795636177063">
        <ele>392.46</ele>
        <time>2024-08-13T07:35:26.762Z</time>
      </trkpt>
      <trkpt lat="45.75263857841492" lon="4.658149480819702">
        <ele>393.97</ele>
        <time>2024-08-13T07:35:30.555Z</time>
      </trkpt>
      <trkpt lat="45.752402544021606" lon="4.658492803573608">
        <ele>395.43</ele>
        <time>2024-08-13T07:35:34.354Z</time>
      </trkpt>
      <trkpt lat="45.75175881385803" lon="4.659157991409302">
        <ele>396.85</ele>
        <time>2024-08-13T07:35:38.165Z</time>
      </trkpt>
      <trkpt lat="45.751672983169556" lon="4.659383296966553">
        <ele>398.41</ele>
        <time>2024-08-13T07:35:41.979Z</time>
      </trkpt>
      <trkpt lat="45.751662254333496" lon="4.659544229507446">
        <ele>399.9</ele>
        <time>2024-08-13T07:35:45.795Z</time>
      </trkpt>
      <trkpt lat="45.751672983169556" lon="4.65970516204834">
        <ele>401.44</ele>
        <time>2024-08-13T07:35:49.613Z</time>
      </trkpt>
      <trkpt lat="45.75172662734985" lon="4.659909009933472">
        <ele>402.97</ele>
        <time>2024-08-13T07:35:53.433Z</time>
      </trkpt>
      <trkpt lat="45.75181245803833" lon="4.660080671310425">
        <ele>404.45</ele>
        <time>2024-08-13T07:35:57.256Z</time>
      </trkpt>
      <trkpt lat="45.7520055770874" lon="4.6602630615234375">
        <ele>405.85</ele>
        <time>2024-08-13T07:36:01.082Z</time>
      </trkpt>
      <trkpt lat="45.75238108634949" lon="4.660466909408569">
        <ele>407.24</ele>
        <time>2024-08-13T07:36:04.915Z</time>
      </trkpt>
      <trkpt lat="45.75248837471008" lon="4.660584926605225">
        <ele>408.61</ele>
        <time>2024-08-13T07:36:08.750Z</time>
      </trkpt>
      <trkpt lat="45.75257420539856" lon="4.660745859146118">
        <ele>409.91</ele>
        <time>2024-08-13T07:36:12.587Z</time>
      </trkpt>
      <trkpt lat="45.75259566307068" lon="4.660842418670654">
        <ele>411.17</ele>
        <time>2024-08-13T07:36:16.425Z</time>
      </trkpt>
      <trkpt lat="45.75262784957886" lon="4.661046266555786">
        <ele>412.45</ele>
        <time>2024-08-13T07:36:20.266Z</time>
      </trkpt>
      <trkpt lat="45.75262793339789" lon="4.661153554916382">
        <ele>413.68</ele>
        <time>2024-08-13T07:36:24.108Z</time>
      </trkpt>
      <trkpt lat="45.75257420539856" lon="4.661378860473633">
        <ele>415.04</ele>
        <time>2024-08-13T07:36:27.953Z</time>
      </trkpt>
      <trkpt lat="45.752177238464355" lon="4.662237167358398">
        <ele>416.45</ele>
        <time>2024-08-13T07:36:31.809Z</time>
      </trkpt>
      <trkpt lat="45.75217732228339" lon="4.662237167358398">
        <ele>417.43</ele>
        <time>2024-08-13T07:36:35.665Z</time>
      </trkpt>
      <trkpt lat="45.75183391571045" lon="4.6629345417022705">
        <ele>418.56</ele>
        <time>2024-08-13T07:36:39.531Z</time>
      </trkpt>
      <trkpt lat="45.751672983169556" lon="4.663149118423462">
        <ele>419.51</ele>
        <time>2024-08-13T07:36:43.400Z</time>
      </trkpt>
      <trkpt lat="45.75151205062866" lon="4.663320779800415">
        <ele>420.28</ele>
        <time>2024-08-13T07:36:47.272Z</time>
      </trkpt>
      <trkpt lat="45.750449895858765" lon="4.664168357849121">
        <ele>421.09</ele>
        <time>2024-08-13T07:36:51.164Z</time>
      </trkpt>
      <trkpt lat="45.750160217285156" lon="4.664350748062134">
        <ele>421.77</ele>
        <time>2024-08-13T07:36:55.061Z</time>
      </trkpt>
      <trkpt lat="45.749709606170654" lon="4.6645331382751465">
        <ele>422.2</ele>
        <time>2024-08-13T07:36:58.966Z</time>
      </trkpt>
      <trkpt lat="45.74957013130188" lon="4.664543867111206">
        <ele>422.77</ele>
        <time>2024-08-13T07:37:02.873Z</time>
      </trkpt>
      <trkpt lat="45.749441385269165" lon="4.664511680603027">
        <ele>423.51</ele>
        <time>2024-08-13T07:37:06.782Z</time>
      </trkpt>
      <trkpt lat="45.74931263923645" lon="4.66443657875061">
        <ele>424.42</ele>
        <time>2024-08-13T07:37:10.693Z</time>
      </trkpt>
      <trkpt lat="45.748915672302246" lon="4.66395378112793">
        <ele>425.54</ele>
        <time>2024-08-13T07:37:14.612Z</time>
      </trkpt>
      <trkpt lat="45.74882984161377" lon="4.663878679275513">
        <ele>426.75</ele>
        <time>2024-08-13T07:37:18.533Z</time>
      </trkpt>
      <trkpt lat="45.7485830783844" lon="4.662601947784424">
        <ele>428.53</ele>
        <time>2024-08-13T07:37:22.469Z</time>
      </trkpt>
      <trkpt lat="45.748454332351685" lon="4.662065505981445">
        <ele>430.45</ele>
        <time>2024-08-13T07:37:26.411Z</time>
      </trkpt>
      <trkpt lat="45.74827194213867" lon="4.661614894866943">
        <ele>432.18</ele>
        <time>2024-08-13T07:37:30.359Z</time>
      </trkpt>
      <trkpt lat="45.74823975563049" lon="4.661357402801514">
        <ele>434.2</ele>
        <time>2024-08-13T07:37:34.310Z</time>
      </trkpt>
      <trkpt lat="45.74823975563049" lon="4.660670757293701">
        <ele>436.68</ele>
        <time>2024-08-13T07:37:38.269Z</time>
      </trkpt>
      <trkpt lat="45.74835777282715" lon="4.659833908081055">
        <ele>439.52</ele>
        <time>2024-08-13T07:37:42.237Z</time>
      </trkpt>
      <trkpt lat="45.74835777282715" lon="4.6593403816223145">
        <ele>442.01</ele>
        <time>2024-08-13T07:37:46.211Z</time>
      </trkpt>
      <trkpt lat="45.748411417007446" lon="4.659093618392944">
        <ele>444.19</ele>
        <time>2024-08-13T07:37:50.188Z</time>
      </trkpt>
      <trkpt lat="45.74855089187622" lon="4.658750295639038">
        <ele>446.52</ele>
        <time>2024-08-13T07:37:54.169Z</time>
      </trkpt>
      <trkpt lat="45.74864745140076" lon="4.658428430557251">
        <ele>448.86</ele>
        <time>2024-08-13T07:37:58.154Z</time>
      </trkpt>
      <trkpt lat="45.748658180236816" lon="4.658052921295166">
        <ele>451.26</ele>
        <time>2024-08-13T07:38:02.143Z</time>
      </trkpt>
      <trkpt lat="45.74864745140076" lon="4.657795429229736">
        <ele>453.55</ele>
        <time>2024-08-13T07:38:06.135Z</time>
      </trkpt>
      <trkpt lat="45.74861526489258" lon="4.657377004623413">
        <ele>455.83</ele>
        <time>2024-08-13T07:38:10.132Z</time>
      </trkpt>
      <trkpt lat="45.74848651885986" lon="4.656937122344971">
        <ele>458.2</ele>
        <time>2024-08-13T07:38:14.134Z</time>
      </trkpt>
      <trkpt lat="45.74836858548224" lon="4.656679630279541">
        <ele>460.62</ele>
        <time>2024-08-13T07:38:18.140Z</time>
      </trkpt>
      <trkpt lat="45.74836850166321" lon="4.656679630279541">
        <ele>463.0</ele>
        <time>2024-08-13T07:38:22.146Z</time>
      </trkpt>
      <trkpt lat="45.74803590774536" lon="4.656325578689575">
        <ele>466.03</ele>
        <time>2024-08-13T07:38:26.158Z</time>
      </trkpt>
      <trkpt lat="45.74754238128662" lon="4.655874967575073">
        <ele>468.9</ele>
        <time>2024-08-13T07:38:30.180Z</time>
      </trkpt>
      <trkpt lat="45.74745101854205" lon="4.655779330059886">
        <ele>470.34</ele>
        <time>2024-08-13T07:38:34.203Z</time>
      </trkpt>
      <trkpt lat="45.74745085090399" lon="4.655779078602791">
        <ele>470.35</ele>
        <time>2024-08-13T07:38:38.226Z</time>
      </trkpt>
      <trkpt lat="45.74745059944689" lon="4.655778827145696">
        <ele>470.36</ele>
        <time>2024-08-13T07:38:42.249Z</time>
      </trkpt>
      <trkpt lat="45.74709177017212" lon="4.655402898788452">
        <ele>475.81</ele>
        <time>2024-08-13T07:38:46.280Z</time>
      </trkpt>
      <trkpt lat="45.74682354927063" lon="4.6547698974609375">
        <ele>477.89</ele>
        <time>2024-08-13T07:38:50.319Z</time>
      </trkpt>
      <trkpt lat="45.746662616729736" lon="4.654265642166138">
        <ele>480.83</ele>
        <time>2024-08-13T07:38:54.364Z</time>
      </trkpt>
      <trkpt lat="45.74654459953308" lon="4.653664827346802">
        <ele>483.98</ele>
        <time>2024-08-13T07:38:58.416Z</time>
      </trkpt>
      <trkpt lat="45.7465124130249" lon="4.653428792953491">
        <ele>486.8</ele>
        <time>2024-08-13T07:39:02.471Z</time>
      </trkpt>
      <trkpt lat="45.74654459953308" lon="4.653235673904419">
        <ele>489.25</ele>
        <time>2024-08-13T07:39:06.528Z</time>
      </trkpt>
      <trkpt lat="45.74659824371338" lon="4.653064012527466">
        <ele>491.54</ele>
        <time>2024-08-13T07:39:10.587Z</time>
      </trkpt>
      <trkpt lat="45.74700593948364" lon="4.652194976806641">
        <ele>493.7</ele>
        <time>2024-08-13T07:39:14.658Z</time>
      </trkpt>
      <trkpt lat="45.74711322784424" lon="4.651830196380615">
        <ele>496.12</ele>
        <time>2024-08-13T07:39:18.733Z</time>
      </trkpt>
      <trkpt lat="45.747199058532715" lon="4.651122093200684">
        <ele>499.06</ele>
        <time>2024-08-13T07:39:22.816Z</time>
      </trkpt>
      <trkpt lat="45.74733853340149" lon="4.650596380233765">
        <ele>502.09</ele>
        <time>2024-08-13T07:39:26.906Z</time>
      </trkpt>
      <trkpt lat="45.74748873710632" lon="4.649877548217773">
        <ele>505.62</ele>
        <time>2024-08-13T07:39:31.004Z</time>
      </trkpt>
      <trkpt lat="45.74751019477844" lon="4.649555683135986">
        <ele>508.55</ele>
        <time>2024-08-13T07:39:35.106Z</time>
      </trkpt>
      <trkpt lat="45.74748873710632" lon="4.649362564086914">
        <ele>511.22</ele>
        <time>2024-08-13T07:39:39.210Z</time>
      </trkpt>
      <trkpt lat="45.74744590558112" lon="4.649190902709961">
        <ele>513.75</ele>
        <time>2024-08-13T07:39:43.316Z</time>
      </trkpt>
      <trkpt lat="45.747445821762085" lon="4.649190902709961">
        <ele>515.97</ele>
        <time>2024-08-13T07:39:47.422Z</time>
      </trkpt>
      <trkpt lat="45.74734926223755" lon="4.648783206939697">
        <ele>518.37</ele>
        <time>2024-08-13T07:39:51.533Z</time>
      </trkpt>
      <trkpt lat="45.747456550598145" lon="4.648493528366089">
        <ele>520.54</ele>
        <time>2024-08-13T07:39:55.647Z</time>
      </trkpt>
      <trkpt lat="45.747928619384766" lon="4.647506475448608">
        <ele>523.27</ele>
        <time>2024-08-13T07:39:59.775Z</time>
      </trkpt>
      <trkpt lat="45.74812173843384" lon="4.646819829940796">
        <ele>526.07</ele>
        <time>2024-08-13T07:40:03.911Z</time>
      </trkpt>
      <trkpt lat="45.74833631515503" lon="4.646294116973877">
        <ele>528.67</ele>
        <time>2024-08-13T07:40:08.054Z</time>
      </trkpt>
      <trkpt lat="45.748422145843506" lon="4.646133184432983">
        <ele>530.69</ele>
        <time>2024-08-13T07:40:12.199Z</time>
      </trkpt>
      <trkpt lat="45.748475790023804" lon="4.646068811416626">
        <ele>532.35</ele>
        <time>2024-08-13T07:40:16.345Z</time>
      </trkpt>
      <trkpt lat="45.748679637908936" lon="4.64596152305603">
        <ele>533.29</ele>
        <time>2024-08-13T07:40:20.495Z</time>
      </trkpt>
      <trkpt lat="45.74902296066284" lon="4.645832777023315">
        <ele>534.38</ele>
        <time>2024-08-13T07:40:24.650Z</time>
      </trkpt>
      <trkpt lat="45.749173164367676" lon="4.645789861679077">
        <ele>535.6</ele>
        <time>2024-08-13T07:40:28.808Z</time>
      </trkpt>
      <trkpt lat="45.74925899505615" lon="4.645800590515137">
        <ele>536.69</ele>
        <time>2024-08-13T07:40:32.967Z</time>
      </trkpt>
      <trkpt lat="45.749441385269165" lon="4.645907878875732">
        <ele>537.88</ele>
        <time>2024-08-13T07:40:37.129Z</time>
      </trkpt>
      <trkpt lat="45.7496452331543" lon="4.646100997924805">
        <ele>539.15</ele>
        <time>2024-08-13T07:40:41.295Z</time>
      </trkpt>
      <trkpt lat="45.74979543685913" lon="4.6462082862854">
        <ele>540.55</ele>
        <time>2024-08-13T07:40:45.464Z</time>
      </trkpt>
      <trkpt lat="45.74988126754761" lon="4.6462297439575195">
        <ele>541.98</ele>
        <time>2024-08-13T07:40:49.634Z</time>
      </trkpt>
      <trkpt lat="45.7500422000885" lon="4.6462082862854">
        <ele>543.72</ele>
        <time>2024-08-13T07:40:53.807Z</time>
      </trkpt>
      <trkpt lat="45.750160217285156" lon="4.6461546421051025">
        <ele>545.53</ele>
        <time>2024-08-13T07:40:57.982Z</time>
      </trkpt>
      <trkpt lat="45.75033187866211" lon="4.6460044384002686">
        <ele>547.68</ele>
        <time>2024-08-13T07:41:02.160Z</time>
      </trkpt>
      <trkpt lat="45.75062155723572" lon="4.645596742630005">
        <ele>550.05</ele>
        <time>2024-08-13T07:41:06.345Z</time>
      </trkpt>
      <trkpt lat="45.75077176094055" lon="4.645446538925171">
        <ele>552.21</ele>
        <time>2024-08-13T07:41:10.533Z</time>
      </trkpt>
      <trkpt lat="45.751211643218994" lon="4.6451568603515625">
        <ele>554.58</ele>
        <time>2024-08-13T07:41:14.728Z</time>
      </trkpt>
      <trkpt lat="45.751436948776245" lon="4.6449315547943115">
        <ele>557.32</ele>
        <time>2024-08-13T07:41:18.928Z</time>
      </trkpt>
      <trkpt lat="45.7516086101532" lon="4.644652605056763">
        <ele>560.06</ele>
        <time>2024-08-13T07:41:23.132Z</time>
      </trkpt>
      <trkpt lat="45.751909017562866" lon="4.643890857696533">
        <ele>563.05</ele>
        <time>2024-08-13T07:41:27.346Z</time>
      </trkpt>
      <trkpt lat="45.751973390579224" lon="4.643772840499878">
        <ele>565.62</ele>
        <time>2024-08-13T07:41:31.561Z</time>
      </trkpt>
      <trkpt lat="45.75208067893982" lon="4.6436333656311035">
        <ele>568.14</ele>
        <time>2024-08-13T07:41:35.779Z</time>
      </trkpt>
      <trkpt lat="45.75228452682495" lon="4.643397331237793">
        <ele>570.53</ele>
        <time>2024-08-13T07:41:40.001Z</time>
      </trkpt>
      <trkpt lat="45.7525098323822" lon="4.64296817779541">
        <ele>573.15</ele>
        <time>2024-08-13T07:41:44.229Z</time>
      </trkpt>
      <trkpt lat="45.7526171207428" lon="4.642689228057861">
        <ele>575.83</ele>
        <time>2024-08-13T07:41:48.461Z</time>
      </trkpt>
      <trkpt lat="45.752724409103394" lon="4.642313718795776">
        <ele>578.62</ele>
        <time>2024-08-13T07:41:52.697Z</time>
      </trkpt>
      <trkpt lat="45.75287461280823" lon="4.641573429107666">
        <ele>581.76</ele>
        <time>2024-08-13T07:41:56.942Z</time>
      </trkpt>
      <trkpt lat="45.753014087677" lon="4.64098334312439">
        <ele>584.64</ele>
        <time>2024-08-13T07:42:01.194Z</time>
      </trkpt>
      <trkpt lat="45.75309991836548" lon="4.640650749206543">
        <ele>587.41</ele>
        <time>2024-08-13T07:42:05.450Z</time>
      </trkpt>
      <trkpt lat="45.753185749053955" lon="4.640414714813232">
        <ele>590.21</ele>
        <time>2024-08-13T07:42:09.709Z</time>
      </trkpt>
      <trkpt lat="45.75329303741455" lon="4.64023232460022">
        <ele>592.97</ele>
        <time>2024-08-13T07:42:13.970Z</time>
      </trkpt>
      <trkpt lat="45.753754461184144" lon="4.639674425125122">
        <ele>596.08</ele>
        <time>2024-08-13T07:42:18.241Z</time>
      </trkpt>
      <trkpt lat="45.75408697128296" lon="4.639127254486084">
        <ele>599.12</ele>
        <time>2024-08-13T07:42:22.520Z</time>
      </trkpt>
      <trkpt lat="45.75431227684021" lon="4.638698101043701">
        <ele>602.23</ele>
        <time>2024-08-13T07:42:26.805Z</time>
      </trkpt>
      <trkpt lat="45.75439810752869" lon="4.638569355010986">
        <ele>604.93</ele>
        <time>2024-08-13T07:42:31.092Z</time>
      </trkpt>
      <trkpt lat="45.75453758239746" lon="4.638451337814331">
        <ele>607.59</ele>
        <time>2024-08-13T07:42:35.382Z</time>
      </trkpt>
      <trkpt lat="45.7549774646759" lon="4.638258218765259">
        <ele>609.93</ele>
        <time>2024-08-13T07:42:39.679Z</time>
      </trkpt>
      <trkpt lat="45.755192041397095" lon="4.638075828552246">
        <ele>612.69</ele>
        <time>2024-08-13T07:42:43.980Z</time>
      </trkpt>
      <trkpt lat="45.755438804626465" lon="4.6377646923065186">
        <ele>615.57</ele>
        <time>2024-08-13T07:42:48.286Z</time>
      </trkpt>
      <trkpt lat="45.75601816177368" lon="4.636863470077515">
        <ele>618.94</ele>
        <time>2024-08-13T07:42:52.606Z</time>
      </trkpt>
      <trkpt lat="45.75610399246216" lon="4.636713266372681">
        <ele>621.6</ele>
        <time>2024-08-13T07:42:56.928Z</time>
      </trkpt>
      <trkpt lat="45.75625419616699" lon="4.63621973991394">
        <ele>624.26</ele>
        <time>2024-08-13T07:43:01.256Z</time>
      </trkpt>
      <trkpt lat="45.75627565383911" lon="4.635822772979736">
        <ele>626.99</ele>
        <time>2024-08-13T07:43:05.589Z</time>
      </trkpt>
      <trkpt lat="45.75624346733093" lon="4.635339975357056">
        <ele>629.89</ele>
        <time>2024-08-13T07:43:09.927Z</time>
      </trkpt>
      <trkpt lat="45.75606107711792" lon="4.634084701538086">
        <ele>632.84</ele>
        <time>2024-08-13T07:43:14.280Z</time>
      </trkpt>
      <trkpt lat="45.755953788757324" lon="4.633086919784546">
        <ele>635.85</ele>
        <time>2024-08-13T07:43:18.644Z</time>
      </trkpt>
      <trkpt lat="45.755943059921265" lon="4.632561206817627">
        <ele>638.44</ele>
        <time>2024-08-13T07:43:23.014Z</time>
      </trkpt>
      <trkpt lat="45.7560396194458" lon="4.63173508644104">
        <ele>641.06</ele>
        <time>2024-08-13T07:43:27.393Z</time>
      </trkpt>
      <trkpt lat="45.75612545013428" lon="4.630930423736572">
        <ele>643.91</ele>
        <time>2024-08-13T07:43:31.781Z</time>
      </trkpt>
      <trkpt lat="45.756157636642456" lon="4.630801677703857">
        <ele>645.97</ele>
        <time>2024-08-13T07:43:36.171Z</time>
      </trkpt>
      <trkpt lat="45.75623273849487" lon="4.630662202835083">
        <ele>647.81</ele>
        <time>2024-08-13T07:43:40.563Z</time>
      </trkpt>
      <trkpt lat="45.75634002685547" lon="4.630597829818726">
        <ele>649.47</ele>
        <time>2024-08-13T07:43:44.957Z</time>
      </trkpt>
      <trkpt lat="45.756468772888184" lon="4.630608558654785">
        <ele>650.87</ele>
        <time>2024-08-13T07:43:49.353Z</time>
      </trkpt>
      <trkpt lat="45.7565975189209" lon="4.630683660507202">
        <ele>652.22</ele>
        <time>2024-08-13T07:43:53.751Z</time>
      </trkpt>
      <trkpt lat="45.756715536117554" lon="4.630769491195679">
        <ele>653.48</ele>
        <time>2024-08-13T07:43:58.151Z</time>
      </trkpt>
      <trkpt lat="45.757187604904175" lon="4.6312415599823">
        <ele>654.68</ele>
        <time>2024-08-13T07:44:02.560Z</time>
      </trkpt>
      <trkpt lat="45.75727343559265" lon="4.631305932998657">
        <ele>656.13</ele>
        <time>2024-08-13T07:44:06.971Z</time>
      </trkpt>
      <trkpt lat="45.757402181625366" lon="4.631359577178955">
        <ele>657.6</ele>
        <time>2024-08-13T07:44:11.384Z</time>
      </trkpt>
      <trkpt lat="45.75750946998596" lon="4.6313488483428955">
        <ele>659.2</ele>
        <time>2024-08-13T07:44:15.799Z</time>
      </trkpt>
      <trkpt lat="45.75778841972351" lon="4.631209373474121">
        <ele>661.1</ele>
        <time>2024-08-13T07:44:20.218Z</time>
      </trkpt>
      <trkpt lat="45.757906436920166" lon="4.631187915802002">
        <ele>662.79</ele>
        <time>2024-08-13T07:44:24.639Z</time>
      </trkpt>
      <trkpt lat="45.75806736946106" lon="4.63123083114624">
        <ele>664.56</ele>
        <time>2024-08-13T07:44:29.063Z</time>
      </trkpt>
      <trkpt lat="45.758196115493774" lon="4.631316661834717">
        <ele>666.27</ele>
        <time>2024-08-13T07:44:33.489Z</time>
      </trkpt>
      <trkpt lat="45.75836777687073" lon="4.631466865539551">
        <ele>668.04</ele>
        <time>2024-08-13T07:44:37.918Z</time>
      </trkpt>
      <trkpt lat="45.758936405181885" lon="4.632121324539185">
        <ele>670.15</ele>
        <time>2024-08-13T07:44:42.359Z</time>
      </trkpt>
      <trkpt lat="45.759161710739136" lon="4.632314443588257">
        <ele>671.95</ele>
        <time>2024-08-13T07:44:46.804Z</time>
      </trkpt>
      <trkpt lat="45.759440660476685" lon="4.63247537612915">
        <ele>673.88</ele>
        <time>2024-08-13T07:44:51.254Z</time>
      </trkpt>
      <trkpt lat="45.75961232185364" lon="4.632529020309448">
        <ele>675.81</ele>
        <time>2024-08-13T07:44:55.707Z</time>
      </trkpt>
      <trkpt lat="45.75982689857483" lon="4.632561206817627">
        <ele>677.75</ele>
        <time>2024-08-13T07:45:00.163Z</time>
      </trkpt>
      <trkpt lat="45.759923458099365" lon="4.632550477981567">
        <ele>679.6</ele>
        <time>2024-08-13T07:45:04.621Z</time>
      </trkpt>
      <trkpt lat="45.76010584831238" lon="4.63247537612915">
        <ele>681.56</ele>
        <time>2024-08-13T07:45:09.082Z</time>
      </trkpt>
      <trkpt lat="45.76024532318115" lon="4.632378816604614">
        <ele>683.38</ele>
        <time>2024-08-13T07:45:13.545Z</time>
      </trkpt>
      <trkpt lat="45.760459899902344" lon="4.632142782211304">
        <ele>685.28</ele>
        <time>2024-08-13T07:45:18.013Z</time>
      </trkpt>
      <trkpt lat="45.76078176498413" lon="4.63173508644104">
        <ele>687.26</ele>
        <time>2024-08-13T07:45:22.488Z</time>
      </trkpt>
      <trkpt lat="45.760921239852905" lon="4.6314990520477295">
        <ele>688.93</ele>
        <time>2024-08-13T07:45:26.966Z</time>
      </trkpt>
      <trkpt lat="45.761404037475586" lon="4.630533456802368">
        <ele>691.1</ele>
        <time>2024-08-13T07:45:31.457Z</time>
      </trkpt>
      <trkpt lat="45.76152205467224" lon="4.630393981933594">
        <ele>692.29</ele>
        <time>2024-08-13T07:45:35.951Z</time>
      </trkpt>
      <trkpt lat="45.7615864276886" lon="4.630361795425415">
        <ele>693.3</ele>
        <time>2024-08-13T07:45:40.446Z</time>
      </trkpt>
      <trkpt lat="45.76162934303284" lon="4.630372524261475">
        <ele>694.17</ele>
        <time>2024-08-13T07:45:44.942Z</time>
      </trkpt>
      <trkpt lat="45.761693716049194" lon="4.630415439605713">
        <ele>694.9</ele>
        <time>2024-08-13T07:45:49.439Z</time>
      </trkpt>
      <trkpt lat="45.76174736022949" lon="4.63049054145813">
        <ele>695.55</ele>
        <time>2024-08-13T07:45:53.937Z</time>
      </trkpt>
      <trkpt lat="45.76180100440979" lon="4.630651473999023">
        <ele>696.18</ele>
        <time>2024-08-13T07:45:58.437Z</time>
      </trkpt>
      <trkpt lat="45.761929750442505" lon="4.631702899932861">
        <ele>696.5</ele>
        <time>2024-08-13T07:46:02.949Z</time>
      </trkpt>
      <trkpt lat="45.761951208114624" lon="4.632464647293091">
        <ele>697.01</ele>
        <time>2024-08-13T07:46:07.469Z</time>
      </trkpt>
      <trkpt lat="45.76199412345886" lon="4.632850885391235">
        <ele>697.86</ele>
        <time>2024-08-13T07:46:11.994Z</time>
      </trkpt>
      <trkpt lat="45.76204776763916" lon="4.633001089096069">
        <ele>698.82</ele>
        <time>2024-08-13T07:46:16.521Z</time>
      </trkpt>
      <trkpt lat="45.76211214065552" lon="4.633076190948486">
        <ele>699.91</ele>
        <time>2024-08-13T07:46:21.049Z</time>
      </trkpt>
      <trkpt lat="45.762208700180054" lon="4.6330976486206055">
        <ele>701.19</ele>
        <time>2024-08-13T07:46:25.579Z</time>
      </trkpt>
      <trkpt lat="45.76230525970459" lon="4.6330225467681885">
        <ele>702.56</ele>
        <time>2024-08-13T07:46:30.110Z</time>
      </trkpt>
      <trkpt lat="45.76233744621277" lon="4.632925987243652">
        <ele>703.79</ele>
        <time>2024-08-13T07:46:34.643Z</time>
      </trkpt>
      <trkpt lat="45.76233744621277" lon="4.632754325866699">
        <ele>705.13</ele>
        <time>2024-08-13T07:46:39.178Z</time>
      </trkpt>
      <trkpt lat="45.76228380203247" lon="4.632539749145508">
        <ele>706.51</ele>
        <time>2024-08-13T07:46:43.715Z</time>
      </trkpt>
      <trkpt lat="45.76225161552429" lon="4.631863832473755">
        <ele>708.39</ele>
        <time>2024-08-13T07:46:48.260Z</time>
      </trkpt>
      <trkpt lat="45.76226234436035" lon="4.631627798080444">
        <ele>710.37</ele>
        <time>2024-08-13T07:46:52.807Z</time>
      </trkpt>
      <trkpt lat="45.76227307319641" lon="4.6314239501953125">
        <ele>712.61</ele>
        <time>2024-08-13T07:46:57.357Z</time>
      </trkpt>
      <trkpt lat="45.762401819229126" lon="4.630587100982666">
        <ele>715.25</ele>
        <time>2024-08-13T07:47:01.916Z</time>
      </trkpt>
      <trkpt lat="45.76279878616333" lon="4.62898850440979">
        <ele>718.57</ele>
        <time>2024-08-13T07:47:06.494Z</time>
      </trkpt>
      <trkpt lat="45.76283097267151" lon="4.628913402557373">
        <ele>720.98</ele>
        <time>2024-08-13T07:47:11.073Z</time>
      </trkpt>
      <trkpt lat="45.76306700706482" lon="4.627261161804199">
        <ele>724.09</ele>
        <time>2024-08-13T07:47:15.671Z</time>
      </trkpt>
      <trkpt lat="45.76302409172058" lon="4.626907110214233">
        <ele>726.58</ele>
        <time>2024-08-13T07:47:20.273Z</time>
      </trkpt>
      <trkpt lat="45.762938261032104" lon="4.626660346984863">
        <ele>729.2</ele>
        <time>2024-08-13T07:47:24.878Z</time>
      </trkpt>
      <trkpt lat="45.76288461685181" lon="4.626585245132446">
        <ele>732.03</ele>
        <time>2024-08-13T07:47:29.484Z</time>
      </trkpt>
      <trkpt lat="45.76282024383545" lon="4.626542329788208">
        <ele>735.02</ele>
        <time>2024-08-13T07:47:34.092Z</time>
      </trkpt>
      <trkpt lat="45.762391090393066" lon="4.62648868560791">
        <ele>738.45</ele>
        <time>2024-08-13T07:47:38.706Z</time>
      </trkpt>
      <trkpt lat="45.761929750442505" lon="4.6262526512146">
        <ele>741.57</ele>
        <time>2024-08-13T07:47:43.328Z</time>
      </trkpt>
      <trkpt lat="45.76152205467224" lon="4.6257805824279785">
        <ele>744.85</ele>
        <time>2024-08-13T07:47:47.959Z</time>
      </trkpt>
      <trkpt lat="45.76111435890198" lon="4.625201225280762">
        <ele>747.62</ele>
        <time>2024-08-13T07:47:52.599Z</time>
      </trkpt>
      <trkpt lat="45.760695934295654" lon="4.624718427658081">
        <ele>750.94</ele>
        <time>2024-08-13T07:47:57.247Z</time>
      </trkpt>
      <trkpt lat="45.76006293296814" lon="4.623870849609375">
        <ele>753.83</ele>
        <time>2024-08-13T07:48:01.909Z</time>
      </trkpt>
      <trkpt lat="45.759655237197876" lon="4.6230340003967285">
        <ele>756.07</ele>
        <time>2024-08-13T07:48:06.583Z</time>
      </trkpt>
      <trkpt lat="45.7595157623291" lon="4.622830152511597">
        <ele>758.25</ele>
        <time>2024-08-13T07:48:11.260Z</time>
      </trkpt>
      <trkpt lat="45.758689641952515" lon="4.622143507003784">
        <ele>760.2</ele>
        <time>2024-08-13T07:48:15.952Z</time>
      </trkpt>
      <trkpt lat="45.75857162475586" lon="4.622014760971069">
        <ele>761.48</ele>
        <time>2024-08-13T07:48:20.647Z</time>
      </trkpt>
      <trkpt lat="45.75813174247742" lon="4.62148904800415">
        <ele>762.15</ele>
        <time>2024-08-13T07:48:25.351Z</time>
      </trkpt>
      <trkpt lat="45.75758457183838" lon="4.620577096939087">
        <ele>763.67</ele>
        <time>2024-08-13T07:48:30.068Z</time>
      </trkpt>
      <trkpt lat="45.75742372311652" lon="4.6202123165130615">
        <ele>764.7</ele>
        <time>2024-08-13T07:48:34.790Z</time>
      </trkpt>
      <trkpt lat="45.757423639297485" lon="4.6202123165130615">
        <ele>765.23</ele>
        <time>2024-08-13T07:48:39.512Z</time>
      </trkpt>
      <trkpt lat="45.75667270459235" lon="4.618656635284424">
        <ele>765.58</ele>
        <time>2024-08-13T07:48:44.255Z</time>
      </trkpt>
      <trkpt lat="45.756436586380005" lon="4.618173837661743">
        <ele>765.33</ele>
        <time>2024-08-13T07:48:49.005Z</time>
      </trkpt>
      <trkpt lat="45.75624346733093" lon="4.617680311203003">
        <ele>765.36</ele>
        <time>2024-08-13T07:48:53.761Z</time>
      </trkpt>
      <trkpt lat="45.756211280822754" lon="4.61750864982605">
        <ele>765.3</ele>
        <time>2024-08-13T07:48:58.519Z</time>
      </trkpt>
      <trkpt lat="45.756189823150635" lon="4.617294073104858">
        <ele>764.98</ele>
        <time>2024-08-13T07:49:03.280Z</time>
      </trkpt>
      <trkpt lat="45.756189823150635" lon="4.616972208023071">
        <ele>764.27</ele>
        <time>2024-08-13T07:49:08.044Z</time>
      </trkpt>
      <trkpt lat="45.75624346733093" lon="4.6163177490234375">
        <ele>762.87</ele>
        <time>2024-08-13T07:49:12.816Z</time>
      </trkpt>
      <trkpt lat="45.75625419616699" lon="4.6160173416137695">
        <ele>761.79</ele>
        <time>2024-08-13T07:49:17.591Z</time>
      </trkpt>
      <trkpt lat="45.75623273849487" lon="4.615706205368042">
        <ele>760.89</ele>
        <time>2024-08-13T07:49:22.369Z</time>
      </trkpt>
      <trkpt lat="45.7561469078064" lon="4.6151697635650635">
        <ele>760.02</ele>
        <time>2024-08-13T07:49:27.154Z</time>
      </trkpt>
      <trkpt lat="45.75610399246216" lon="4.6149444580078125">
        <ele>759.46</ele>
        <time>2024-08-13T07:49:31.941Z</time>
      </trkpt>
      <trkpt lat="45.7560396194458" lon="4.614740610122681">
        <ele>759.15</ele>
        <time>2024-08-13T07:49:36.731Z</time>
      </trkpt>
      <trkpt lat="45.75590022839606" lon="4.614375829696655">
        <ele>759.15</ele>
        <time>2024-08-13T07:49:41.525Z</time>
      </trkpt>
      <trkpt lat="45.755900144577026" lon="4.614375829696655">
        <ele>758.87</ele>
        <time>2024-08-13T07:49:46.319Z</time>
      </trkpt>
      <trkpt lat="45.75559973716736" lon="4.613925218582153">
        <ele>758.92</ele>
        <time>2024-08-13T07:49:51.120Z</time>
      </trkpt>
      <trkpt lat="45.75538985431194" lon="4.613732183352113">
        <ele>758.09</ele>
        <time>2024-08-13T07:49:55.925Z</time>
      </trkpt>
      <trkpt lat="45.75538960285485" lon="4.613731931895018">
        <ele>758.09</ele>
        <time>2024-08-13T07:50:00.730Z</time>
      </trkpt>
      <trkpt lat="45.75538935139775" lon="4.6137316804379225">
        <ele>758.09</ele>
        <time>2024-08-13T07:50:05.535Z</time>
      </trkpt>
      <trkpt lat="45.75538935139775" lon="4.613731596618891">
        <ele>757.27</ele>
        <time>2024-08-13T07:50:10.340Z</time>
      </trkpt>
      <trkpt lat="45.75533151626587" lon="4.613678455352783">
        <ele>758.39</ele>
        <time>2024-08-13T07:50:15.147Z</time>
      </trkpt>
      <trkpt lat="45.755255073308945" lon="4.613634701818228">
        <ele>758.37</ele>
        <time>2024-08-13T07:50:19.955Z</time>
      </trkpt>
      <trkpt lat="45.75525473803282" lon="4.613634534180164">
        <ele>758.37</ele>
        <time>2024-08-13T07:50:24.763Z</time>
      </trkpt>
      <trkpt lat="45.754956007003784" lon="4.613463878631592">
        <ele>758.33</ele>
        <time>2024-08-13T07:50:29.576Z</time>
      </trkpt>
      <trkpt lat="45.75434446334839" lon="4.6131956577301025">
        <ele>759.09</ele>
        <time>2024-08-13T07:50:34.399Z</time>
      </trkpt>
      <trkpt lat="45.754183530807495" lon="4.613099098205566">
        <ele>759.62</ele>
        <time>2024-08-13T07:50:39.225Z</time>
      </trkpt>
      <trkpt lat="45.75382947921753" lon="4.612809419631958">
        <ele>760.13</ele>
        <time>2024-08-13T07:50:44.058Z</time>
      </trkpt>
      <trkpt lat="45.75363644398749" lon="4.612594842910767">
        <ele>760.39</ele>
        <time>2024-08-13T07:50:48.894Z</time>
      </trkpt>
      <trkpt lat="45.75363636016846" lon="4.612594842910767">
        <ele>760.31</ele>
        <time>2024-08-13T07:50:53.730Z</time>
      </trkpt>
      <trkpt lat="45.753260934725404" lon="4.612165689468384">
        <ele>760.16</ele>
        <time>2024-08-13T07:50:58.574Z</time>
      </trkpt>
      <trkpt lat="45.75289607048035" lon="4.611736536026001">
        <ele>759.04</ele>
        <time>2024-08-13T07:51:03.426Z</time>
      </trkpt>
      <trkpt lat="45.75264939107001" lon="4.611414670944214">
        <ele>758.1</ele>
        <time>2024-08-13T07:51:08.283Z</time>
      </trkpt>
      <trkpt lat="45.75264930725098" lon="4.611414670944214">
        <ele>757.17</ele>
        <time>2024-08-13T07:51:13.140Z</time>
      </trkpt>
      <trkpt lat="45.75255283154547" lon="4.61125373840332">
        <ele>756.04</ele>
        <time>2024-08-13T07:51:17.999Z</time>
      </trkpt>
      <trkpt lat="45.7523597124964" lon="4.610931873321533">
        <ele>754.75</ele>
        <time>2024-08-13T07:51:22.863Z</time>
      </trkpt>
      <trkpt lat="45.75199484825134" lon="4.61026668548584">
        <ele>752.97</ele>
        <time>2024-08-13T07:51:27.737Z</time>
      </trkpt>
      <trkpt lat="45.75181245803833" lon="4.610041379928589">
        <ele>751.76</ele>
        <time>2024-08-13T07:51:32.615Z</time>
      </trkpt>
      <trkpt lat="45.751715982332826" lon="4.609966278076172">
        <ele>750.75</ele>
        <time>2024-08-13T07:51:37.494Z</time>
      </trkpt>
      <trkpt lat="45.751715898513794" lon="4.609966278076172">
        <ele>749.8</ele>
        <time>2024-08-13T07:51:42.373Z</time>
      </trkpt>
      <trkpt lat="45.75163006782532" lon="4.609912633895874">
        <ele>748.82</ele>
        <time>2024-08-13T07:51:47.254Z</time>
      </trkpt>
      <trkpt lat="45.751447677612305" lon="4.609869718551636">
        <ele>747.88</ele>
        <time>2024-08-13T07:51:52.138Z</time>
      </trkpt>
      <trkpt lat="45.75050354003906" lon="4.609805345535278">
        <ele>746.64</ele>
        <time>2024-08-13T07:51:57.037Z</time>
      </trkpt>
      <trkpt lat="45.74979543685913" lon="4.609730243682861">
        <ele>744.7</ele>
        <time>2024-08-13T07:52:01.947Z</time>
      </trkpt>
      <trkpt lat="45.74954867362976" lon="4.609730243682861">
        <ele>742.9</ele>
        <time>2024-08-13T07:52:06.861Z</time>
      </trkpt>
      <trkpt lat="45.74935555458069" lon="4.60976243019104">
        <ele>740.81</ele>
        <time>2024-08-13T07:52:11.778Z</time>
      </trkpt>
      <trkpt lat="45.74915170669556" lon="4.609891176223755">
        <ele>739.04</ele>
        <time>2024-08-13T07:52:16.699Z</time>
      </trkpt>
      <trkpt lat="45.748937129974365" lon="4.610084295272827">
        <ele>737.48</ele>
        <time>2024-08-13T07:52:21.624Z</time>
      </trkpt>
      <trkpt lat="45.74886211194098" lon="4.610161576420069">
        <ele>736.46</ele>
        <time>2024-08-13T07:52:26.550Z</time>
      </trkpt>
      <trkpt lat="45.74873948469758" lon="4.6102877240628">
        <ele>736.67</ele>
        <time>2024-08-13T07:52:31.479Z</time>
      </trkpt>
      <trkpt lat="45.748739233240485" lon="4.610288059338927">
        <ele>736.68</ele>
        <time>2024-08-13T07:52:36.408Z</time>
      </trkpt>
      <trkpt lat="45.748229026794434" lon="4.610813856124878">
        <ele>737.62</ele>
        <time>2024-08-13T07:52:41.347Z</time>
      </trkpt>
      <trkpt lat="45.74808955192566" lon="4.61100697517395">
        <ele>737.34</ele>
        <time>2024-08-13T07:52:46.289Z</time>
      </trkpt>
      <trkpt lat="45.7478750590235" lon="4.611436128616333">
        <ele>737.34</ele>
        <time>2024-08-13T07:52:51.237Z</time>
      </trkpt>
      <trkpt lat="45.74779987335205" lon="4.611650705337524">
        <ele>737.59</ele>
        <time>2024-08-13T07:52:56.188Z</time>
      </trkpt>
      <trkpt lat="45.747757041826844" lon="4.611554145812988">
        <ele>737.3</ele>
        <time>2024-08-13T07:53:01.140Z</time>
      </trkpt>
      <trkpt lat="45.747681856155396" lon="4.611436128616333">
        <ele>736.72</ele>
        <time>2024-08-13T07:53:06.094Z</time>
      </trkpt>
      <trkpt lat="45.74763894081116" lon="4.611371755599976">
        <ele>735.88</ele>
        <time>2024-08-13T07:53:11.049Z</time>
      </trkpt>
      <trkpt lat="45.74759602546692" lon="4.611307382583618">
        <ele>734.76</ele>
        <time>2024-08-13T07:53:16.005Z</time>
      </trkpt>
      <trkpt lat="45.74748873710632" lon="4.611221551895142">
        <ele>733.48</ele>
        <time>2024-08-13T07:53:20.963Z</time>
      </trkpt>
      <trkpt lat="45.746705532073975" lon="4.610352516174316">
        <ele>731.59</ele>
        <time>2024-08-13T07:53:25.937Z</time>
      </trkpt>
      <trkpt lat="45.74639439582825" lon="4.6098268032073975">
        <ele>729.36</ele>
        <time>2024-08-13T07:53:30.918Z</time>
      </trkpt>
      <trkpt lat="45.74608325958252" lon="4.609193801879883">
        <ele>727.4</ele>
        <time>2024-08-13T07:53:35.908Z</time>
      </trkpt>
      <trkpt lat="45.74601888656616" lon="4.608947038650513">
        <ele>725.12</ele>
        <time>2024-08-13T07:53:40.901Z</time>
      </trkpt>
      <trkpt lat="45.745933055877686" lon="4.608635902404785">
        <ele>722.73</ele>
        <time>2024-08-13T07:53:45.898Z</time>
      </trkpt>
      <trkpt lat="45.74583649635315" lon="4.608099460601807">
        <ele>719.44</ele>
        <time>2024-08-13T07:53:50.901Z</time>
      </trkpt>
      <trkpt lat="45.745718479156494" lon="4.607144594192505">
        <ele>716.09</ele>
        <time>2024-08-13T07:53:55.915Z</time>
      </trkpt>
      <trkpt lat="45.74562191963196" lon="4.606661796569824">
        <ele>713.01</ele>
        <time>2024-08-13T07:54:00.934Z</time>
      </trkpt>
      <trkpt lat="45.74498891830444" lon="4.60500955581665">
        <ele>709.56</ele>
        <time>2024-08-13T07:54:05.974Z</time>
      </trkpt>
      <trkpt lat="45.74413061141968" lon="4.603207111358643">
        <ele>706.85</ele>
        <time>2024-08-13T07:54:11.039Z</time>
      </trkpt>
      <trkpt lat="45.74408769607544" lon="4.603003263473511">
        <ele>704.41</ele>
        <time>2024-08-13T07:54:16.106Z</time>
      </trkpt>
      <trkpt lat="45.74410915374756" lon="4.602842330932617">
        <ele>701.78</ele>
        <time>2024-08-13T07:54:21.175Z</time>
      </trkpt>
      <trkpt lat="45.744452476501465" lon="4.602338075637817">
        <ele>697.61</ele>
        <time>2024-08-13T07:54:26.252Z</time>
      </trkpt>
      <trkpt lat="45.744720697402954" lon="4.601705074310303">
        <ele>694.33</ele>
        <time>2024-08-13T07:54:31.337Z</time>
      </trkpt>
      <trkpt lat="45.74481725692749" lon="4.601576328277588">
        <ele>691.02</ele>
        <time>2024-08-13T07:54:36.424Z</time>
      </trkpt>
      <trkpt lat="45.74481734074652" lon="4.601576328277588">
        <ele>687.85</ele>
        <time>2024-08-13T07:54:41.511Z</time>
      </trkpt>
      <trkpt lat="45.74501037597656" lon="4.601447582244873">
        <ele>684.04</ele>
        <time>2024-08-13T07:54:46.602Z</time>
      </trkpt>
      <trkpt lat="45.745182037353516" lon="4.601233005523682">
        <ele>680.53</ele>
        <time>2024-08-13T07:54:51.696Z</time>
      </trkpt>
      <trkpt lat="45.74538588523865" lon="4.600889682769775">
        <ele>676.89</ele>
        <time>2024-08-13T07:54:56.795Z</time>
      </trkpt>
      <trkpt lat="45.74567564763129" lon="4.600160121917725">
        <ele>672.98</ele>
        <time>2024-08-13T07:55:01.904Z</time>
      </trkpt>
      <trkpt lat="45.74602969922125" lon="4.59928035736084">
        <ele>669.87</ele>
        <time>2024-08-13T07:55:07.024Z</time>
      </trkpt>
      <trkpt lat="45.74625492095947" lon="4.598701000213623">
        <ele>666.95</ele>
        <time>2024-08-13T07:55:12.152Z</time>
      </trkpt>
      <trkpt lat="45.74640512466431" lon="4.598143100738525">
        <ele>663.78</ele>
        <time>2024-08-13T07:55:17.286Z</time>
      </trkpt>
      <trkpt lat="45.746437311172485" lon="4.597681760787964">
        <ele>661.02</ele>
        <time>2024-08-13T07:55:22.426Z</time>
      </trkpt>
      <trkpt lat="45.74636220932007" lon="4.597327709197998">
        <ele>658.92</ele>
        <time>2024-08-13T07:55:27.570Z</time>
      </trkpt>
      <trkpt lat="45.746201276779175" lon="4.59702730178833">
        <ele>657.21</ele>
        <time>2024-08-13T07:55:32.718Z</time>
      </trkpt>
      <trkpt lat="45.74598670005798" lon="4.596801996231079">
        <ele>655.9</ele>
        <time>2024-08-13T07:55:37.870Z</time>
      </trkpt>
      <trkpt lat="45.74583649635315" lon="4.596748352050781">
        <ele>655.25</ele>
        <time>2024-08-13T07:55:43.025Z</time>
      </trkpt>
      <trkpt lat="45.74549317359924" lon="4.596726894378662">
        <ele>655.21</ele>
        <time>2024-08-13T07:55:48.185Z</time>
      </trkpt>
      <trkpt lat="45.745439529418945" lon="4.596705436706543">
        <ele>654.74</ele>
        <time>2024-08-13T07:55:53.346Z</time>
      </trkpt>
      <trkpt lat="45.74538588523865" lon="4.596683979034424">
        <ele>654.22</ele>
        <time>2024-08-13T07:55:58.508Z</time>
      </trkpt>
      <trkpt lat="45.74532151222229" lon="4.596501588821411">
        <ele>653.44</ele>
        <time>2024-08-13T07:56:03.672Z</time>
      </trkpt>
      <trkpt lat="45.74532151222229" lon="4.596190452575684">
        <ele>652.31</ele>
        <time>2024-08-13T07:56:08.840Z</time>
      </trkpt>
      <trkpt lat="45.745471715927124" lon="4.595364332199097">
        <ele>651.11</ele>
        <time>2024-08-13T07:56:14.017Z</time>
      </trkpt>
      <trkpt lat="45.74554824270308" lon="4.595153778791428">
        <ele>651.0</ele>
        <time>2024-08-13T07:56:19.197Z</time>
      </trkpt>
      <trkpt lat="45.74561798013747" lon="4.594961833208799">
        <ele>650.02</ele>
        <time>2024-08-13T07:56:24.379Z</time>
      </trkpt>
      <trkpt lat="45.74561814777553" lon="4.594961581751704">
        <ele>650.02</ele>
        <time>2024-08-13T07:56:29.561Z</time>
      </trkpt>
      <trkpt lat="45.74564337730408" lon="4.594892263412476">
        <ele>649.67</ele>
        <time>2024-08-13T07:56:34.744Z</time>
      </trkpt>
      <trkpt lat="45.74584722518921" lon="4.594613313674927">
        <ele>647.41</ele>
        <time>2024-08-13T07:56:39.932Z</time>
      </trkpt>
      <trkpt lat="45.74635148048401" lon="4.594237804412842">
        <ele>643.2</ele>
        <time>2024-08-13T07:56:45.129Z</time>
      </trkpt>
      <trkpt lat="45.74649095535278" lon="4.593991041183472">
        <ele>639.93</ele>
        <time>2024-08-13T07:56:50.329Z</time>
      </trkpt>
      <trkpt lat="45.746694803237915" lon="4.59352970123291">
        <ele>636.84</ele>
        <time>2024-08-13T07:56:55.536Z</time>
      </trkpt>
      <trkpt lat="45.74684500694275" lon="4.593315124511719">
        <ele>633.47</ele>
        <time>2024-08-13T07:57:00.746Z</time>
      </trkpt>
      <trkpt lat="45.74711322784424" lon="4.592982530593872">
        <ele>629.45</ele>
        <time>2024-08-13T07:57:05.962Z</time>
      </trkpt>
      <trkpt lat="45.74725270271301" lon="4.592703580856323">
        <ele>626.04</ele>
        <time>2024-08-13T07:57:11.181Z</time>
      </trkpt>
      <trkpt lat="45.74731707572937" lon="4.592403173446655">
        <ele>623.0</ele>
        <time>2024-08-13T07:57:16.404Z</time>
      </trkpt>
      <trkpt lat="45.747231245040894" lon="4.590611457824707">
        <ele>620.19</ele>
        <time>2024-08-13T07:57:21.647Z</time>
      </trkpt>
      <trkpt lat="45.74727416038513" lon="4.590214490890503">
        <ele>617.76</ele>
        <time>2024-08-13T07:57:26.895Z</time>
      </trkpt>
      <trkpt lat="45.74739217758179" lon="4.589881896972656">
        <ele>615.37</ele>
        <time>2024-08-13T07:57:32.147Z</time>
      </trkpt>
      <trkpt lat="45.74758529663086" lon="4.589720964431763">
        <ele>612.7</ele>
        <time>2024-08-13T07:57:37.402Z</time>
      </trkpt>
      <trkpt lat="45.74790716171265" lon="4.589688777923584">
        <ele>609.15</ele>
        <time>2024-08-13T07:57:42.663Z</time>
      </trkpt>
      <trkpt lat="45.74801445007324" lon="4.589645862579346">
        <ele>606.42</ele>
        <time>2024-08-13T07:57:47.925Z</time>
      </trkpt>
      <trkpt lat="45.7481324672699" lon="4.589442014694214">
        <ele>604.34</ele>
        <time>2024-08-13T07:57:53.190Z</time>
      </trkpt>
      <trkpt lat="45.74828267097473" lon="4.589334726333618">
        <ele>602.08</ele>
        <time>2024-08-13T07:57:58.458Z</time>
      </trkpt>
      <trkpt lat="45.748711824417114" lon="4.589409828186035">
        <ele>599.11</ele>
        <time>2024-08-13T07:58:03.733Z</time>
      </trkpt>
      <trkpt lat="45.74886202812195" lon="4.589495658874512">
        <ele>596.49</ele>
        <time>2024-08-13T07:58:09.010Z</time>
      </trkpt>
      <trkpt lat="45.74886211194098" lon="4.589495658874512">
        <ele>594.37</ele>
        <time>2024-08-13T07:58:14.287Z</time>
      </trkpt>
      <trkpt lat="45.74925899505615" lon="4.589731693267822">
        <ele>591.48</ele>
        <time>2024-08-13T07:58:19.571Z</time>
      </trkpt>
      <trkpt lat="45.749259078875184" lon="4.589731693267822">
        <ele>589.56</ele>
        <time>2024-08-13T07:58:24.855Z</time>
      </trkpt>
      <trkpt lat="45.74957021512091" lon="4.589914083480835">
        <ele>587.37</ele>
        <time>2024-08-13T07:58:30.145Z</time>
      </trkpt>
      <trkpt lat="45.749688148498535" lon="4.589935541152954">
        <ele>585.77</ele>
        <time>2024-08-13T07:58:35.437Z</time>
      </trkpt>
      <trkpt lat="45.74968823231757" lon="4.589935541152954">
        <ele>584.32</ele>
        <time>2024-08-13T07:58:40.729Z</time>
      </trkpt>
      <trkpt lat="45.74977397918701" lon="4.589967727661133">
        <ele>582.91</ele>
        <time>2024-08-13T07:58:46.022Z</time>
      </trkpt>
      <trkpt lat="45.749934911727905" lon="4.589881896972656">
        <ele>581.7</ele>
        <time>2024-08-13T07:58:51.318Z</time>
      </trkpt>
      <trkpt lat="45.7500422000885" lon="4.589688777923584">
        <ele>580.61</ele>
        <time>2024-08-13T07:58:56.617Z</time>
      </trkpt>
      <trkpt lat="45.75007438659668" lon="4.589409828186035">
        <ele>579.03</ele>
        <time>2024-08-13T07:59:01.919Z</time>
      </trkpt>
      <trkpt lat="45.75006365776062" lon="4.589248895645142">
        <ele>577.44</ele>
        <time>2024-08-13T07:59:07.223Z</time>
      </trkpt>
      <trkpt lat="45.74989199638367" lon="4.5886266231536865">
        <ele>575.62</ele>
        <time>2024-08-13T07:59:12.534Z</time>
      </trkpt>
      <trkpt lat="45.749924182891846" lon="4.588229656219482">
        <ele>573.9</ele>
        <time>2024-08-13T07:59:17.850Z</time>
      </trkpt>
      <trkpt lat="45.75004228390753" lon="4.587671756744385">
        <ele>571.34</ele>
        <time>2024-08-13T07:59:23.172Z</time>
      </trkpt>
      <trkpt lat="45.75023531913757" lon="4.586598873138428">
        <ele>568.89</ele>
        <time>2024-08-13T07:59:28.506Z</time>
      </trkpt>
      <trkpt lat="45.75035333633423" lon="4.586437940597534">
        <ele>566.45</ele>
        <time>2024-08-13T07:59:33.843Z</time>
      </trkpt>
      <trkpt lat="45.7506000995636" lon="4.586094617843628">
        <ele>563.59</ele>
        <time>2024-08-13T07:59:39.186Z</time>
      </trkpt>
      <trkpt lat="45.750707387924194" lon="4.585697650909424">
        <ele>561.01</ele>
        <time>2024-08-13T07:59:44.533Z</time>
      </trkpt>
      <trkpt lat="45.75077176094055" lon="4.585214853286743">
        <ele>558.08</ele>
        <time>2024-08-13T07:59:49.886Z</time>
      </trkpt>
      <trkpt lat="45.75077184475958" lon="4.585214853286743">
        <ele>555.2</ele>
        <time>2024-08-13T07:59:55.239Z</time>
      </trkpt>
      <trkpt lat="45.75079321861267" lon="4.585064649581909">
        <ele>551.89</ele>
        <time>2024-08-13T08:00:00.594Z</time>
      </trkpt>
      <trkpt lat="45.750975608825684" lon="4.584152698516846">
        <ele>547.7</ele>
        <time>2024-08-13T08:00:05.959Z</time>
      </trkpt>
      <trkpt lat="45.751018607988954" lon="4.584002494812012">
        <ele>543.96</ele>
        <time>2024-08-13T08:00:11.326Z</time>
      </trkpt>
      <trkpt lat="45.75113654136658" lon="4.583637714385986">
        <ele>539.83</ele>
        <time>2024-08-13T08:00:16.698Z</time>
      </trkpt>
      <trkpt lat="45.75113662518561" lon="4.583262205123901">
        <ele>535.31</ele>
        <time>2024-08-13T08:00:22.074Z</time>
      </trkpt>
      <trkpt lat="45.75101852416992" lon="4.581996202468872">
        <ele>529.71</ele>
        <time>2024-08-13T08:00:27.464Z</time>
      </trkpt>
      <trkpt lat="45.750911235809326" lon="4.581427574157715">
        <ele>524.66</ele>
        <time>2024-08-13T08:00:32.861Z</time>
      </trkpt>
      <trkpt lat="45.750685930252075" lon="4.580504894256592">
        <ele>519.25</ele>
        <time>2024-08-13T08:00:38.269Z</time>
      </trkpt>
      <trkpt lat="45.75038552284241" lon="4.579646587371826">
        <ele>513.84</ele>
        <time>2024-08-13T08:00:43.687Z</time>
      </trkpt>
      <trkpt lat="45.74958086013794" lon="4.577479362487793">
        <ele>507.88</ele>
        <time>2024-08-13T08:00:49.133Z</time>
      </trkpt>
      <trkpt lat="45.74881911277771" lon="4.576224088668823">
        <ele>502.42</ele>
        <time>2024-08-13T08:00:54.597Z</time>
      </trkpt>
      <trkpt lat="45.748432874679565" lon="4.575376510620117">
        <ele>497.74</ele>
        <time>2024-08-13T08:01:00.073Z</time>
      </trkpt>
      <trkpt lat="45.74836858548224" lon="4.575172662734985">
        <ele>493.94</ele>
        <time>2024-08-13T08:01:05.551Z</time>
      </trkpt>
      <trkpt lat="45.74814319610596" lon="4.574464559555054">
        <ele>490.07</ele>
        <time>2024-08-13T08:01:11.038Z</time>
      </trkpt>
      <trkpt lat="45.747917890548706" lon="4.573638439178467">
        <ele>486.46</ele>
        <time>2024-08-13T08:01:16.535Z</time>
      </trkpt>
      <trkpt lat="45.74777841567993" lon="4.57306981086731">
        <ele>483.54</ele>
        <time>2024-08-13T08:01:22.039Z</time>
      </trkpt>
      <trkpt lat="45.747714042663574" lon="4.572855234146118">
        <ele>481.2</ele>
        <time>2024-08-13T08:01:27.545Z</time>
      </trkpt>
      <trkpt lat="45.74765377677977" lon="4.572794968262315">
        <ele>479.11</ele>
        <time>2024-08-13T08:01:33.052Z</time>
      </trkpt>
      <trkpt lat="45.7476282119751" lon="4.572769403457642">
        <ele>480.05</ele>
        <time>2024-08-13T08:01:38.560Z</time>
      </trkpt>
      <trkpt lat="45.74753173626959" lon="4.572758674621582">
        <ele>478.8</ele>
        <time>2024-08-13T08:01:44.070Z</time>
      </trkpt>
      <trkpt lat="45.74751212261617" lon="4.572775354608893">
        <ele>478.39</ele>
        <time>2024-08-13T08:01:49.580Z</time>
      </trkpt>
      <trkpt lat="45.74751170352101" lon="4.572775773704052">
        <ele>478.39</ele>
        <time>2024-08-13T08:01:55.090Z</time>
      </trkpt>
      <trkpt lat="45.747456550598145" lon="4.5728230476379395">
        <ele>477.27</ele>
        <time>2024-08-13T08:02:00.601Z</time>
      </trkpt>
      <trkpt lat="45.747424364089966" lon="4.572973251342773">
        <ele>475.78</ele>
        <time>2024-08-13T08:02:06.114Z</time>
      </trkpt>
      <trkpt lat="45.747435092926025" lon="4.573144912719727">
        <ele>474.57</ele>
        <time>2024-08-13T08:02:11.629Z</time>
      </trkpt>
      <trkpt lat="45.7476282119751" lon="4.573960304260254">
        <ele>473.76</ele>
        <time>2024-08-13T08:02:17.153Z</time>
      </trkpt>
      <trkpt lat="45.74773550033569" lon="4.574571847915649">
        <ele>472.44</ele>
        <time>2024-08-13T08:02:22.684Z</time>
      </trkpt>
      <trkpt lat="45.74812173843384" lon="4.576438665390015">
        <ele>470.2</ele>
        <time>2024-08-13T08:02:28.237Z</time>
      </trkpt>
      <trkpt lat="45.74834704399109" lon="4.577329158782959">
        <ele>468.59</ele>
        <time>2024-08-13T08:02:33.801Z</time>
      </trkpt>
      <trkpt lat="45.748454332351685" lon="4.57780122756958">
        <ele>467.11</ele>
        <time>2024-08-13T08:02:39.370Z</time>
      </trkpt>
      <trkpt lat="45.748443603515625" lon="4.578005075454712">
        <ele>465.62</ele>
        <time>2024-08-13T08:02:44.942Z</time>
      </trkpt>
      <trkpt lat="45.74838995933533" lon="4.578133821487427">
        <ele>463.98</ele>
        <time>2024-08-13T08:02:50.515Z</time>
      </trkpt>
      <trkpt lat="45.74831485748291" lon="4.578208923339844">
        <ele>462.19</ele>
        <time>2024-08-13T08:02:56.090Z</time>
      </trkpt>
      <trkpt lat="45.748175382614136" lon="4.578187465667725">
        <ele>460.05</ele>
        <time>2024-08-13T08:03:01.667Z</time>
      </trkpt>
      <trkpt lat="45.74803590774536" lon="4.578026533126831">
        <ele>457.5</ele>
        <time>2024-08-13T08:03:07.247Z</time>
      </trkpt>
      <trkpt lat="45.74760675430298" lon="4.577436447143555">
        <ele>454.69</ele>
        <time>2024-08-13T08:03:12.836Z</time>
      </trkpt>
      <trkpt lat="45.74725270271301" lon="4.576749801635742">
        <ele>450.98</ele>
        <time>2024-08-13T08:03:18.435Z</time>
      </trkpt>
      <trkpt lat="45.74699521064758" lon="4.576395750045776">
        <ele>447.42</ele>
        <time>2024-08-13T08:03:24.040Z</time>
      </trkpt>
      <trkpt lat="45.74626564979553" lon="4.57554817199707">
        <ele>443.9</ele>
        <time>2024-08-13T08:03:29.660Z</time>
      </trkpt>
      <trkpt lat="45.746265733614564" lon="4.57554817199707">
        <ele>440.95</ele>
        <time>2024-08-13T08:03:35.280Z</time>
      </trkpt>
      <trkpt lat="45.74605107307434" lon="4.575129747390747">
        <ele>437.86</ele>
        <time>2024-08-13T08:03:40.906Z</time>
      </trkpt>
      <trkpt lat="45.74583649635315" lon="4.5748186111450195">
        <ele>435.14</ele>
        <time>2024-08-13T08:03:46.536Z</time>
      </trkpt>
      <trkpt lat="45.745439529418945" lon="4.574346542358398">
        <ele>432.08</ele>
        <time>2024-08-13T08:03:52.175Z</time>
      </trkpt>
      <trkpt lat="45.745214223861694" lon="4.573767185211182">
        <ele>428.62</ele>
        <time>2024-08-13T08:03:57.821Z</time>
      </trkpt>
      <trkpt lat="45.7450532913208" lon="4.573498964309692">
        <ele>425.6</ele>
        <time>2024-08-13T08:04:03.471Z</time>
      </trkpt>
      <trkpt lat="45.744688510894775" lon="4.573262929916382">
        <ele>423.32</ele>
        <time>2024-08-13T08:04:09.127Z</time>
      </trkpt>
      <trkpt lat="45.7446026802063" lon="4.573026895523071">
        <ele>420.34</ele>
        <time>2024-08-13T08:04:14.786Z</time>
      </trkpt>
      <trkpt lat="45.74434518814087" lon="4.572125673294067">
        <ele>417.34</ele>
        <time>2024-08-13T08:04:20.456Z</time>
      </trkpt>
      <trkpt lat="45.744205713272095" lon="4.571342468261719">
        <ele>414.0</ele>
        <time>2024-08-13T08:04:26.135Z</time>
      </trkpt>
      <trkpt lat="45.74413061141968" lon="4.571160078048706">
        <ele>411.05</ele>
        <time>2024-08-13T08:04:31.817Z</time>
      </trkpt>
      <trkpt lat="45.743937492370605" lon="4.571106433868408">
        <ele>408.37</ele>
        <time>2024-08-13T08:04:37.502Z</time>
      </trkpt>
      <trkpt lat="45.743701457977295" lon="4.571138620376587">
        <ele>405.87</ele>
        <time>2024-08-13T08:04:43.191Z</time>
      </trkpt>
      <trkpt lat="45.74284315109253" lon="4.571256637573242">
        <ele>403.11</ele>
        <time>2024-08-13T08:04:48.894Z</time>
      </trkpt>
      <trkpt lat="45.742489183321595" lon="4.571288824081421">
        <ele>401.23</ele>
        <time>2024-08-13T08:04:54.602Z</time>
      </trkpt>
      <trkpt lat="45.7421350479126" lon="4.5713210105896">
        <ele>399.48</ele>
        <time>2024-08-13T08:05:00.316Z</time>
      </trkpt>
      <trkpt lat="45.74192055501044" lon="4.571396112442017">
        <ele>398.29</ele>
        <time>2024-08-13T08:05:06.033Z</time>
      </trkpt>
      <trkpt lat="45.74184545315802" lon="4.571417570114136">
        <ele>397.4</ele>
        <time>2024-08-13T08:05:11.752Z</time>
      </trkpt>
      <trkpt lat="45.74166297912598" lon="4.57155704498291">
        <ele>396.85</ele>
        <time>2024-08-13T08:05:17.474Z</time>
      </trkpt>
      <trkpt lat="45.741469860076904" lon="4.571632146835327">
        <ele>396.52</ele>
        <time>2024-08-13T08:05:23.199Z</time>
      </trkpt>
      <trkpt lat="45.74128746986389" lon="4.571664333343506">
        <ele>396.63</ele>
        <time>2024-08-13T08:05:28.927Z</time>
      </trkpt>
      <trkpt lat="45.74124455451965" lon="4.571664333343506">
        <ele>396.67</ele>
        <time>2024-08-13T08:05:34.656Z</time>
      </trkpt>
      <trkpt lat="45.74115872383118" lon="4.571599960327148">
        <ele>396.85</ele>
        <time>2024-08-13T08:05:40.386Z</time>
      </trkpt>
      <trkpt lat="45.74111580848694" lon="4.5714497566223145">
        <ele>396.98</ele>
        <time>2024-08-13T08:05:46.118Z</time>
      </trkpt>
      <trkpt lat="45.741126537323" lon="4.571267366409302">
        <ele>398.33</ele>
        <time>2024-08-13T08:05:51.852Z</time>
      </trkpt>
      <trkpt lat="45.74114036746323" lon="4.57124188542366">
        <ele>398.05</ele>
        <time>2024-08-13T08:05:57.587Z</time>
      </trkpt>
      <trkpt lat="45.74114070273936" lon="4.571241298690438">
        <ele>398.05</ele>
        <time>2024-08-13T08:06:03.322Z</time>
      </trkpt>
      <trkpt lat="45.741190910339355" lon="4.5711493492126465">
        <ele>397.1</ele>
        <time>2024-08-13T08:06:09.058Z</time>
      </trkpt>
      <trkpt lat="45.74140548706055" lon="4.570913314819336">
        <ele>395.68</ele>
        <time>2024-08-13T08:06:14.798Z</time>
      </trkpt>
      <trkpt lat="45.741459215059876" lon="4.570859670639038">
        <ele>394.54</ele>
        <time>2024-08-13T08:06:20.539Z</time>
      </trkpt>
      <trkpt lat="45.74164152145386" lon="4.570795297622681">
        <ele>393.41</ele>
        <time>2024-08-13T08:06:26.283Z</time>
      </trkpt>
      <trkpt lat="45.74183472432196" lon="4.570730924606323">
        <ele>392.27</ele>
        <time>2024-08-13T08:06:32.030Z</time>
      </trkpt>
      <trkpt lat="45.742027759552" lon="4.5706236362457275">
        <ele>391.1</ele>
        <time>2024-08-13T08:06:37.781Z</time>
      </trkpt>
      <trkpt lat="45.74219950474799" lon="4.570441246032715">
        <ele>390.24</ele>
        <time>2024-08-13T08:06:43.535Z</time>
      </trkpt>
      <trkpt lat="45.74228533543646" lon="4.570387601852417">
        <ele>389.36</ele>
        <time>2024-08-13T08:06:49.291Z</time>
      </trkpt>
      <trkpt lat="45.74234970845282" lon="4.570344686508179">
        <ele>388.63</ele>
        <time>2024-08-13T08:06:55.048Z</time>
      </trkpt>
      <trkpt lat="45.74255347251892" lon="4.570237398147583">
        <ele>387.75</ele>
        <time>2024-08-13T08:07:00.808Z</time>
      </trkpt>
      <trkpt lat="45.74255355633795" lon="4.570237398147583">
        <ele>386.98</ele>
        <time>2024-08-13T08:07:06.568Z</time>
      </trkpt>
      <trkpt lat="45.7426393032074" lon="4.570194482803345">
        <ele>386.13</ele>
        <time>2024-08-13T08:07:12.330Z</time>
      </trkpt>
      <trkpt lat="45.74280023574829" lon="4.570173025131226">
        <ele>385.11</ele>
        <time>2024-08-13T08:07:18.094Z</time>
      </trkpt>
      <trkpt lat="45.743004167452455" lon="4.569990634918213">
        <ele>383.88</ele>
        <time>2024-08-13T08:07:23.862Z</time>
      </trkpt>
      <trkpt lat="45.74314364232123" lon="4.569872617721558">
        <ele>382.74</ele>
        <time>2024-08-13T08:07:29.633Z</time>
      </trkpt>
      <trkpt lat="45.743272388353944" lon="4.5697760581970215">
        <ele>381.65</ele>
        <time>2024-08-13T08:07:35.406Z</time>
      </trkpt>
      <trkpt lat="45.74358344078064" lon="4.569540023803711">
        <ele>380.55</ele>
        <time>2024-08-13T08:07:41.185Z</time>
      </trkpt>
      <trkpt lat="45.744237983599305" lon="4.569132328033447">
        <ele>378.9</ele>
        <time>2024-08-13T08:07:46.975Z</time>
      </trkpt>
      <trkpt lat="45.74435591697693" lon="4.56905722618103">
        <ele>377.62</ele>
        <time>2024-08-13T08:07:52.767Z</time>
      </trkpt>
      <trkpt lat="45.744720781221986" lon="4.5687031745910645">
        <ele>375.93</ele>
        <time>2024-08-13T08:07:58.566Z</time>
      </trkpt>
      <trkpt lat="45.74484944343567" lon="4.56856369972229">
        <ele>374.68</ele>
        <time>2024-08-13T08:08:04.368Z</time>
      </trkpt>
      <trkpt lat="45.7450532913208" lon="4.568338394165039">
        <ele>373.5</ele>
        <time>2024-08-13T08:08:10.174Z</time>
      </trkpt>
      <trkpt lat="45.74511766433716" lon="4.568284749984741">
        <ele>372.25</ele>
        <time>2024-08-13T08:08:15.981Z</time>
      </trkpt>
      <trkpt lat="45.745214223861694" lon="4.568209648132324">
        <ele>370.96</ele>
        <time>2024-08-13T08:08:21.790Z</time>
      </trkpt>
      <trkpt lat="45.74551463127136" lon="4.568166732788086">
        <ele>369.43</ele>
        <time>2024-08-13T08:08:27.604Z</time>
      </trkpt>
      <trkpt lat="45.745664834976196" lon="4.568080902099609">
        <ele>367.91</ele>
        <time>2024-08-13T08:08:33.420Z</time>
      </trkpt>
      <trkpt lat="45.745965242385864" lon="4.567769765853882">
        <ele>366.29</ele>
        <time>2024-08-13T08:08:39.242Z</time>
      </trkpt>
      <trkpt lat="45.74675917625427" lon="4.566793441772461">
        <ele>364.07</ele>
        <time>2024-08-13T08:08:45.081Z</time>
      </trkpt>
      <trkpt lat="45.746759260073304" lon="4.566793441772461">
        <ele>362.48</ele>
        <time>2024-08-13T08:08:50.920Z</time>
      </trkpt>
      <trkpt lat="45.74714541435242" lon="4.566256999969482">
        <ele>360.57</ele>
        <time>2024-08-13T08:08:56.768Z</time>
      </trkpt>
      <trkpt lat="45.74729561805725" lon="4.565892219543457">
        <ele>358.86</ele>
        <time>2024-08-13T08:09:02.620Z</time>
      </trkpt>
      <trkpt lat="45.747435092926025" lon="4.565548896789551">
        <ele>357.15</ele>
        <time>2024-08-13T08:09:08.477Z</time>
      </trkpt>
      <trkpt lat="45.747703313827515" lon="4.564690589904785">
        <ele>355.59</ele>
        <time>2024-08-13T08:09:14.344Z</time>
      </trkpt>
      <trkpt lat="45.74783205986023" lon="4.564594030380249">
        <ele>353.5</ele>
        <time>2024-08-13T08:09:20.214Z</time>
      </trkpt>
      <trkpt lat="45.747939348220825" lon="4.5645081996917725">
        <ele>351.45</ele>
        <time>2024-08-13T08:09:26.086Z</time>
      </trkpt>
      <trkpt lat="45.74829339981079" lon="4.5638322830200195">
        <ele>349.05</ele>
        <time>2024-08-13T08:09:31.967Z</time>
      </trkpt>
      <trkpt lat="45.749505842104554" lon="4.562491178512573">
        <ele>345.83</ele>
        <time>2024-08-13T08:09:37.873Z</time>
      </trkpt>
      <trkpt lat="45.749698877334595" lon="4.5623838901519775">
        <ele>344.19</ele>
        <time>2024-08-13T08:09:43.782Z</time>
      </trkpt>
      <trkpt lat="45.75011730194092" lon="4.562255144119263">
        <ele>342.4</ele>
        <time>2024-08-13T08:09:49.698Z</time>
      </trkpt>
      <trkpt lat="45.75033187866211" lon="4.562126398086548">
        <ele>340.69</ele>
        <time>2024-08-13T08:09:55.618Z</time>
      </trkpt>
      <trkpt lat="45.75078248977661" lon="4.561750888824463">
        <ele>339.06</ele>
        <time>2024-08-13T08:10:01.546Z</time>
      </trkpt>
      <trkpt lat="45.75110443867743" lon="4.561675786972046">
        <ele>337.72</ele>
        <time>2024-08-13T08:10:07.479Z</time>
      </trkpt>
      <trkpt lat="45.7515013217926" lon="4.561665058135986">
        <ele>336.61</ele>
        <time>2024-08-13T08:10:13.419Z</time>
      </trkpt>
      <trkpt lat="45.751683712005615" lon="4.561622142791748">
        <ele>335.29</ele>
        <time>2024-08-13T08:10:19.362Z</time>
      </trkpt>
      <trkpt lat="45.75224161148071" lon="4.561418294906616">
        <ele>333.21</ele>
        <time>2024-08-13T08:10:25.314Z</time>
      </trkpt>
      <trkpt lat="45.75252056121826" lon="4.561353921890259">
        <ele>332.14</ele>
        <time>2024-08-13T08:10:31.270Z</time>
      </trkpt>
      <trkpt lat="45.75322866439819" lon="4.56133246421814">
        <ele>331.11</ele>
        <time>2024-08-13T08:10:37.238Z</time>
      </trkpt>
      <trkpt lat="45.75375437736511" lon="4.561246633529663">
        <ele>329.86</ele>
        <time>2024-08-13T08:10:43.214Z</time>
      </trkpt>
      <trkpt lat="45.75426936149597" lon="4.561192989349365">
        <ele>329.19</ele>
        <time>2024-08-13T08:10:49.198Z</time>
      </trkpt>
      <trkpt lat="45.75448393821716" lon="4.561225175857544">
        <ele>328.87</ele>
        <time>2024-08-13T08:10:55.186Z</time>
      </trkpt>
      <trkpt lat="45.75461276806891" lon="4.561289548873901">
        <ele>328.66</ele>
        <time>2024-08-13T08:11:01.176Z</time>
      </trkpt>
      <trkpt lat="45.754698514938354" lon="4.56133246421814">
        <ele>328.5</ele>
        <time>2024-08-13T08:11:07.167Z</time>
      </trkpt>
      <trkpt lat="45.75522422790527" lon="4.5617616176605225">
        <ele>328.41</ele>
        <time>2024-08-13T08:11:13.168Z</time>
      </trkpt>
      <trkpt lat="45.75557098723948" lon="4.562012990936637">
        <ele>328.23</ele>
        <time>2024-08-13T08:11:19.175Z</time>
      </trkpt>
      <trkpt lat="45.755653381347656" lon="4.56207275390625">
        <ele>324.91</ele>
        <time>2024-08-13T08:11:25.184Z</time>
      </trkpt>
      <trkpt lat="45.755707612261176" lon="4.562102425843477">
        <ele>324.76</ele>
        <time>2024-08-13T08:11:31.194Z</time>
      </trkpt>
      <trkpt lat="45.75702667236328" lon="4.56282377243042">
        <ele>321.13</ele>
        <time>2024-08-13T08:11:37.226Z</time>
      </trkpt>
      <trkpt lat="45.75718768872321" lon="4.562888145446777">
        <ele>318.15</ele>
        <time>2024-08-13T08:11:43.261Z</time>
      </trkpt>
      <trkpt lat="45.758239114657044" lon="4.563156366348267">
        <ele>313.9</ele>
        <time>2024-08-13T08:11:49.313Z</time>
      </trkpt>
      <trkpt lat="45.75823903083801" lon="4.563156366348267">
        <ele>310.96</ele>
        <time>2024-08-13T08:11:55.365Z</time>
      </trkpt>
      <trkpt lat="45.75912952423096" lon="4.56356406211853">
        <ele>307.31</ele>
        <time>2024-08-13T08:12:01.432Z</time>
      </trkpt>
      <trkpt lat="45.75977325439453" lon="4.563746452331543">
        <ele>304.63</ele>
        <time>2024-08-13T08:12:07.510Z</time>
      </trkpt>
      <trkpt lat="45.76008439064026" lon="4.563853740692139">
        <ele>302.41</ele>
        <time>2024-08-13T08:12:13.593Z</time>
      </trkpt>
      <trkpt lat="45.7605242729187" lon="4.564046859741211">
        <ele>299.97</ele>
        <time>2024-08-13T08:12:19.683Z</time>
      </trkpt>
      <trkpt lat="45.76076030731201" lon="4.564121961593628">
        <ele>298.07</ele>
        <time>2024-08-13T08:12:25.777Z</time>
      </trkpt>
      <trkpt lat="45.76186537742615" lon="4.564218521118164">
        <ele>295.65</ele>
        <time>2024-08-13T08:12:31.889Z</time>
      </trkpt>
      <trkpt lat="45.76303482055664" lon="4.564261436462402">
        <ele>294.16</ele>
        <time>2024-08-13T08:12:38.019Z</time>
      </trkpt>
      <trkpt lat="45.763163566589355" lon="4.564304351806641">
        <ele>293.04</ele>
        <time>2024-08-13T08:12:44.152Z</time>
      </trkpt>
      <trkpt lat="45.7634961605072" lon="4.564476013183594">
        <ele>292.13</ele>
        <time>2024-08-13T08:12:50.290Z</time>
      </trkpt>
      <trkpt lat="45.76358199119568" lon="4.564497470855713">
        <ele>291.63</ele>
        <time>2024-08-13T08:12:56.430Z</time>
      </trkpt>
      <trkpt lat="45.76380729675293" lon="4.564465284347534">
        <ele>291.21</ele>
        <time>2024-08-13T08:13:02.573Z</time>
      </trkpt>
      <trkpt lat="45.76433300971985" lon="4.5642077922821045">
        <ele>291.22</ele>
        <time>2024-08-13T08:13:08.725Z</time>
      </trkpt>
      <trkpt lat="45.76448321342468" lon="4.564143419265747">
        <ele>291.68</ele>
        <time>2024-08-13T08:13:14.880Z</time>
      </trkpt>
      <trkpt lat="45.76485872268677" lon="4.563993215560913">
        <ele>292.83</ele>
        <time>2024-08-13T08:13:21.041Z</time>
      </trkpt>
      <trkpt lat="45.764901638031006" lon="4.563950300216675">
        <ele>293.69</ele>
        <time>2024-08-13T08:13:27.203Z</time>
      </trkpt>
      <trkpt lat="45.764955366030335" lon="4.563864469528198">
        <ele>294.7</ele>
        <time>2024-08-13T08:13:33.366Z</time>
      </trkpt>
      <trkpt lat="45.76537370681763" lon="4.5640575885772705">
        <ele>295.28</ele>
        <time>2024-08-13T08:13:39.536Z</time>
      </trkpt>
      <trkpt lat="45.76558828353882" lon="4.564239978790283">
        <ele>295.91</ele>
        <time>2024-08-13T08:13:45.710Z</time>
      </trkpt>
      <trkpt lat="45.766156911849976" lon="4.5648193359375">
        <ele>296.38</ele>
        <time>2024-08-13T08:13:51.895Z</time>
      </trkpt>
      <trkpt lat="45.76685437001288" lon="4.565227031707764">
        <ele>296.7</ele>
        <time>2024-08-13T08:13:58.092Z</time>
      </trkpt>
      <trkpt lat="45.7670795917511" lon="4.565387964248657">
        <ele>296.79</ele>
        <time>2024-08-13T08:14:04.293Z</time>
      </trkpt>
      <trkpt lat="45.767197608947754" lon="4.565548896789551">
        <ele>296.7</ele>
        <time>2024-08-13T08:14:10.497Z</time>
      </trkpt>
      <trkpt lat="45.76732635498047" lon="4.5658063888549805">
        <ele>296.47</ele>
        <time>2024-08-13T08:14:16.704Z</time>
      </trkpt>
      <trkpt lat="45.7675302028656" lon="4.566267728805542">
        <ele>296.03</ele>
        <time>2024-08-13T08:14:22.918Z</time>
      </trkpt>
      <trkpt lat="45.76772332191467" lon="4.5665788650512695">
        <ele>295.57</ele>
        <time>2024-08-13T08:14:29.136Z</time>
      </trkpt>
      <trkpt lat="45.767723405733705" lon="4.5665788650512695">
        <ele>295.04</ele>
        <time>2024-08-13T08:14:35.354Z</time>
      </trkpt>
      <trkpt lat="45.76801300048828" lon="4.567018747329712">
        <ele>294.25</ele>
        <time>2024-08-13T08:14:41.579Z</time>
      </trkpt>
      <trkpt lat="45.768163204193115" lon="4.567147493362427">
        <ele>293.49</ele>
        <time>2024-08-13T08:14:47.807Z</time>
      </trkpt>
      <trkpt lat="45.76861381530762" lon="4.567415714263916">
        <ele>292.68</ele>
        <time>2024-08-13T08:14:54.043Z</time>
      </trkpt>
      <trkpt lat="45.770426988601685" lon="4.568413496017456">
        <ele>291.56</ele>
        <time>2024-08-13T08:15:00.310Z</time>
      </trkpt>
      <trkpt lat="45.771135091781616" lon="4.568681716918945">
        <ele>290.39</ele>
        <time>2024-08-13T08:15:06.588Z</time>
      </trkpt>
      <trkpt lat="45.77113517560065" lon="4.568681716918945">
        <ele>289.55</ele>
        <time>2024-08-13T08:15:12.866Z</time>
      </trkpt>
      <trkpt lat="45.77154278755188" lon="4.568799734115601">
        <ele>288.56</ele>
        <time>2024-08-13T08:15:19.151Z</time>
      </trkpt>
      <trkpt lat="45.771929025650024" lon="4.568831920623779">
        <ele>287.81</ele>
        <time>2024-08-13T08:15:25.442Z</time>
      </trkpt>
      <trkpt lat="45.77255129814148" lon="4.568853378295898">
        <ele>287.18</ele>
        <time>2024-08-13T08:15:31.743Z</time>
      </trkpt>
      <trkpt lat="45.77327013015747" lon="4.568896293640137">
        <ele>286.45</ele>
        <time>2024-08-13T08:15:38.056Z</time>
      </trkpt>
      <trkpt lat="45.77351689338684" lon="4.568874835968018">
        <ele>286.35</ele>
        <time>2024-08-13T08:15:44.373Z</time>
      </trkpt>
      <trkpt lat="45.7737744692713" lon="4.568756818771362">
        <ele>286.3</ele>
        <time>2024-08-13T08:15:50.694Z</time>
      </trkpt>
      <trkpt lat="45.7739782333374" lon="4.568638801574707">
        <ele>286.13</ele>
        <time>2024-08-13T08:15:57.019Z</time>
      </trkpt>
      <trkpt lat="45.77384948730469" lon="4.568263292312622">
        <ele>289.63</ele>
        <time>2024-08-13T08:16:03.348Z</time>
      </trkpt>
      <trkpt lat="45.773710096254945" lon="4.56807017326355">
        <ele>291.32</ele>
        <time>2024-08-13T08:16:09.680Z</time>
      </trkpt>
      <trkpt lat="45.77323794364929" lon="4.567769765853882">
        <ele>293.79</ele>
        <time>2024-08-13T08:16:16.021Z</time>
      </trkpt>
      <trkpt lat="45.773162841796875" lon="4.567662477493286">
        <ele>295.85</ele>
        <time>2024-08-13T08:16:22.363Z</time>
      </trkpt>
      <trkpt lat="45.773152112960815" lon="4.567544460296631">
        <ele>297.64</ele>
        <time>2024-08-13T08:16:28.707Z</time>
      </trkpt>
      <trkpt lat="45.77303409576416" lon="4.567544460296631">
        <ele>299.88</ele>
        <time>2024-08-13T08:16:35.053Z</time>
      </trkpt>
      <trkpt lat="45.772894620895386" lon="4.567437171936035">
        <ele>302.33</ele>
        <time>2024-08-13T08:16:41.401Z</time>
      </trkpt>
      <trkpt lat="45.772658586502075" lon="4.566525220870972">
        <ele>304.28</ele>
        <time>2024-08-13T08:16:47.760Z</time>
      </trkpt>
      <trkpt lat="45.77222943305969" lon="4.5658278465271">
        <ele>306.5</ele>
        <time>2024-08-13T08:16:54.129Z</time>
      </trkpt>
      <trkpt lat="45.77207922935486" lon="4.565548896789551">
        <ele>308.66</ele>
        <time>2024-08-13T08:17:00.502Z</time>
      </trkpt>
      <trkpt lat="45.771950483322144" lon="4.565452337265015">
        <ele>310.77</ele>
        <time>2024-08-13T08:17:06.878Z</time>
      </trkpt>
      <trkpt lat="45.7716178894043" lon="4.5652806758880615">
        <ele>313.31</ele>
        <time>2024-08-13T08:17:13.259Z</time>
      </trkpt>
      <trkpt lat="45.77132821083069" lon="4.564969539642334">
        <ele>315.82</ele>
        <time>2024-08-13T08:17:19.646Z</time>
      </trkpt>
      <trkpt lat="45.771167278289795" lon="4.564400911331177">
        <ele>317.91</ele>
        <time>2024-08-13T08:17:26.040Z</time>
      </trkpt>
      <trkpt lat="45.77089914120734" lon="4.563885927200317">
        <ele>320.49</ele>
        <time>2024-08-13T08:17:32.441Z</time>
      </trkpt>
      <trkpt lat="45.770899057388306" lon="4.563885927200317">
        <ele>322.62</ele>
        <time>2024-08-13T08:17:38.842Z</time>
      </trkpt>
      <trkpt lat="45.77078104019165" lon="4.5636820793151855">
        <ele>324.83</ele>
        <time>2024-08-13T08:17:45.246Z</time>
      </trkpt>
      <trkpt lat="45.77070593833923" lon="4.563488960266113">
        <ele>327.02</ele>
        <time>2024-08-13T08:17:51.653Z</time>
      </trkpt>
      <trkpt lat="45.770673751831055" lon="4.563231468200684">
        <ele>329.12</ele>
        <time>2024-08-13T08:17:58.063Z</time>
      </trkpt>
      <trkpt lat="45.770630836486816" lon="4.562512636184692">
        <ele>331.36</ele>
        <time>2024-08-13T08:18:04.481Z</time>
      </trkpt>
      <trkpt lat="45.77052354812622" lon="4.561300277709961">
        <ele>334.6</ele>
        <time>2024-08-13T08:18:10.912Z</time>
      </trkpt>
      <trkpt lat="45.770426988601685" lon="4.560613632202148">
        <ele>337.65</ele>
        <time>2024-08-13T08:18:17.351Z</time>
      </trkpt>
      <trkpt lat="45.77024459838867" lon="4.5600879192352295">
        <ele>340.34</ele>
        <time>2024-08-13T08:18:23.797Z</time>
      </trkpt>
      <trkpt lat="45.7701051235199" lon="4.559465646743774">
        <ele>343.24</ele>
        <time>2024-08-13T08:18:30.250Z</time>
      </trkpt>
      <trkpt lat="45.77007293701172" lon="4.55883264541626">
        <ele>345.58</ele>
        <time>2024-08-13T08:18:36.710Z</time>
      </trkpt>
      <trkpt lat="45.77003010548651" lon="4.558553695678711">
        <ele>348.0</ele>
        <time>2024-08-13T08:18:43.173Z</time>
      </trkpt>
      <trkpt lat="45.769922733306885" lon="4.5576417446136475">
        <ele>350.52</ele>
        <time>2024-08-13T08:18:49.647Z</time>
      </trkpt>
      <trkpt lat="45.769901275634766" lon="4.55707311630249">
        <ele>352.86</ele>
        <time>2024-08-13T08:18:56.127Z</time>
      </trkpt>
      <trkpt lat="45.769718969240785" lon="4.5561933517456055">
        <ele>355.52</ele>
        <time>2024-08-13T08:19:02.617Z</time>
      </trkpt>
      <trkpt lat="45.769633054733276" lon="4.555753469467163">
        <ele>358.01</ele>
        <time>2024-08-13T08:19:09.112Z</time>
      </trkpt>
      <trkpt lat="45.769697427749634" lon="4.555099010467529">
        <ele>360.5</ele>
        <time>2024-08-13T08:19:15.615Z</time>
      </trkpt>
      <trkpt lat="45.76983690261841" lon="4.554262161254883">
        <ele>363.19</ele>
        <time>2024-08-13T08:19:22.127Z</time>
      </trkpt>
      <trkpt lat="45.769944190979004" lon="4.553811550140381">
        <ele>365.58</ele>
        <time>2024-08-13T08:19:28.645Z</time>
      </trkpt>
      <trkpt lat="45.77003002166748" lon="4.55333948135376">
        <ele>368.08</ele>
        <time>2024-08-13T08:19:35.168Z</time>
      </trkpt>
      <trkpt lat="45.77022314071655" lon="4.552556276321411">
        <ele>370.53</ele>
        <time>2024-08-13T08:19:41.701Z</time>
      </trkpt>
      <trkpt lat="45.77026605606079" lon="4.551976919174194">
        <ele>372.83</ele>
        <time>2024-08-13T08:19:48.240Z</time>
      </trkpt>
      <trkpt lat="45.77027678489685" lon="4.55134391784668">
        <ele>374.95</ele>
        <time>2024-08-13T08:19:54.786Z</time>
      </trkpt>
      <trkpt lat="45.77023386955261" lon="4.55108642578125">
        <ele>376.96</ele>
        <time>2024-08-13T08:20:01.335Z</time>
      </trkpt>
      <trkpt lat="45.770137310028076" lon="4.550946950912476">
        <ele>379.02</ele>
        <time>2024-08-13T08:20:07.886Z</time>
      </trkpt>
      <trkpt lat="45.76984763145447" lon="4.550743103027344">
        <ele>381.12</ele>
        <time>2024-08-13T08:20:14.443Z</time>
      </trkpt>
      <trkpt lat="45.76978325843811" lon="4.5506250858306885">
        <ele>383.22</ele>
        <time>2024-08-13T08:20:21.001Z</time>
      </trkpt>
      <trkpt lat="45.76975107192993" lon="4.550410509109497">
        <ele>385.4</ele>
        <time>2024-08-13T08:20:27.562Z</time>
      </trkpt>
      <trkpt lat="45.76974034309387" lon="4.54984188079834">
        <ele>387.85</ele>
        <time>2024-08-13T08:20:34.129Z</time>
      </trkpt>
      <trkpt lat="45.76957949437201" lon="4.549198150634766">
        <ele>390.14</ele>
        <time>2024-08-13T08:20:40.704Z</time>
      </trkpt>
      <trkpt lat="45.76979398727417" lon="4.546998739242554">
        <ele>393.22</ele>
        <time>2024-08-13T08:20:47.304Z</time>
      </trkpt>
      <trkpt lat="45.76984763145447" lon="4.546698331832886">
        <ele>394.99</ele>
        <time>2024-08-13T08:20:53.907Z</time>
      </trkpt>
      <trkpt lat="45.769901275634766" lon="4.546462297439575">
        <ele>396.57</ele>
        <time>2024-08-13T08:21:00.513Z</time>
      </trkpt>
      <trkpt lat="45.770137310028076" lon="4.546033143997192">
        <ele>398.11</ele>
        <time>2024-08-13T08:21:07.125Z</time>
      </trkpt>
      <trkpt lat="45.77034124173224" lon="4.545142650604248">
        <ele>399.41</ele>
        <time>2024-08-13T08:21:13.747Z</time>
      </trkpt>
      <trkpt lat="45.77062010765076" lon="4.5454323291778564">
        <ele>399.72</ele>
        <time>2024-08-13T08:21:20.375Z</time>
      </trkpt>
      <trkpt lat="45.771156549453735" lon="4.545915126800537">
        <ele>399.69</ele>
        <time>2024-08-13T08:21:27.013Z</time>
      </trkpt>
      <trkpt lat="45.77133893966675" lon="4.545925855636597">
        <ele>399.65</ele>
        <time>2024-08-13T08:21:33.654Z</time>
      </trkpt>
      <trkpt lat="45.77148914337158" lon="4.545807838439941">
        <ele>399.45</ele>
        <time>2024-08-13T08:21:40.298Z</time>
      </trkpt>
      <trkpt lat="45.772229516878724" lon="4.5447564125061035">
        <ele>399.06</ele>
        <time>2024-08-13T08:21:46.958Z</time>
      </trkpt>
      <trkpt lat="45.77274441719055" lon="4.543629884719849">
        <ele>399.08</ele>
        <time>2024-08-13T08:21:53.634Z</time>
      </trkpt>
      <trkpt lat="45.772937536239624" lon="4.543243646621704">
        <ele>398.25</ele>
        <time>2024-08-13T08:22:00.315Z</time>
      </trkpt>
      <trkpt lat="45.77299118041992" lon="4.5430076122283936">
        <ele>397.81</ele>
        <time>2024-08-13T08:22:06.999Z</time>
      </trkpt>
      <trkpt lat="45.77301263809204" lon="4.542320966720581">
        <ele>397.45</ele>
        <time>2024-08-13T08:22:13.690Z</time>
      </trkpt>
      <trkpt lat="45.77306628227234" lon="4.542127847671509">
        <ele>396.11</ele>
        <time>2024-08-13T08:22:20.384Z</time>
      </trkpt>
      <trkpt lat="45.773184383288026" lon="4.542042016983032">
        <ele>394.63</ele>
        <time>2024-08-13T08:22:27.080Z</time>
      </trkpt>
      <trkpt lat="45.773184299468994" lon="4.542042016983032">
        <ele>393.96</ele>
        <time>2024-08-13T08:22:33.776Z</time>
      </trkpt>
      <trkpt lat="45.773184383288026" lon="4.542042016983032">
        <ele>384.85</ele>
        <time>2024-08-13T08:22:40.472Z</time>
      </trkpt>
      <trkpt lat="45.77331304550171" lon="4.542042016983032">
        <ele>383.51</ele>
        <time>2024-08-13T08:22:47.170Z</time>
      </trkpt>
      <trkpt lat="45.773420333862305" lon="4.542138576507568">
        <ele>382.04</ele>
        <time>2024-08-13T08:22:53.870Z</time>
      </trkpt>
      <trkpt lat="45.77348470687866" lon="4.5423424243927">
        <ele>380.86</ele>
        <time>2024-08-13T08:23:00.572Z</time>
      </trkpt>
      <trkpt lat="45.77360272407532" lon="4.543404579162598">
        <ele>379.87</ele>
        <time>2024-08-13T08:23:07.286Z</time>
      </trkpt>
      <trkpt lat="45.77360272407532" lon="4.543619155883789">
        <ele>379.14</ele>
        <time>2024-08-13T08:23:14.003Z</time>
      </trkpt>
      <trkpt lat="45.773398876190186" lon="4.544219970703125">
        <ele>378.61</ele>
        <time>2024-08-13T08:23:20.727Z</time>
      </trkpt>
      <trkpt lat="45.773388147354126" lon="4.544541835784912">
        <ele>378.61</ele>
        <time>2024-08-13T08:23:27.455Z</time>
      </trkpt>
      <trkpt lat="45.773656368255615" lon="4.546161890029907">
        <ele>378.91</ele>
        <time>2024-08-13T08:23:34.202Z</time>
      </trkpt>
      <trkpt lat="45.773892402648926" lon="4.546666145324707">
        <ele>379.93</ele>
        <time>2024-08-13T08:23:40.955Z</time>
      </trkpt>
      <trkpt lat="45.77384948730469" lon="4.546880722045898">
        <ele>380.67</ele>
        <time>2024-08-13T08:23:47.711Z</time>
      </trkpt>
      <trkpt lat="45.77371001243591" lon="4.547052383422852">
        <ele>381.45</ele>
        <time>2024-08-13T08:23:54.470Z</time>
      </trkpt>
      <trkpt lat="45.77359199523926" lon="4.547256231307983">
        <ele>382.2</ele>
        <time>2024-08-13T08:24:01.232Z</time>
      </trkpt>
      <trkpt lat="45.77349543571472" lon="4.547535181045532">
        <ele>383.11</ele>
        <time>2024-08-13T08:24:07.997Z</time>
      </trkpt>
      <trkpt lat="45.77346324920654" lon="4.5478034019470215">
        <ele>384.06</ele>
        <time>2024-08-13T08:24:14.765Z</time>
      </trkpt>
      <trkpt lat="45.77346324920654" lon="4.547942876815796">
        <ele>385.13</ele>
        <time>2024-08-13T08:24:21.535Z</time>
      </trkpt>
      <trkpt lat="45.77349543571472" lon="4.548307657241821">
        <ele>386.33</ele>
        <time>2024-08-13T08:24:28.309Z</time>
      </trkpt>
      <trkpt lat="45.77360272407532" lon="4.548468589782715">
        <ele>387.79</ele>
        <time>2024-08-13T08:24:35.085Z</time>
      </trkpt>
      <trkpt lat="45.77373147010803" lon="4.548543691635132">
        <ele>389.51</ele>
        <time>2024-08-13T08:24:41.864Z</time>
      </trkpt>
      <trkpt lat="45.77505111694336" lon="4.54883337020874">
        <ele>392.76</ele>
        <time>2024-08-13T08:24:48.664Z</time>
      </trkpt>
      <trkpt lat="45.775169134140015" lon="4.548972845077515">
        <ele>394.93</ele>
        <time>2024-08-13T08:24:55.467Z</time>
      </trkpt>
      <trkpt lat="45.77520132064819" lon="4.549198150634766">
        <ele>396.95</ele>
        <time>2024-08-13T08:25:02.272Z</time>
      </trkpt>
      <trkpt lat="45.775190591812134" lon="4.549305438995361">
        <ele>398.92</ele>
        <time>2024-08-13T08:25:09.078Z</time>
      </trkpt>
      <trkpt lat="45.775147676467896" lon="4.549423456192017">
        <ele>400.68</ele>
        <time>2024-08-13T08:25:15.886Z</time>
      </trkpt>
      <trkpt lat="45.774879455566406" lon="4.549852609634399">
        <ele>402.34</ele>
        <time>2024-08-13T08:25:22.700Z</time>
      </trkpt>
      <trkpt lat="45.77478289604187" lon="4.5500993728637695">
        <ele>403.97</ele>
        <time>2024-08-13T08:25:29.517Z</time>
      </trkpt>
      <trkpt lat="45.77478289604187" lon="4.550313949584961">
        <ele>405.63</ele>
        <time>2024-08-13T08:25:36.337Z</time>
      </trkpt>
      <trkpt lat="45.77496528625488" lon="4.550946950912476">
        <ele>407.63</ele>
        <time>2024-08-13T08:25:43.164Z</time>
      </trkpt>
      <trkpt lat="45.77500820159912" lon="4.551043510437012">
        <ele>409.04</ele>
        <time>2024-08-13T08:25:49.993Z</time>
      </trkpt>
      <trkpt lat="45.77504047192633" lon="4.551118612289429">
        <ele>410.3</ele>
        <time>2024-08-13T08:25:56.823Z</time>
      </trkpt>
      <trkpt lat="45.77521204948425" lon="4.5515477657318115">
        <ele>411.39</ele>
        <time>2024-08-13T08:26:03.658Z</time>
      </trkpt>
      <trkpt lat="45.77544808387756" lon="4.551987648010254">
        <ele>412.38</ele>
        <time>2024-08-13T08:26:10.499Z</time>
      </trkpt>
      <trkpt lat="45.77555545605719" lon="4.55209493637085">
        <ele>413.3</ele>
        <time>2024-08-13T08:26:17.343Z</time>
      </trkpt>
      <trkpt lat="45.775641202926636" lon="4.552180767059326">
        <ele>414.13</ele>
        <time>2024-08-13T08:26:24.188Z</time>
      </trkpt>
      <trkpt lat="45.77573776245117" lon="4.551987648010254">
        <ele>414.9</ele>
        <time>2024-08-13T08:26:31.036Z</time>
      </trkpt>
      <trkpt lat="45.77578076161444" lon="4.551794528961182">
        <ele>415.61</ele>
        <time>2024-08-13T08:26:37.886Z</time>
      </trkpt>
      <trkpt lat="45.775920236483216" lon="4.551129341125488">
        <ele>416.47</ele>
        <time>2024-08-13T08:26:44.744Z</time>
      </trkpt>
      <trkpt lat="45.775952422991395" lon="4.550957679748535">
        <ele>417.0</ele>
        <time>2024-08-13T08:26:51.604Z</time>
      </trkpt>
      <trkpt lat="45.77630647458136" lon="4.549809694290161">
        <ele>416.99</ele>
        <time>2024-08-13T08:26:58.478Z</time>
      </trkpt>
      <trkpt lat="45.776413679122925" lon="4.5494771003723145">
        <ele>417.4</ele>
        <time>2024-08-13T08:27:05.356Z</time>
      </trkpt>
      <trkpt lat="45.77648886479437" lon="4.549219608306885">
        <ele>417.87</ele>
        <time>2024-08-13T08:27:12.237Z</time>
      </trkpt>
      <trkpt lat="45.77652096748352" lon="4.549069404602051">
        <ele>418.24</ele>
        <time>2024-08-13T08:27:19.120Z</time>
      </trkpt>
      <trkpt lat="45.776638984680176" lon="4.548747539520264">
        <ele>418.63</ele>
        <time>2024-08-13T08:27:26.007Z</time>
      </trkpt>
      <trkpt lat="45.77684283256531" lon="4.548479318618774">
        <ele>418.99</ele>
        <time>2024-08-13T08:27:32.898Z</time>
      </trkpt>
      <trkpt lat="45.7771110534668" lon="4.548211097717285">
        <ele>419.22</ele>
        <time>2024-08-13T08:27:39.795Z</time>
      </trkpt>
      <trkpt lat="45.777432918548584" lon="4.547975063323975">
        <ele>419.47</ele>
        <time>2024-08-13T08:27:46.698Z</time>
      </trkpt>
      <trkpt lat="45.77798008918762" lon="4.5476531982421875">
        <ele>419.73</ele>
        <time>2024-08-13T08:27:53.610Z</time>
      </trkpt>
      <trkpt lat="45.77826976776123" lon="4.547524452209473">
        <ele>420.04</ele>
        <time>2024-08-13T08:28:00.527Z</time>
      </trkpt>
      <trkpt lat="45.77845215797424" lon="4.547492265701294">
        <ele>420.27</ele>
        <time>2024-08-13T08:28:07.447Z</time>
      </trkpt>
      <trkpt lat="45.779224717989564" lon="4.547470808029175">
        <ele>420.63</ele>
        <time>2024-08-13T08:28:14.379Z</time>
      </trkpt>
      <trkpt lat="45.779396295547485" lon="4.547524452209473">
        <ele>420.81</ele>
        <time>2024-08-13T08:28:21.314Z</time>
      </trkpt>
      <trkpt lat="45.7795250415802" lon="4.547621011734009">
        <ele>420.92</ele>
        <time>2024-08-13T08:28:28.251Z</time>
      </trkpt>
      <trkpt lat="45.77976107597351" lon="4.5478785037994385">
        <ele>420.91</ele>
        <time>2024-08-13T08:28:35.193Z</time>
      </trkpt>
      <trkpt lat="45.7798791769892" lon="4.547964334487915">
        <ele>420.82</ele>
        <time>2024-08-13T08:28:42.137Z</time>
      </trkpt>
      <trkpt lat="45.77999711036682" lon="4.548007249832153">
        <ele>420.7</ele>
        <time>2024-08-13T08:28:49.083Z</time>
      </trkpt>
      <trkpt lat="45.78021168708801" lon="4.547996520996094">
        <ele>420.58</ele>
        <time>2024-08-13T08:28:56.033Z</time>
      </trkpt>
      <trkpt lat="45.78036189079285" lon="4.547899961471558">
        <ele>420.47</ele>
        <time>2024-08-13T08:29:02.985Z</time>
      </trkpt>
      <trkpt lat="45.78055500984192" lon="4.547685384750366">
        <ele>420.3</ele>
        <time>2024-08-13T08:29:09.941Z</time>
      </trkpt>
      <trkpt lat="45.78063019551337" lon="4.547545909881592">
        <ele>420.19</ele>
        <time>2024-08-13T08:29:16.899Z</time>
      </trkpt>
      <trkpt lat="45.780683755874634" lon="4.547363519668579">
        <ele>420.14</ele>
        <time>2024-08-13T08:29:23.859Z</time>
      </trkpt>
      <trkpt lat="45.78069448471069" lon="4.547138214111328">
        <ele>420.13</ele>
        <time>2024-08-13T08:29:30.822Z</time>
      </trkpt>
      <trkpt lat="45.780673027038574" lon="4.546784162521362">
        <ele>420.15</ele>
        <time>2024-08-13T08:29:37.789Z</time>
      </trkpt>
      <trkpt lat="45.780673027038574" lon="4.546558856964111">
        <ele>420.23</ele>
        <time>2024-08-13T08:29:44.758Z</time>
      </trkpt>
      <trkpt lat="45.78071594238281" lon="4.54634428024292">
        <ele>420.35</ele>
        <time>2024-08-13T08:29:51.730Z</time>
      </trkpt>
      <trkpt lat="45.78076958656311" lon="4.5461297035217285">
        <ele>420.57</ele>
        <time>2024-08-13T08:29:58.704Z</time>
      </trkpt>
      <trkpt lat="45.780909061431885" lon="4.545743465423584">
        <ele>420.88</ele>
        <time>2024-08-13T08:30:05.683Z</time>
      </trkpt>
      <trkpt lat="45.78108072280884" lon="4.5453572273254395">
        <ele>421.23</ele>
        <time>2024-08-13T08:30:12.667Z</time>
      </trkpt>
      <trkpt lat="45.781155824661255" lon="4.545249938964844">
        <ele>421.7</ele>
        <time>2024-08-13T08:30:19.653Z</time>
      </trkpt>
      <trkpt lat="45.78125238418579" lon="4.545196294784546">
        <ele>422.24</ele>
        <time>2024-08-13T08:30:26.641Z</time>
      </trkpt>
      <trkpt lat="45.78135967254639" lon="4.545196294784546">
        <ele>422.87</ele>
        <time>2024-08-13T08:30:33.630Z</time>
      </trkpt>
      <trkpt lat="45.78152068890631" lon="4.545228481292725">
        <ele>423.63</ele>
        <time>2024-08-13T08:30:40.622Z</time>
      </trkpt>
      <trkpt lat="45.78201413154602" lon="4.545700550079346">
        <ele>424.63</ele>
        <time>2024-08-13T08:30:47.624Z</time>
      </trkpt>
      <trkpt lat="45.78229308128357" lon="4.5458292961120605">
        <ele>425.71</ele>
        <time>2024-08-13T08:30:54.630Z</time>
      </trkpt>
      <trkpt lat="45.78252911567688" lon="4.545861482620239">
        <ele>426.92</ele>
        <time>2024-08-13T08:31:01.640Z</time>
      </trkpt>
      <trkpt lat="45.782904624938965" lon="4.545882940292358">
        <ele>427.96</ele>
        <time>2024-08-13T08:31:08.656Z</time>
      </trkpt>
      <trkpt lat="45.78323721885681" lon="4.545743465423584">
        <ele>428.9</ele>
        <time>2024-08-13T08:31:15.678Z</time>
      </trkpt>
      <trkpt lat="45.783462608233094" lon="4.54560399055481">
        <ele>429.91</ele>
        <time>2024-08-13T08:31:22.704Z</time>
      </trkpt>
      <trkpt lat="45.78346252441406" lon="4.54560399055481">
        <ele>430.83</ele>
        <time>2024-08-13T08:31:29.730Z</time>
      </trkpt>
      <trkpt lat="45.7835590839386" lon="4.545443058013916">
        <ele>431.81</ele>
        <time>2024-08-13T08:31:36.758Z</time>
      </trkpt>
      <trkpt lat="45.78372001647949" lon="4.54508900642395">
        <ele>432.82</ele>
        <time>2024-08-13T08:31:43.791Z</time>
      </trkpt>
      <trkpt lat="45.78385949134827" lon="4.544670581817627">
        <ele>433.73</ele>
        <time>2024-08-13T08:31:50.829Z</time>
      </trkpt>
      <trkpt lat="45.783934593200684" lon="4.544552564620972">
        <ele>434.44</ele>
        <time>2024-08-13T08:31:57.869Z</time>
      </trkpt>
      <trkpt lat="45.7840096950531" lon="4.5445311069488525">
        <ele>434.98</ele>
        <time>2024-08-13T08:32:04.910Z</time>
      </trkpt>
      <trkpt lat="45.784127712249756" lon="4.5446062088012695">
        <ele>435.38</ele>
        <time>2024-08-13T08:32:11.953Z</time>
      </trkpt>
      <trkpt lat="45.78435301780701" lon="4.544799327850342">
        <ele>435.58</ele>
        <time>2024-08-13T08:32:19.000Z</time>
      </trkpt>
      <trkpt lat="45.78461050987244" lon="4.544863700866699">
        <ele>436.13</ele>
        <time>2024-08-13T08:32:26.051Z</time>
      </trkpt>
      <trkpt lat="45.78484654426575" lon="4.5447564125061035">
        <ele>437.05</ele>
        <time>2024-08-13T08:32:33.106Z</time>
      </trkpt>
      <trkpt lat="45.7850182056427" lon="4.544488191604614">
        <ele>438.02</ele>
        <time>2024-08-13T08:32:40.165Z</time>
      </trkpt>
      <trkpt lat="45.785114765167236" lon="4.544252157211304">
        <ele>438.73</ele>
        <time>2024-08-13T08:32:47.227Z</time>
      </trkpt>
      <trkpt lat="45.78524351119995" lon="4.543801546096802">
        <ele>439.44</ele>
        <time>2024-08-13T08:32:54.295Z</time>
      </trkpt>
      <trkpt lat="45.785361528396606" lon="4.543136358261108">
        <ele>439.85</ele>
        <time>2024-08-13T08:33:01.371Z</time>
      </trkpt>
      <trkpt lat="45.785382986068726" lon="4.542213678359985">
        <ele>440.92</ele>
        <time>2024-08-13T08:33:08.457Z</time>
      </trkpt>
      <trkpt lat="45.785629749298096" lon="4.540647268295288">
        <ele>442.0</ele>
        <time>2024-08-13T08:33:15.561Z</time>
      </trkpt>
      <trkpt lat="45.785640478134155" lon="4.540379047393799">
        <ele>442.55</ele>
        <time>2024-08-13T08:33:22.668Z</time>
      </trkpt>
      <trkpt lat="45.785619020462036" lon="4.54008936882019">
        <ele>443.43</ele>
        <time>2024-08-13T08:33:29.778Z</time>
      </trkpt>
      <trkpt lat="45.78544735908508" lon="4.539177417755127">
        <ele>444.93</ele>
        <time>2024-08-13T08:33:36.899Z</time>
      </trkpt>
      <trkpt lat="45.78545808792114" lon="4.538952112197876">
        <ele>446.29</ele>
        <time>2024-08-13T08:33:44.022Z</time>
      </trkpt>
      <trkpt lat="45.78555464744568" lon="4.538404941558838">
        <ele>448.14</ele>
        <time>2024-08-13T08:33:51.152Z</time>
      </trkpt>
      <trkpt lat="45.7855224609375" lon="4.53810453414917">
        <ele>450.24</ele>
        <time>2024-08-13T08:33:58.285Z</time>
      </trkpt>
      <trkpt lat="45.785372257232666" lon="4.537492990493774">
        <ele>452.6</ele>
        <time>2024-08-13T08:34:05.425Z</time>
      </trkpt>
      <trkpt lat="45.78528642654419" lon="4.53709602355957">
        <ele>454.69</ele>
        <time>2024-08-13T08:34:12.570Z</time>
      </trkpt>
      <trkpt lat="45.78527569770813" lon="4.536827802658081">
        <ele>456.86</ele>
        <time>2024-08-13T08:34:19.718Z</time>
      </trkpt>
      <trkpt lat="45.78535079956055" lon="4.53660249710083">
        <ele>458.91</ele>
        <time>2024-08-13T08:34:26.869Z</time>
      </trkpt>
      <trkpt lat="45.78551173210144" lon="4.53635573387146">
        <ele>460.44</ele>
        <time>2024-08-13T08:34:34.023Z</time>
      </trkpt>
      <trkpt lat="45.785682052373886" lon="4.5362212881445885">
        <ele>461.41</ele>
        <time>2024-08-13T08:34:41.181Z</time>
      </trkpt>
      <trkpt lat="45.78571557998657" lon="4.536194801330566">
        <ele>465.52</ele>
        <time>2024-08-13T08:34:48.339Z</time>
      </trkpt>
      <trkpt lat="45.78660607337952" lon="4.535572528839111">
        <ele>467.25</ele>
        <time>2024-08-13T08:34:55.513Z</time>
      </trkpt>
      <trkpt lat="45.78684210777283" lon="4.535508155822754">
        <ele>467.36</ele>
        <time>2024-08-13T08:35:02.691Z</time>
      </trkpt>
      <trkpt lat="45.78720688819885" lon="4.5353686809539795">
        <ele>467.02</ele>
        <time>2024-08-13T08:35:09.875Z</time>
      </trkpt>
      <trkpt lat="45.787389278411865" lon="4.535229206085205">
        <ele>466.77</ele>
        <time>2024-08-13T08:35:17.062Z</time>
      </trkpt>
      <trkpt lat="45.787614583969116" lon="4.534907341003418">
        <ele>466.81</ele>
        <time>2024-08-13T08:35:24.254Z</time>
      </trkpt>
      <trkpt lat="45.78781843185425" lon="4.534467458724976">
        <ele>466.93</ele>
        <time>2024-08-13T08:35:31.452Z</time>
      </trkpt>
      <trkpt lat="45.7879900932312" lon="4.534016847610474">
        <ele>467.19</ele>
        <time>2024-08-13T08:35:38.656Z</time>
      </trkpt>
      <trkpt lat="45.788161754608154" lon="4.533319473266602">
        <ele>467.33</ele>
        <time>2024-08-13T08:35:45.868Z</time>
      </trkpt>
      <trkpt lat="45.78824758529663" lon="4.5328474044799805">
        <ele>467.32</ele>
        <time>2024-08-13T08:35:53.086Z</time>
      </trkpt>
      <trkpt lat="45.78829050064087" lon="4.532375335693359">
        <ele>466.96</ele>
        <time>2024-08-13T08:36:00.309Z</time>
      </trkpt>
      <trkpt lat="45.78825831413269" lon="4.531838893890381">
        <ele>466.65</ele>
        <time>2024-08-13T08:36:07.538Z</time>
      </trkpt>
      <trkpt lat="45.788161754608154" lon="4.531152248382568">
        <ele>466.59</ele>
        <time>2024-08-13T08:36:14.775Z</time>
      </trkpt>
      <trkpt lat="45.788140296936035" lon="4.530079364776611">
        <ele>466.55</ele>
        <time>2024-08-13T08:36:22.024Z</time>
      </trkpt>
      <trkpt lat="45.78808665275574" lon="4.529596567153931">
        <ele>465.86</ele>
        <time>2024-08-13T08:36:29.278Z</time>
      </trkpt>
      <trkpt lat="45.787925720214844" lon="4.528963565826416">
        <ele>466.0</ele>
        <time>2024-08-13T08:36:36.540Z</time>
      </trkpt>
      <trkpt lat="45.787914991378784" lon="4.528695344924927">
        <ele>466.02</ele>
        <time>2024-08-13T08:36:43.805Z</time>
      </trkpt>
      <trkpt lat="45.78807592391968" lon="4.527461528778076">
        <ele>465.69</ele>
        <time>2024-08-13T08:36:51.084Z</time>
      </trkpt>
      <trkpt lat="45.788161754608154" lon="4.527139663696289">
        <ele>465.36</ele>
        <time>2024-08-13T08:36:58.367Z</time>
      </trkpt>
      <trkpt lat="45.788623094558716" lon="4.525841474533081">
        <ele>464.68</ele>
        <time>2024-08-13T08:37:05.666Z</time>
      </trkpt>
      <trkpt lat="45.78869819641113" lon="4.525401592254639">
        <ele>463.86</ele>
        <time>2024-08-13T08:37:12.970Z</time>
      </trkpt>
      <trkpt lat="45.78870892524719" lon="4.525090456008911">
        <ele>463.28</ele>
        <time>2024-08-13T08:37:20.278Z</time>
      </trkpt>
      <trkpt lat="45.78868746757507" lon="4.524811506271362">
        <ele>462.82</ele>
        <time>2024-08-13T08:37:27.589Z</time>
      </trkpt>
      <trkpt lat="45.788633823394775" lon="4.524672031402588">
        <ele>462.48</ele>
        <time>2024-08-13T08:37:34.902Z</time>
      </trkpt>
      <trkpt lat="45.7885479927063" lon="4.524543285369873">
        <ele>462.19</ele>
        <time>2024-08-13T08:37:42.217Z</time>
      </trkpt>
      <trkpt lat="45.78820466995239" lon="4.524253606796265">
        <ele>462.28</ele>
        <time>2024-08-13T08:37:49.538Z</time>
      </trkpt>
      <trkpt lat="45.788151025772095" lon="4.524178504943848">
        <ele>461.88</ele>
        <time>2024-08-13T08:37:56.860Z</time>
      </trkpt>
      <trkpt lat="45.788129568099976" lon="4.524060487747192">
        <ele>461.24</ele>
        <time>2024-08-13T08:38:04.184Z</time>
      </trkpt>
      <trkpt lat="45.788151025772095" lon="4.523942470550537">
        <ele>460.29</ele>
        <time>2024-08-13T08:38:11.509Z</time>
      </trkpt>
      <trkpt lat="45.78851580619812" lon="4.523427486419678">
        <ele>459.47</ele>
        <time>2024-08-13T08:38:18.842Z</time>
      </trkpt>
      <trkpt lat="45.788644552230835" lon="4.523245096206665">
        <ele>457.83</ele>
        <time>2024-08-13T08:38:26.178Z</time>
      </trkpt>
      <trkpt lat="45.78881621360779" lon="4.522901773452759">
        <ele>455.35</ele>
        <time>2024-08-13T08:38:33.519Z</time>
      </trkpt>
      <trkpt lat="45.789427757263184" lon="4.521903991699219">
        <ele>452.85</ele>
        <time>2024-08-13T08:38:40.875Z</time>
      </trkpt>
      <trkpt lat="45.78971743583679" lon="4.5213782787323">
        <ele>450.44</ele>
        <time>2024-08-13T08:38:48.238Z</time>
      </trkpt>
      <trkpt lat="45.79024314880371" lon="4.520273208618164">
        <ele>447.82</ele>
        <time>2024-08-13T08:38:55.616Z</time>
      </trkpt>
      <trkpt lat="45.79048991203308" lon="4.519683122634888">
        <ele>445.65</ele>
        <time>2024-08-13T08:39:03.002Z</time>
      </trkpt>
      <trkpt lat="45.79059720039368" lon="4.519178867340088">
        <ele>443.28</ele>
        <time>2024-08-13T08:39:10.394Z</time>
      </trkpt>
      <trkpt lat="45.79068303108215" lon="4.518449306488037">
        <ele>441.58</ele>
        <time>2024-08-13T08:39:17.794Z</time>
      </trkpt>
      <trkpt lat="45.79071521759033" lon="4.518320560455322">
        <ele>439.83</ele>
        <time>2024-08-13T08:39:25.196Z</time>
      </trkpt>
      <trkpt lat="45.79098343849182" lon="4.518009424209595">
        <ele>437.92</ele>
        <time>2024-08-13T08:39:32.603Z</time>
      </trkpt>
      <trkpt lat="45.791122913360596" lon="4.517698287963867">
        <ele>436.25</ele>
        <time>2024-08-13T08:39:40.014Z</time>
      </trkpt>
      <trkpt lat="45.79121947288513" lon="4.5173656940460205">
        <ele>434.78</ele>
        <time>2024-08-13T08:39:47.429Z</time>
      </trkpt>
      <trkpt lat="45.79129457473755" lon="4.516721963882446">
        <ele>433.62</ele>
        <time>2024-08-13T08:39:54.852Z</time>
      </trkpt>
      <trkpt lat="45.79127311706543" lon="4.516164064407349">
        <ele>432.55</ele>
        <time>2024-08-13T08:40:02.281Z</time>
      </trkpt>
      <trkpt lat="45.79132676124573" lon="4.515852928161621">
        <ele>431.45</ele>
        <time>2024-08-13T08:40:09.713Z</time>
      </trkpt>
      <trkpt lat="45.791401863098145" lon="4.5156919956207275">
        <ele>430.54</ele>
        <time>2024-08-13T08:40:17.148Z</time>
      </trkpt>
      <trkpt lat="45.79148777760565" lon="4.515606164932251">
        <ele>429.77</ele>
        <time>2024-08-13T08:40:24.584Z</time>
      </trkpt>
      <trkpt lat="45.79161652363837" lon="4.515573978424072">
        <ele>429.23</ele>
        <time>2024-08-13T08:40:32.022Z</time>
      </trkpt>
      <trkpt lat="45.79169154167175" lon="4.515584707260132">
        <ele>428.74</ele>
        <time>2024-08-13T08:40:39.461Z</time>
      </trkpt>
      <trkpt lat="45.79176664352417" lon="4.51563835144043">
        <ele>428.29</ele>
        <time>2024-08-13T08:40:46.902Z</time>
      </trkpt>
      <trkpt lat="45.79193830490112" lon="4.516153335571289">
        <ele>427.82</ele>
        <time>2024-08-13T08:40:54.349Z</time>
      </trkpt>
      <trkpt lat="45.79193830490112" lon="4.516068007797003">
        <ele>427.7</ele>
        <time>2024-08-13T08:41:01.797Z</time>
      </trkpt>
      <trkpt lat="45.791938388720155" lon="4.516153335571289">
        <ele>428.0</ele>
        <time>2024-08-13T08:41:09.246Z</time>
      </trkpt>
      <trkpt lat="45.79201340675354" lon="4.516571760177612">
        <ele>427.87</ele>
        <time>2024-08-13T08:41:16.700Z</time>
      </trkpt>
      <trkpt lat="45.792131423950195" lon="4.517054557800293">
        <ele>427.83</ele>
        <time>2024-08-13T08:41:24.160Z</time>
      </trkpt>
      <trkpt lat="45.792378187179565" lon="4.517762660980225">
        <ele>427.74</ele>
        <time>2024-08-13T08:41:31.629Z</time>
      </trkpt>
      <trkpt lat="45.7925283908844" lon="4.51811671257019">
        <ele>427.57</ele>
        <time>2024-08-13T08:41:39.102Z</time>
      </trkpt>
      <trkpt lat="45.7925820350647" lon="4.518202543258667">
        <ele>427.62</ele>
        <time>2024-08-13T08:41:46.576Z</time>
      </trkpt>
      <trkpt lat="45.79268932342529" lon="4.518245458602905">
        <ele>427.92</ele>
        <time>2024-08-13T08:41:54.052Z</time>
      </trkpt>
      <trkpt lat="45.79285033978522" lon="4.518224000930786">
        <ele>428.57</ele>
        <time>2024-08-13T08:42:01.531Z</time>
      </trkpt>
      <trkpt lat="45.79297908581793" lon="4.518234729766846">
        <ele>429.35</ele>
        <time>2024-08-13T08:42:09.012Z</time>
      </trkpt>
      <trkpt lat="45.7930326461792" lon="4.518245458602905">
        <ele>430.11</ele>
        <time>2024-08-13T08:42:16.494Z</time>
      </trkpt>
      <trkpt lat="45.793107748031616" lon="4.5183634757995605">
        <ele>430.82</ele>
        <time>2024-08-13T08:42:23.978Z</time>
      </trkpt>
      <trkpt lat="45.793129205703735" lon="4.5186638832092285">
        <ele>431.37</ele>
        <time>2024-08-13T08:42:31.465Z</time>
      </trkpt>
      <trkpt lat="45.79302191734314" lon="4.519833326339722">
        <ele>432.12</ele>
        <time>2024-08-13T08:42:38.965Z</time>
      </trkpt>
      <trkpt lat="45.79302191734314" lon="4.5201873779296875">
        <ele>433.25</ele>
        <time>2024-08-13T08:42:46.469Z</time>
      </trkpt>
      <trkpt lat="45.793107748031616" lon="4.520605802536011">
        <ele>434.65</ele>
        <time>2024-08-13T08:42:53.978Z</time>
      </trkpt>
      <trkpt lat="45.79321503639221" lon="4.520841836929321">
        <ele>435.97</ele>
        <time>2024-08-13T08:43:01.490Z</time>
      </trkpt>
      <trkpt lat="45.793397426605225" lon="4.520959854125977">
        <ele>437.55</ele>
        <time>2024-08-13T08:43:09.005Z</time>
      </trkpt>
      <trkpt lat="45.79401969909668" lon="4.521099328994751">
        <ele>439.84</ele>
        <time>2024-08-13T08:43:16.530Z</time>
      </trkpt>
      <trkpt lat="45.794159173965454" lon="4.5211851596832275">
        <ele>441.34</ele>
        <time>2024-08-13T08:43:24.058Z</time>
      </trkpt>
      <trkpt lat="45.79422354698181" lon="4.5213353633880615">
        <ele>442.7</ele>
        <time>2024-08-13T08:43:31.588Z</time>
      </trkpt>
      <trkpt lat="45.7942343596369" lon="4.521528482437134">
        <ele>444.11</ele>
        <time>2024-08-13T08:43:39.120Z</time>
      </trkpt>
      <trkpt lat="45.79418063163757" lon="4.521721601486206">
        <ele>445.49</ele>
        <time>2024-08-13T08:43:46.654Z</time>
      </trkpt>
      <trkpt lat="45.79395532608032" lon="4.522279500961304">
        <ele>446.77</ele>
        <time>2024-08-13T08:43:54.196Z</time>
      </trkpt>
      <trkpt lat="45.7939338684082" lon="4.522579908370972">
        <ele>448.11</ele>
        <time>2024-08-13T08:44:01.741Z</time>
      </trkpt>
      <trkpt lat="45.79409488476813" lon="4.523416757583618">
        <ele>449.92</ele>
        <time>2024-08-13T08:44:09.296Z</time>
      </trkpt>
      <trkpt lat="45.7940948009491" lon="4.523416757583618">
        <ele>451.19</ele>
        <time>2024-08-13T08:44:16.851Z</time>
      </trkpt>
      <trkpt lat="45.79423427581787" lon="4.523942470550537">
        <ele>452.77</ele>
        <time>2024-08-13T08:44:24.412Z</time>
      </trkpt>
      <trkpt lat="45.79434156417847" lon="4.524167776107788">
        <ele>454.19</ele>
        <time>2024-08-13T08:44:31.976Z</time>
      </trkpt>
      <trkpt lat="45.79450249671936" lon="4.524403810501099">
        <ele>455.81</ele>
        <time>2024-08-13T08:44:39.544Z</time>
      </trkpt>
      <trkpt lat="45.794663429260254" lon="4.524564743041992">
        <ele>457.74</ele>
        <time>2024-08-13T08:44:47.115Z</time>
      </trkpt>
      <trkpt lat="45.79510339535773" lon="4.524800777435303">
        <ele>460.14</ele>
        <time>2024-08-13T08:44:54.693Z</time>
      </trkpt>
      <trkpt lat="45.79596161842346" lon="4.524983167648315">
        <ele>463.0</ele>
        <time>2024-08-13T08:45:02.285Z</time>
      </trkpt>
      <trkpt lat="45.79633712768555" lon="4.524972438812256">
        <ele>465.74</ele>
        <time>2024-08-13T08:45:09.883Z</time>
      </trkpt>
      <trkpt lat="45.796873569488525" lon="4.524897336959839">
        <ele>468.49</ele>
        <time>2024-08-13T08:45:17.490Z</time>
      </trkpt>
      <trkpt lat="45.79707741737366" lon="4.524768590927124">
        <ele>471.48</ele>
        <time>2024-08-13T08:45:25.100Z</time>
      </trkpt>
      <trkpt lat="45.797656774520874" lon="4.524328708648682">
        <ele>474.74</ele>
        <time>2024-08-13T08:45:32.721Z</time>
      </trkpt>
      <trkpt lat="45.798139572143555" lon="4.524071216583252">
        <ele>476.87</ele>
        <time>2024-08-13T08:45:40.350Z</time>
      </trkpt>
      <trkpt lat="45.79855422489345" lon="4.523959988728166">
        <ele>478.26</ele>
        <time>2024-08-13T08:45:47.986Z</time>
      </trkpt>
      <trkpt lat="45.798579454422" lon="4.523953199386597">
        <ele>483.58</ele>
        <time>2024-08-13T08:45:55.622Z</time>
      </trkpt>
      <trkpt lat="45.79899787902832" lon="4.523802995681763">
        <ele>485.75</ele>
        <time>2024-08-13T08:46:03.265Z</time>
      </trkpt>
      <trkpt lat="45.799373388290405" lon="4.523545503616333">
        <ele>488.04</ele>
        <time>2024-08-13T08:46:10.915Z</time>
      </trkpt>
      <trkpt lat="45.799663066864014" lon="4.523255825042725">
        <ele>490.23</ele>
        <time>2024-08-13T08:46:18.571Z</time>
      </trkpt>
      <trkpt lat="45.79996347427368" lon="4.522794485092163">
        <ele>493.04</ele>
        <time>2024-08-13T08:46:26.234Z</time>
      </trkpt>
      <trkpt lat="45.800392627716064" lon="4.5218825340271">
        <ele>496.5</ele>
        <time>2024-08-13T08:46:33.909Z</time>
      </trkpt>
      <trkpt lat="45.80052137374878" lon="4.521743059158325">
        <ele>499.27</ele>
        <time>2024-08-13T08:46:41.587Z</time>
      </trkpt>
      <trkpt lat="45.800864696502686" lon="4.521195888519287">
        <ele>501.95</ele>
        <time>2024-08-13T08:46:49.273Z</time>
      </trkpt>
      <trkpt lat="45.80119729042053" lon="4.520820379257202">
        <ele>504.5</ele>
        <time>2024-08-13T08:46:56.966Z</time>
      </trkpt>
      <trkpt lat="45.80198049545288" lon="4.520230293273926">
        <ele>507.0</ele>
        <time>2024-08-13T08:47:04.673Z</time>
      </trkpt>
      <trkpt lat="45.80231308937073" lon="4.519779682159424">
        <ele>509.14</ele>
        <time>2024-08-13T08:47:12.387Z</time>
      </trkpt>
      <trkpt lat="45.802409732714295" lon="4.519597291946411">
        <ele>511.15</ele>
        <time>2024-08-13T08:47:20.104Z</time>
      </trkpt>
      <trkpt lat="45.802409648895264" lon="4.519597291946411">
        <ele>512.74</ele>
        <time>2024-08-13T08:47:27.821Z</time>
      </trkpt>
      <trkpt lat="45.80283880233765" lon="4.518857002258301">
        <ele>514.91</ele>
        <time>2024-08-13T08:47:35.548Z</time>
      </trkpt>
      <trkpt lat="45.80333232879639" lon="4.518020153045654">
        <ele>516.14</ele>
        <time>2024-08-13T08:47:43.288Z</time>
      </trkpt>
      <trkpt lat="45.80342888832092" lon="4.51786994934082">
        <ele>517.47</ele>
        <time>2024-08-13T08:47:51.030Z</time>
      </trkpt>
      <trkpt lat="45.803589820861816" lon="4.517794847488403">
        <ele>518.68</ele>
        <time>2024-08-13T08:47:58.775Z</time>
      </trkpt>
      <trkpt lat="45.80377221107483" lon="4.517827033996582">
        <ele>519.76</ele>
        <time>2024-08-13T08:48:06.523Z</time>
      </trkpt>
      <trkpt lat="45.803900957107544" lon="4.517955780029297">
        <ele>520.74</ele>
        <time>2024-08-13T08:48:14.273Z</time>
      </trkpt>
      <trkpt lat="45.80402978695929" lon="4.518352746963501">
        <ele>521.58</ele>
        <time>2024-08-13T08:48:22.028Z</time>
      </trkpt>
      <trkpt lat="45.8039653301239" lon="4.518749713897705">
        <ele>522.2</ele>
        <time>2024-08-13T08:48:29.788Z</time>
      </trkpt>
      <trkpt lat="45.8040189743042" lon="4.518835544586182">
        <ele>523.1</ele>
        <time>2024-08-13T08:48:37.549Z</time>
      </trkpt>
      <trkpt lat="45.804094076156616" lon="4.519554376602173">
        <ele>524.21</ele>
        <time>2024-08-13T08:48:45.318Z</time>
      </trkpt>
      <trkpt lat="45.804126262664795" lon="4.519715309143066">
        <ele>525.05</ele>
        <time>2024-08-13T08:48:53.089Z</time>
      </trkpt>
      <trkpt lat="45.804190719500184" lon="4.519994258880615">
        <ele>526.01</ele>
        <time>2024-08-13T08:49:00.863Z</time>
      </trkpt>
      <trkpt lat="45.80420136451721" lon="4.520047903060913">
        <ele>526.85</ele>
        <time>2024-08-13T08:49:08.638Z</time>
      </trkpt>
      <trkpt lat="45.80442667007446" lon="4.520144462585449">
        <ele>528.1</ele>
        <time>2024-08-13T08:49:16.417Z</time>
      </trkpt>
      <trkpt lat="45.80448031425476" lon="4.520219564437866">
        <ele>529.05</ele>
        <time>2024-08-13T08:49:24.197Z</time>
      </trkpt>
      <trkpt lat="45.804641246795654" lon="4.520423412322998">
        <ele>530.0</ele>
        <time>2024-08-13T08:49:31.980Z</time>
      </trkpt>
      <trkpt lat="45.80471634864807" lon="4.520595073699951">
        <ele>530.87</ele>
        <time>2024-08-13T08:49:39.765Z</time>
      </trkpt>
      <trkpt lat="45.804888010025024" lon="4.521142244338989">
        <ele>531.94</ele>
        <time>2024-08-13T08:49:47.557Z</time>
      </trkpt>
      <trkpt lat="45.80480217933655" lon="4.521764516830444">
        <ele>533.26</ele>
        <time>2024-08-13T08:49:55.356Z</time>
      </trkpt>
      <trkpt lat="45.80466270446777" lon="4.522418975830078">
        <ele>534.58</ele>
        <time>2024-08-13T08:50:03.163Z</time>
      </trkpt>
      <trkpt lat="45.804641246795654" lon="4.522751569747925">
        <ele>535.87</ele>
        <time>2024-08-13T08:50:10.974Z</time>
      </trkpt>
      <trkpt lat="45.80466270446777" lon="4.5229339599609375">
        <ele>537.3</ele>
        <time>2024-08-13T08:50:18.787Z</time>
      </trkpt>
      <trkpt lat="45.80474853515625" lon="4.523223638534546">
        <ele>538.87</ele>
        <time>2024-08-13T08:50:26.603Z</time>
      </trkpt>
      <trkpt lat="45.804877281188965" lon="4.523448944091797">
        <ele>540.61</ele>
        <time>2024-08-13T08:50:34.422Z</time>
      </trkpt>
      <trkpt lat="45.80501675605774" lon="4.523642063140869">
        <ele>542.45</ele>
        <time>2024-08-13T08:50:42.245Z</time>
      </trkpt>
      <trkpt lat="45.80519914627075" lon="4.5237815380096436">
        <ele>544.3</ele>
        <time>2024-08-13T08:50:50.071Z</time>
      </trkpt>
      <trkpt lat="45.805402994155884" lon="4.52387809753418">
        <ele>546.27</ele>
        <time>2024-08-13T08:50:57.900Z</time>
      </trkpt>
      <trkpt lat="45.80557465553284" lon="4.523921012878418">
        <ele>548.27</ele>
        <time>2024-08-13T08:51:05.732Z</time>
      </trkpt>
      <trkpt lat="45.80602526664734" lon="4.52387809753418">
        <ele>550.69</ele>
        <time>2024-08-13T08:51:13.571Z</time>
      </trkpt>
      <trkpt lat="45.80649733543396" lon="4.5239317417144775">
        <ele>553.16</ele>
        <time>2024-08-13T08:51:21.418Z</time>
      </trkpt>
      <trkpt lat="45.80696940422058" lon="4.524028301239014">
        <ele>555.23</ele>
        <time>2024-08-13T08:51:29.273Z</time>
      </trkpt>
      <trkpt lat="45.807087421417236" lon="4.52412486076355">
        <ele>556.68</ele>
        <time>2024-08-13T08:51:37.130Z</time>
      </trkpt>
      <trkpt lat="45.807151794433594" lon="4.524253606796265">
        <ele>558.01</ele>
        <time>2024-08-13T08:51:44.989Z</time>
      </trkpt>
      <trkpt lat="45.80718398094177" lon="4.524435997009277">
        <ele>559.23</ele>
        <time>2024-08-13T08:51:52.850Z</time>
      </trkpt>
      <trkpt lat="45.807130336761475" lon="4.5248329639434814">
        <ele>560.5</ele>
        <time>2024-08-13T08:52:00.715Z</time>
      </trkpt>
      <trkpt lat="45.80691576004028" lon="4.5257556438446045">
        <ele>562.13</ele>
        <time>2024-08-13T08:52:08.591Z</time>
      </trkpt>
      <trkpt lat="45.806851387023926" lon="4.526034593582153">
        <ele>563.51</ele>
        <time>2024-08-13T08:52:16.470Z</time>
      </trkpt>
      <trkpt lat="45.806894302368164" lon="4.526399374008179">
        <ele>565.21</ele>
        <time>2024-08-13T08:52:24.353Z</time>
      </trkpt>
      <trkpt lat="45.80696940422058" lon="4.52661395072937">
        <ele>566.9</ele>
        <time>2024-08-13T08:52:32.239Z</time>
      </trkpt>
      <trkpt lat="45.807087421417236" lon="4.5269036293029785">
        <ele>568.66</ele>
        <time>2024-08-13T08:52:40.129Z</time>
      </trkpt>
      <trkpt lat="45.80723762512207" lon="4.527150392532349">
        <ele>570.22</ele>
        <time>2024-08-13T08:52:48.023Z</time>
      </trkpt>
      <trkpt lat="45.807355642318726" lon="4.527289867401123">
        <ele>571.91</ele>
        <time>2024-08-13T08:52:55.919Z</time>
      </trkpt>
      <trkpt lat="45.80746293067932" lon="4.5273542404174805">
        <ele>573.87</ele>
        <time>2024-08-13T08:53:03.817Z</time>
      </trkpt>
      <trkpt lat="45.80758094787598" lon="4.527397155761719">
        <ele>576.23</ele>
        <time>2024-08-13T08:53:11.717Z</time>
      </trkpt>
      <trkpt lat="45.80795645713806" lon="4.526935815811157">
        <ele>579.41</ele>
        <time>2024-08-13T08:53:19.625Z</time>
      </trkpt>
      <trkpt lat="45.808179918676615" lon="4.526645299047232">
        <ele>581.37</ele>
        <time>2024-08-13T08:53:27.538Z</time>
      </trkpt>
      <trkpt lat="45.80795645713806" lon="4.526935815811157">
        <ele>584.0</ele>
        <time>2024-08-13T08:53:35.455Z</time>
      </trkpt>
      <trkpt lat="45.80758094787598" lon="4.527397155761719">
        <ele>582.41</ele>
        <time>2024-08-13T08:53:43.380Z</time>
      </trkpt>
      <trkpt lat="45.80774188041687" lon="4.527386426925659">
        <ele>582.06</ele>
        <time>2024-08-13T08:53:51.308Z</time>
      </trkpt>
      <trkpt lat="45.80791354179382" lon="4.527343511581421">
        <ele>582.4</ele>
        <time>2024-08-13T08:53:59.239Z</time>
      </trkpt>
      <trkpt lat="45.80896496772766" lon="4.5268285274505615">
        <ele>584.07</ele>
        <time>2024-08-13T08:54:07.187Z</time>
      </trkpt>
      <trkpt lat="45.809372663497925" lon="4.5267534255981445">
        <ele>585.36</ele>
        <time>2024-08-13T08:54:15.142Z</time>
      </trkpt>
      <trkpt lat="45.809640884399414" lon="4.526882171630859">
        <ele>586.33</ele>
        <time>2024-08-13T08:54:23.102Z</time>
      </trkpt>
      <trkpt lat="45.809844732284546" lon="4.527525901794434">
        <ele>587.29</ele>
        <time>2024-08-13T08:54:31.070Z</time>
      </trkpt>
      <trkpt lat="45.80998420715332" lon="4.529489278793335">
        <ele>588.5</ele>
        <time>2024-08-13T08:54:39.060Z</time>
      </trkpt>
      <trkpt lat="45.81023097038269" lon="4.530315399169922">
        <ele>589.39</ele>
        <time>2024-08-13T08:54:47.060Z</time>
      </trkpt>
      <trkpt lat="45.81024178303778" lon="4.530454874038696">
        <ele>589.53</ele>
        <time>2024-08-13T08:54:55.061Z</time>
      </trkpt>
      <trkpt lat="45.81027388572693" lon="4.5310986042022705">
        <ele>589.39</ele>
        <time>2024-08-13T08:55:03.069Z</time>
      </trkpt>
      <trkpt lat="45.810359716415405" lon="4.531270265579224">
        <ele>588.89</ele>
        <time>2024-08-13T08:55:11.080Z</time>
      </trkpt>
      <trkpt lat="45.81044554710388" lon="4.5313560962677">
        <ele>587.97</ele>
        <time>2024-08-13T08:55:19.092Z</time>
      </trkpt>
      <trkpt lat="45.8105742931366" lon="4.531420469284058">
        <ele>586.67</ele>
        <time>2024-08-13T08:55:27.107Z</time>
      </trkpt>
      <trkpt lat="45.81072449684143" lon="4.531409740447998">
        <ele>585.01</ele>
        <time>2024-08-13T08:55:35.124Z</time>
      </trkpt>
      <trkpt lat="45.81082105636597" lon="4.531313180923462">
        <ele>583.16</ele>
        <time>2024-08-13T08:55:43.143Z</time>
      </trkpt>
      <trkpt lat="45.810874700546265" lon="4.531184434890747">
        <ele>581.26</ele>
        <time>2024-08-13T08:55:51.164Z</time>
      </trkpt>
      <trkpt lat="45.81132531166077" lon="4.530508518218994">
        <ele>579.26</ele>
        <time>2024-08-13T08:55:59.195Z</time>
      </trkpt>
      <trkpt lat="45.81180810928345" lon="4.530036449432373">
        <ele>576.62</ele>
        <time>2024-08-13T08:56:07.235Z</time>
      </trkpt>
      <trkpt lat="45.8120334148407" lon="4.529682397842407">
        <ele>574.06</ele>
        <time>2024-08-13T08:56:15.281Z</time>
      </trkpt>
      <trkpt lat="45.812612771987915" lon="4.528974294662476">
        <ele>571.35</ele>
        <time>2024-08-13T08:56:23.339Z</time>
      </trkpt>
      <trkpt lat="45.813878774642944" lon="4.526742696762085">
        <ele>567.64</ele>
        <time>2024-08-13T08:56:31.429Z</time>
      </trkpt>
      <trkpt lat="45.81402897834778" lon="4.52637791633606">
        <ele>565.13</ele>
        <time>2024-08-13T08:56:39.524Z</time>
      </trkpt>
      <trkpt lat="45.814093351364136" lon="4.526163339614868">
        <ele>562.9</ele>
        <time>2024-08-13T08:56:47.622Z</time>
      </trkpt>
      <trkpt lat="45.814125537872314" lon="4.525465965270996">
        <ele>560.9</ele>
        <time>2024-08-13T08:56:55.727Z</time>
      </trkpt>
      <trkpt lat="45.81418991088867" lon="4.525187015533447">
        <ele>559.19</ele>
        <time>2024-08-13T08:57:03.836Z</time>
      </trkpt>
      <trkpt lat="45.814340114593506" lon="4.524961709976196">
        <ele>557.85</ele>
        <time>2024-08-13T08:57:11.948Z</time>
      </trkpt>
      <trkpt lat="45.8145010471344" lon="4.524929523468018">
        <ele>556.84</ele>
        <time>2024-08-13T08:57:20.063Z</time>
      </trkpt>
      <trkpt lat="45.81466197967529" lon="4.524993896484375">
        <ele>556.13</ele>
        <time>2024-08-13T08:57:28.180Z</time>
      </trkpt>
      <trkpt lat="45.814887285232544" lon="4.525197744369507">
        <ele>555.59</ele>
        <time>2024-08-13T08:57:36.302Z</time>
      </trkpt>
      <trkpt lat="45.8150589466095" lon="4.525412321090698">
        <ele>555.33</ele>
        <time>2024-08-13T08:57:44.427Z</time>
      </trkpt>
      <trkpt lat="45.81517696380615" lon="4.525712728500366">
        <ele>555.29</ele>
        <time>2024-08-13T08:57:52.556Z</time>
      </trkpt>
      <trkpt lat="45.81523069180548" lon="4.5260560512542725">
        <ele>555.34</ele>
        <time>2024-08-13T08:58:00.689Z</time>
      </trkpt>
      <trkpt lat="45.81529498100281" lon="4.526463747024536">
        <ele>555.64</ele>
        <time>2024-08-13T08:58:08.827Z</time>
      </trkpt>
      <trkpt lat="45.815348625183105" lon="4.527214765548706">
        <ele>556.3</ele>
        <time>2024-08-13T08:58:16.973Z</time>
      </trkpt>
      <trkpt lat="45.815370082855225" lon="4.528223276138306">
        <ele>556.53</ele>
        <time>2024-08-13T08:58:25.131Z</time>
      </trkpt>
      <trkpt lat="45.815327167510986" lon="4.529328346252441">
        <ele>557.06</ele>
        <time>2024-08-13T08:58:33.301Z</time>
      </trkpt>
      <trkpt lat="45.815348625183105" lon="4.529660940170288">
        <ele>557.63</ele>
        <time>2024-08-13T08:58:41.475Z</time>
      </trkpt>
      <trkpt lat="45.815509557724" lon="4.530637264251709">
        <ele>558.13</ele>
        <time>2024-08-13T08:58:49.660Z</time>
      </trkpt>
      <trkpt lat="45.8155632019043" lon="4.530926942825317">
        <ele>558.44</ele>
        <time>2024-08-13T08:58:57.848Z</time>
      </trkpt>
      <trkpt lat="45.81564903259277" lon="4.5311737060546875">
        <ele>558.86</ele>
        <time>2024-08-13T08:59:06.039Z</time>
      </trkpt>
      <trkpt lat="45.81572413444519" lon="4.531345367431641">
        <ele>559.31</ele>
        <time>2024-08-13T08:59:14.233Z</time>
      </trkpt>
      <trkpt lat="45.81582069396973" lon="4.531484842300415">
        <ele>559.79</ele>
        <time>2024-08-13T08:59:22.429Z</time>
      </trkpt>
      <trkpt lat="45.815917337313294" lon="4.531581401824951">
        <ele>560.23</ele>
        <time>2024-08-13T08:59:30.627Z</time>
      </trkpt>
      <trkpt lat="45.81603527069092" lon="4.531667232513428">
        <ele>560.46</ele>
        <time>2024-08-13T08:59:38.827Z</time>
      </trkpt>
      <trkpt lat="45.81618547439575" lon="4.531688690185547">
        <ele>560.56</ele>
        <time>2024-08-13T08:59:47.029Z</time>
      </trkpt>
      <trkpt lat="45.816335678100586" lon="4.531635046005249">
        <ele>560.51</ele>
        <time>2024-08-13T08:59:55.234Z</time>
      </trkpt>
      <trkpt lat="45.81656098365784" lon="4.531409740447998">
        <ele>560.48</ele>
        <time>2024-08-13T09:00:03.443Z</time>
      </trkpt>
      <trkpt lat="45.81676483154297" lon="4.531152248382568">
        <ele>560.17</ele>
        <time>2024-08-13T09:00:11.656Z</time>
      </trkpt>
      <trkpt lat="45.81703305244446" lon="4.530712366104126">
        <ele>559.41</ele>
        <time>2024-08-13T09:00:19.876Z</time>
      </trkpt>
      <trkpt lat="45.81725835800171" lon="4.530240297317505">
        <ele>558.55</ele>
        <time>2024-08-13T09:00:28.102Z</time>
      </trkpt>
      <trkpt lat="45.81748366355896" lon="4.529639482498169">
        <ele>556.95</ele>
        <time>2024-08-13T09:00:36.336Z</time>
      </trkpt>
      <trkpt lat="45.81771969795227" lon="4.5289528369903564">
        <ele>555.35</ele>
        <time>2024-08-13T09:00:44.579Z</time>
      </trkpt>
      <trkpt lat="45.81804156303406" lon="4.527890682220459">
        <ele>553.9</ele>
        <time>2024-08-13T09:00:52.834Z</time>
      </trkpt>
      <trkpt lat="45.81818103790283" lon="4.527568817138672">
        <ele>552.52</ele>
        <time>2024-08-13T09:01:01.094Z</time>
      </trkpt>
      <trkpt lat="45.818352699279785" lon="4.5273756980896">
        <ele>550.75</ele>
        <time>2024-08-13T09:01:09.357Z</time>
      </trkpt>
      <trkpt lat="45.81844925880432" lon="4.527343511581421">
        <ele>548.78</ele>
        <time>2024-08-13T09:01:17.622Z</time>
      </trkpt>
      <trkpt lat="45.818578004837036" lon="4.52736496925354">
        <ele>546.65</ele>
        <time>2024-08-13T09:01:25.889Z</time>
      </trkpt>
      <trkpt lat="45.81870675086975" lon="4.527418613433838">
        <ele>544.36</ele>
        <time>2024-08-13T09:01:34.158Z</time>
      </trkpt>
      <trkpt lat="45.81880331039429" lon="4.5275044441223145">
        <ele>542.06</ele>
        <time>2024-08-13T09:01:42.429Z</time>
      </trkpt>
      <trkpt lat="45.81891059875488" lon="4.527676105499268">
        <ele>539.48</ele>
        <time>2024-08-13T09:01:50.702Z</time>
      </trkpt>
      <trkpt lat="45.81900715827942" lon="4.527922868728638">
        <ele>536.81</ele>
        <time>2024-08-13T09:01:58.979Z</time>
      </trkpt>
      <trkpt lat="45.819382667541504" lon="4.528738260269165">
        <ele>533.74</ele>
        <time>2024-08-13T09:02:07.267Z</time>
      </trkpt>
      <trkpt lat="45.81956505775452" lon="4.529060125350952">
        <ele>531.0</ele>
        <time>2024-08-13T09:02:15.559Z</time>
      </trkpt>
      <trkpt lat="45.819854736328125" lon="4.529467821121216">
        <ele>528.34</ele>
        <time>2024-08-13T09:02:23.858Z</time>
      </trkpt>
      <trkpt lat="45.820069313049316" lon="4.5298004150390625">
        <ele>525.65</ele>
        <time>2024-08-13T09:02:32.162Z</time>
      </trkpt>
      <trkpt lat="45.82015514373779" lon="4.529972076416016">
        <ele>523.05</ele>
        <time>2024-08-13T09:02:40.468Z</time>
      </trkpt>
      <trkpt lat="45.82025170326233" lon="4.5302510261535645">
        <ele>520.51</ele>
        <time>2024-08-13T09:02:48.778Z</time>
      </trkpt>
      <trkpt lat="45.82028388977051" lon="4.530444145202637">
        <ele>518.09</ele>
        <time>2024-08-13T09:02:57.090Z</time>
      </trkpt>
      <trkpt lat="45.82028397358954" lon="4.530444145202637">
        <ele>515.82</ele>
        <time>2024-08-13T09:03:05.402Z</time>
      </trkpt>
      <trkpt lat="45.82056283950806" lon="4.532225131988525">
        <ele>513.13</ele>
        <time>2024-08-13T09:03:13.734Z</time>
      </trkpt>
      <trkpt lat="45.82064867019653" lon="4.532665014266968">
        <ele>510.78</ele>
        <time>2024-08-13T09:03:22.071Z</time>
      </trkpt>
      <trkpt lat="45.82074522972107" lon="4.532965421676636">
        <ele>508.59</ele>
        <time>2024-08-13T09:03:30.412Z</time>
      </trkpt>
      <trkpt lat="45.820863246917725" lon="4.533158540725708">
        <ele>506.65</ele>
        <time>2024-08-13T09:03:38.756Z</time>
      </trkpt>
      <trkpt lat="45.82102417945862" lon="4.533308744430542">
        <ele>504.79</ele>
        <time>2024-08-13T09:03:47.103Z</time>
      </trkpt>
      <trkpt lat="45.82118511199951" lon="4.533373117446899">
        <ele>503.03</ele>
        <time>2024-08-13T09:03:55.453Z</time>
      </trkpt>
      <trkpt lat="45.821367502212524" lon="4.533340930938721">
        <ele>501.4</ele>
        <time>2024-08-13T09:04:03.806Z</time>
      </trkpt>
      <trkpt lat="45.821603536605835" lon="4.533190727233887">
        <ele>500.03</ele>
        <time>2024-08-13T09:04:12.163Z</time>
      </trkpt>
      <trkpt lat="45.82213997840881" lon="4.532783031463623">
        <ele>498.39</ele>
        <time>2024-08-13T09:04:20.529Z</time>
      </trkpt>
      <trkpt lat="45.82230091094971" lon="4.532686471939087">
        <ele>496.8</ele>
        <time>2024-08-13T09:04:28.898Z</time>
      </trkpt>
      <trkpt lat="45.8224618434906" lon="4.532665014266968">
        <ele>495.29</ele>
        <time>2024-08-13T09:04:37.270Z</time>
      </trkpt>
      <trkpt lat="45.822622776031494" lon="4.532665014266968">
        <ele>493.97</ele>
        <time>2024-08-13T09:04:45.644Z</time>
      </trkpt>
      <trkpt lat="45.82278370857239" lon="4.532729387283325">
        <ele>492.79</ele>
        <time>2024-08-13T09:04:54.021Z</time>
      </trkpt>
      <trkpt lat="45.82290172576904" lon="4.532836675643921">
        <ele>491.62</ele>
        <time>2024-08-13T09:05:02.400Z</time>
      </trkpt>
      <trkpt lat="45.82298764027655" lon="4.532943964004517">
        <ele>490.47</ele>
        <time>2024-08-13T09:05:10.781Z</time>
      </trkpt>
      <trkpt lat="45.82305201329291" lon="4.53310489654541">
        <ele>489.35</ele>
        <time>2024-08-13T09:05:19.164Z</time>
      </trkpt>
      <trkpt lat="45.82328796386719" lon="4.533673524856567">
        <ele>488.17</ele>
        <time>2024-08-13T09:05:27.555Z</time>
      </trkpt>
      <trkpt lat="45.8234703540802" lon="4.534242153167725">
        <ele>487.0</ele>
        <time>2024-08-13T09:05:35.953Z</time>
      </trkpt>
      <trkpt lat="45.82349181175232" lon="4.534692764282227">
        <ele>485.94</ele>
        <time>2024-08-13T09:05:44.356Z</time>
      </trkpt>
      <trkpt lat="45.82351326942444" lon="4.535400867462158">
        <ele>484.68</ele>
        <time>2024-08-13T09:05:52.767Z</time>
      </trkpt>
      <trkpt lat="45.82354545593262" lon="4.535475969314575">
        <ele>483.69</ele>
        <time>2024-08-13T09:06:01.179Z</time>
      </trkpt>
      <trkpt lat="45.82359918393195" lon="4.535475969314575">
        <ele>482.72</ele>
        <time>2024-08-13T09:06:09.591Z</time>
      </trkpt>
      <trkpt lat="45.82366347312927" lon="4.535422325134277">
        <ele>481.79</ele>
        <time>2024-08-13T09:06:18.005Z</time>
      </trkpt>
      <trkpt lat="45.8239209651947" lon="4.5347678661346436">
        <ele>480.7</ele>
        <time>2024-08-13T09:06:26.427Z</time>
      </trkpt>
      <trkpt lat="45.824081897735596" lon="4.534209966659546">
        <ele>479.58</ele>
        <time>2024-08-13T09:06:34.856Z</time>
      </trkpt>
      <trkpt lat="45.82423210144043" lon="4.533405303955078">
        <ele>478.62</ele>
        <time>2024-08-13T09:06:43.294Z</time>
      </trkpt>
      <trkpt lat="45.824393117800355" lon="4.532836675643921">
        <ele>477.6</ele>
        <time>2024-08-13T09:06:51.739Z</time>
      </trkpt>
      <trkpt lat="45.824629068374634" lon="4.532257318496704">
        <ele>476.46</ele>
        <time>2024-08-13T09:07:00.191Z</time>
      </trkpt>
      <trkpt lat="45.824843645095825" lon="4.531838893890381">
        <ele>475.55</ele>
        <time>2024-08-13T09:07:08.649Z</time>
      </trkpt>
      <trkpt lat="45.82502603530884" lon="4.531517028808594">
        <ele>474.47</ele>
        <time>2024-08-13T09:07:17.112Z</time>
      </trkpt>
      <trkpt lat="45.825390899553895" lon="4.531087875366211">
        <ele>473.39</ele>
        <time>2024-08-13T09:07:25.582Z</time>
      </trkpt>
      <trkpt lat="45.82571268081665" lon="4.53086256980896">
        <ele>472.46</ele>
        <time>2024-08-13T09:07:34.058Z</time>
      </trkpt>
      <trkpt lat="45.82579859532416" lon="4.530830383300781">
        <ele>471.36</ele>
        <time>2024-08-13T09:07:42.536Z</time>
      </trkpt>
      <trkpt lat="45.825819969177246" lon="4.530830383300781">
        <ele>470.15</ele>
        <time>2024-08-13T09:07:51.014Z</time>
      </trkpt>
      <trkpt lat="45.82601308822632" lon="4.530969858169556">
        <ele>468.67</ele>
        <time>2024-08-13T09:07:59.495Z</time>
      </trkpt>
      <trkpt lat="45.82618474960327" lon="4.531184434890747">
        <ele>467.07</ele>
        <time>2024-08-13T09:08:07.980Z</time>
      </trkpt>
      <trkpt lat="45.826345682144165" lon="4.5313239097595215">
        <ele>465.51</ele>
        <time>2024-08-13T09:08:16.468Z</time>
      </trkpt>
      <trkpt lat="45.8268928527832" lon="4.5315492153167725">
        <ele>463.82</ele>
        <time>2024-08-13T09:08:24.965Z</time>
      </trkpt>
      <trkpt lat="45.827311277389526" lon="4.531559944152832">
        <ele>462.43</ele>
        <time>2024-08-13T09:08:33.469Z</time>
      </trkpt>
      <trkpt lat="45.82770824432373" lon="4.531635046005249">
        <ele>460.45</ele>
        <time>2024-08-13T09:08:41.979Z</time>
      </trkpt>
      <trkpt lat="45.82797646522522" lon="4.53161358833313">
        <ele>458.54</ele>
        <time>2024-08-13T09:08:50.494Z</time>
      </trkpt>
      <trkpt lat="45.82853436470032" lon="4.5314741134643555">
        <ele>456.67</ele>
        <time>2024-08-13T09:08:59.018Z</time>
      </trkpt>
      <trkpt lat="45.82867383956909" lon="4.531463384628296">
        <ele>454.8</ele>
        <time>2024-08-13T09:09:07.544Z</time>
      </trkpt>
      <trkpt lat="45.829306840896606" lon="4.531581401824951">
        <ele>452.87</ele>
        <time>2024-08-13T09:09:16.080Z</time>
      </trkpt>
      <trkpt lat="45.82939267158508" lon="4.531570672988892">
        <ele>451.1</ele>
        <time>2024-08-13T09:09:24.618Z</time>
      </trkpt>
      <trkpt lat="45.82955368794501" lon="4.531506299972534">
        <ele>449.18</ele>
        <time>2024-08-13T09:09:33.158Z</time>
      </trkpt>
      <trkpt lat="45.82980036735535" lon="4.5313560962677">
        <ele>447.03</ele>
        <time>2024-08-13T09:09:41.702Z</time>
      </trkpt>
      <trkpt lat="45.83030462265015" lon="4.530991315841675">
        <ele>444.78</ele>
        <time>2024-08-13T09:09:50.256Z</time>
      </trkpt>
      <trkpt lat="45.830572843551636" lon="4.530819654464722">
        <ele>442.95</ele>
        <time>2024-08-13T09:09:58.814Z</time>
      </trkpt>
      <trkpt lat="45.83070158958435" lon="4.530755281448364">
        <ele>441.2</ele>
        <time>2024-08-13T09:10:07.374Z</time>
      </trkpt>
      <trkpt lat="45.83138823509216" lon="4.530508518218994">
        <ele>439.28</ele>
        <time>2024-08-13T09:10:15.946Z</time>
      </trkpt>
      <trkpt lat="45.83151698112488" lon="4.530444145202637">
        <ele>437.59</ele>
        <time>2024-08-13T09:10:24.520Z</time>
      </trkpt>
      <trkpt lat="45.83164572715759" lon="4.53035831451416">
        <ele>435.91</ele>
        <time>2024-08-13T09:10:33.096Z</time>
      </trkpt>
      <trkpt lat="45.83223581314087" lon="4.529821872711182">
        <ele>434.22</ele>
        <time>2024-08-13T09:10:41.683Z</time>
      </trkpt>
      <trkpt lat="45.83245038986206" lon="4.529660940170288">
        <ele>432.69</ele>
        <time>2024-08-13T09:10:50.274Z</time>
      </trkpt>
      <trkpt lat="45.8325469493866" lon="4.52961802482605">
        <ele>431.22</ele>
        <time>2024-08-13T09:10:58.867Z</time>
      </trkpt>
      <trkpt lat="45.83275079727173" lon="4.529585838317871">
        <ele>429.8</ele>
        <time>2024-08-13T09:11:07.463Z</time>
      </trkpt>
      <trkpt lat="45.83290100097656" lon="4.529628753662109">
        <ele>428.57</ele>
        <time>2024-08-13T09:11:16.062Z</time>
      </trkpt>
      <trkpt lat="45.83302983082831" lon="4.529703855514526">
        <ele>427.54</ele>
        <time>2024-08-13T09:11:24.663Z</time>
      </trkpt>
      <trkpt lat="45.83314776420593" lon="4.52985405921936">
        <ele>426.63</ele>
        <time>2024-08-13T09:11:33.266Z</time>
      </trkpt>
      <trkpt lat="45.833362424746156" lon="4.530315399169922">
        <ele>425.83</ele>
        <time>2024-08-13T09:11:41.876Z</time>
      </trkpt>
      <trkpt lat="45.83343752659857" lon="4.530497789382935">
        <ele>425.84</ele>
        <time>2024-08-13T09:11:50.488Z</time>
      </trkpt>
      <trkpt lat="45.8335018157959" lon="4.530733823776245">
        <ele>426.15</ele>
        <time>2024-08-13T09:11:59.103Z</time>
      </trkpt>
      <trkpt lat="45.83348035812378" lon="4.530894756317139">
        <ele>426.42</ele>
        <time>2024-08-13T09:12:07.720Z</time>
      </trkpt>
      <trkpt lat="45.83343744277954" lon="4.5310235023498535">
        <ele>426.76</ele>
        <time>2024-08-13T09:12:16.338Z</time>
      </trkpt>
      <trkpt lat="45.8332478441298" lon="4.531292896717787">
        <ele>427.26</ele>
        <time>2024-08-13T09:12:24.960Z</time>
      </trkpt>
      <trkpt lat="45.83323359489441" lon="4.531313180923462">
        <ele>434.06</ele>
        <time>2024-08-13T09:12:33.583Z</time>
      </trkpt>
      <trkpt lat="45.83315849304199" lon="4.531452655792236">
        <ele>434.6</ele>
        <time>2024-08-13T09:12:42.208Z</time>
      </trkpt>
      <trkpt lat="45.833094120025635" lon="4.531635046005249">
        <ele>435.31</ele>
        <time>2024-08-13T09:12:50.835Z</time>
      </trkpt>
      <trkpt lat="45.833061933517456" lon="4.531742334365845">
        <ele>435.81</ele>
        <time>2024-08-13T09:12:59.463Z</time>
      </trkpt>
      <trkpt lat="45.8330512046814" lon="4.532053470611572">
        <ele>436.54</ele>
        <time>2024-08-13T09:13:08.095Z</time>
      </trkpt>
      <trkpt lat="45.833061933517456" lon="4.532160758972168">
        <ele>436.91</ele>
        <time>2024-08-13T09:13:16.728Z</time>
      </trkpt>
      <trkpt lat="45.833104932680726" lon="4.532332420349121">
        <ele>437.04</ele>
        <time>2024-08-13T09:13:25.363Z</time>
      </trkpt>
      <trkpt lat="45.83269715309143" lon="4.533480405807495">
        <ele>436.34</ele>
        <time>2024-08-13T09:13:34.013Z</time>
      </trkpt>
      <trkpt lat="45.83267569541931" lon="4.5336198806762695">
        <ele>435.69</ele>
        <time>2024-08-13T09:13:42.664Z</time>
      </trkpt>
      <trkpt lat="45.83267569541931" lon="4.533877372741699">
        <ele>434.9</ele>
        <time>2024-08-13T09:13:51.318Z</time>
      </trkpt>
      <trkpt lat="45.83266496658325" lon="4.534049034118652">
        <ele>434.09</ele>
        <time>2024-08-13T09:13:59.974Z</time>
      </trkpt>
      <trkpt lat="45.832600593566895" lon="4.534714221954346">
        <ele>433.11</ele>
        <time>2024-08-13T09:14:08.637Z</time>
      </trkpt>
      <trkpt lat="45.832557678222656" lon="4.5349931716918945">
        <ele>432.12</ele>
        <time>2024-08-13T09:14:17.304Z</time>
      </trkpt>
      <trkpt lat="45.83245038986206" lon="4.535390138626099">
        <ele>430.99</ele>
        <time>2024-08-13T09:14:25.975Z</time>
      </trkpt>
      <trkpt lat="45.832364559173584" lon="4.535540342330933">
        <ele>429.85</ele>
        <time>2024-08-13T09:14:34.649Z</time>
      </trkpt>
      <trkpt lat="45.83225727081299" lon="4.535658359527588">
        <ele>428.77</ele>
        <time>2024-08-13T09:14:43.325Z</time>
      </trkpt>
      <trkpt lat="45.831613540649414" lon="4.536280632019043">
        <ele>427.67</ele>
        <time>2024-08-13T09:14:52.013Z</time>
      </trkpt>
      <trkpt lat="45.8314311504364" lon="4.536495208740234">
        <ele>426.66</ele>
        <time>2024-08-13T09:15:00.705Z</time>
      </trkpt>
      <trkpt lat="45.83120584487915" lon="4.536806344985962">
        <ele>425.59</ele>
        <time>2024-08-13T09:15:09.402Z</time>
      </trkpt>
      <trkpt lat="45.83090543746948" lon="4.537256956100464">
        <ele>424.49</ele>
        <time>2024-08-13T09:15:18.106Z</time>
      </trkpt>
      <trkpt lat="45.83074450492859" lon="4.537557363510132">
        <ele>423.4</ele>
        <time>2024-08-13T09:15:26.814Z</time>
      </trkpt>
      <trkpt lat="45.83050847053528" lon="4.5381152629852295">
        <ele>422.18</ele>
        <time>2024-08-13T09:15:35.529Z</time>
      </trkpt>
      <trkpt lat="45.83045482635498" lon="4.538319110870361">
        <ele>421.3</ele>
        <time>2024-08-13T09:15:44.247Z</time>
      </trkpt>
      <trkpt lat="45.8304226398468" lon="4.538555145263672">
        <ele>420.48</ele>
        <time>2024-08-13T09:15:52.968Z</time>
      </trkpt>
      <trkpt lat="45.83041191101074" lon="4.538995027542114">
        <ele>419.8</ele>
        <time>2024-08-13T09:16:01.694Z</time>
      </trkpt>
      <trkpt lat="45.830358266830444" lon="4.539220333099365">
        <ele>419.25</ele>
        <time>2024-08-13T09:16:10.422Z</time>
      </trkpt>
      <trkpt lat="45.83030462265015" lon="4.539295434951782">
        <ele>418.78</ele>
        <time>2024-08-13T09:16:19.151Z</time>
      </trkpt>
      <trkpt lat="45.83024024963379" lon="4.539327621459961">
        <ele>418.31</ele>
        <time>2024-08-13T09:16:27.881Z</time>
      </trkpt>
      <trkpt lat="45.83014369010925" lon="4.539327621459961">
        <ele>417.78</ele>
        <time>2024-08-13T09:16:36.613Z</time>
      </trkpt>
      <trkpt lat="45.82969307899475" lon="4.539209604263306">
        <ele>417.25</ele>
        <time>2024-08-13T09:16:45.352Z</time>
      </trkpt>
      <trkpt lat="45.829575061798096" lon="4.539198875427246">
        <ele>416.77</ele>
        <time>2024-08-13T09:16:54.093Z</time>
      </trkpt>
      <trkpt lat="45.82942485809326" lon="4.539209604263306">
        <ele>416.15</ele>
        <time>2024-08-13T09:17:02.837Z</time>
      </trkpt>
      <trkpt lat="45.828609466552734" lon="4.539467096328735">
        <ele>415.38</ele>
        <time>2024-08-13T09:17:11.594Z</time>
      </trkpt>
      <trkpt lat="45.82841634750366" lon="4.5395636558532715">
        <ele>414.72</ele>
        <time>2024-08-13T09:17:20.354Z</time>
      </trkpt>
      <trkpt lat="45.82823395729065" lon="4.539735317230225">
        <ele>414.05</ele>
        <time>2024-08-13T09:17:29.118Z</time>
      </trkpt>
      <trkpt lat="45.82805156707764" lon="4.539971351623535">
        <ele>413.36</ele>
        <time>2024-08-13T09:17:37.886Z</time>
      </trkpt>
      <trkpt lat="45.82772970199585" lon="4.540582895278931">
        <ele>412.66</ele>
        <time>2024-08-13T09:17:46.662Z</time>
      </trkpt>
      <trkpt lat="45.8275043964386" lon="4.540904760360718">
        <ele>411.65</ele>
        <time>2024-08-13T09:17:55.443Z</time>
      </trkpt>
      <trkpt lat="45.826828479766846" lon="4.541569948196411">
        <ele>410.0</ele>
        <time>2024-08-13T09:18:04.238Z</time>
      </trkpt>
      <trkpt lat="45.826592445373535" lon="4.541881084442139">
        <ele>408.99</ele>
        <time>2024-08-13T09:18:13.038Z</time>
      </trkpt>
      <trkpt lat="45.82541227340698" lon="4.543812274932861">
        <ele>407.67</ele>
        <time>2024-08-13T09:18:21.866Z</time>
      </trkpt>
      <trkpt lat="45.82525134086609" lon="4.544112682342529">
        <ele>406.71</ele>
        <time>2024-08-13T09:18:30.699Z</time>
      </trkpt>
      <trkpt lat="45.82515478134155" lon="4.544327259063721">
        <ele>405.8</ele>
        <time>2024-08-13T09:18:39.534Z</time>
      </trkpt>
      <trkpt lat="45.825122594833374" lon="4.544509649276733">
        <ele>404.93</ele>
        <time>2024-08-13T09:18:48.372Z</time>
      </trkpt>
      <trkpt lat="45.82510122098029" lon="4.5446813106536865">
        <ele>404.08</ele>
        <time>2024-08-13T09:18:57.211Z</time>
      </trkpt>
      <trkpt lat="45.825068950653076" lon="4.545228481292725">
        <ele>403.25</ele>
        <time>2024-08-13T09:19:06.057Z</time>
      </trkpt>
      <trkpt lat="45.82502603530884" lon="4.545539617538452">
        <ele>402.44</ele>
        <time>2024-08-13T09:19:14.906Z</time>
      </trkpt>
      <trkpt lat="45.8249831199646" lon="4.545711278915405">
        <ele>401.72</ele>
        <time>2024-08-13T09:19:23.757Z</time>
      </trkpt>
      <trkpt lat="45.82491874694824" lon="4.545807838439941">
        <ele>400.95</ele>
        <time>2024-08-13T09:19:32.610Z</time>
      </trkpt>
      <trkpt lat="45.824832916259766" lon="4.545872211456299">
        <ele>400.11</ele>
        <time>2024-08-13T09:19:41.464Z</time>
      </trkpt>
      <trkpt lat="45.82471489906311" lon="4.54585075378418">
        <ele>399.26</ele>
        <time>2024-08-13T09:19:50.320Z</time>
      </trkpt>
      <trkpt lat="45.82428574562073" lon="4.54560399055481">
        <ele>398.24</ele>
        <time>2024-08-13T09:19:59.184Z</time>
      </trkpt>
      <trkpt lat="45.82391023635864" lon="4.545464515686035">
        <ele>397.15</ele>
        <time>2024-08-13T09:20:08.054Z</time>
      </trkpt>
      <trkpt lat="45.823330879211426" lon="4.545400142669678">
        <ele>396.12</ele>
        <time>2024-08-13T09:20:16.933Z</time>
      </trkpt>
      <trkpt lat="45.822858894243836" lon="4.545528888702393">
        <ele>395.14</ele>
        <time>2024-08-13T09:20:25.820Z</time>
      </trkpt>
      <trkpt lat="45.822858810424805" lon="4.545528888702393">
        <ele>394.1</ele>
        <time>2024-08-13T09:20:34.707Z</time>
      </trkpt>
      <trkpt lat="45.82175374031067" lon="4.545882940292358">
        <ele>392.57</ele>
        <time>2024-08-13T09:20:43.612Z</time>
      </trkpt>
      <trkpt lat="45.82118519581854" lon="4.545968770980835">
        <ele>391.45</ele>
        <time>2024-08-13T09:20:52.526Z</time>
      </trkpt>
      <trkpt lat="45.820605754852295" lon="4.5460546016693115">
        <ele>390.56</ele>
        <time>2024-08-13T09:21:01.449Z</time>
      </trkpt>
      <trkpt lat="45.82023024559021" lon="4.545958042144775">
        <ele>389.19</ele>
        <time>2024-08-13T09:21:10.378Z</time>
      </trkpt>
      <trkpt lat="45.820112228393555" lon="4.545925855636597">
        <ele>387.9</ele>
        <time>2024-08-13T09:21:19.309Z</time>
      </trkpt>
      <trkpt lat="45.819844007492065" lon="4.545711278915405">
        <ele>386.22</ele>
        <time>2024-08-13T09:21:28.245Z</time>
      </trkpt>
      <trkpt lat="45.81947922706604" lon="4.545518159866333">
        <ele>384.94</ele>
        <time>2024-08-13T09:21:37.188Z</time>
      </trkpt>
      <trkpt lat="45.819103717803955" lon="4.54534649848938">
        <ele>383.66</ele>
        <time>2024-08-13T09:21:46.137Z</time>
      </trkpt>
      <trkpt lat="45.81892132759094" lon="4.54533576965332">
        <ele>382.44</ele>
        <time>2024-08-13T09:21:55.089Z</time>
      </trkpt>
      <trkpt lat="45.81872820854187" lon="4.545389413833618">
        <ele>381.28</ele>
        <time>2024-08-13T09:22:04.044Z</time>
      </trkpt>
      <trkpt lat="45.81840634346008" lon="4.545561075210571">
        <ele>380.17</ele>
        <time>2024-08-13T09:22:13.004Z</time>
      </trkpt>
      <trkpt lat="45.818105936050415" lon="4.545786380767822">
        <ele>379.23</ele>
        <time>2024-08-13T09:22:21.970Z</time>
      </trkpt>
      <trkpt lat="45.81796646118164" lon="4.545968770980835">
        <ele>378.54</ele>
        <time>2024-08-13T09:22:30.939Z</time>
      </trkpt>
      <trkpt lat="45.817880630493164" lon="4.546183347702026">
        <ele>377.89</ele>
        <time>2024-08-13T09:22:39.911Z</time>
      </trkpt>
      <trkpt lat="45.81781625747681" lon="4.546419382095337">
        <ele>377.43</ele>
        <time>2024-08-13T09:22:48.885Z</time>
      </trkpt>
      <trkpt lat="45.817623138427734" lon="4.547309875488281">
        <ele>376.68</ele>
        <time>2024-08-13T09:22:57.870Z</time>
      </trkpt>
      <trkpt lat="45.817601680755615" lon="4.547975063323975">
        <ele>376.16</ele>
        <time>2024-08-13T09:23:06.862Z</time>
      </trkpt>
      <trkpt lat="45.81756949424744" lon="4.548135995864868">
        <ele>375.54</ele>
        <time>2024-08-13T09:23:15.856Z</time>
      </trkpt>
      <trkpt lat="45.8175265789032" lon="4.548232555389404">
        <ele>374.84</ele>
        <time>2024-08-13T09:23:24.852Z</time>
      </trkpt>
      <trkpt lat="45.81745147705078" lon="4.548296928405762">
        <ele>373.99</ele>
        <time>2024-08-13T09:23:33.849Z</time>
      </trkpt>
      <trkpt lat="45.817333459854126" lon="4.54833984375">
        <ele>373.0</ele>
        <time>2024-08-13T09:23:42.848Z</time>
      </trkpt>
      <trkpt lat="45.81699013710022" lon="4.548404216766357">
        <ele>371.91</ele>
        <time>2024-08-13T09:23:51.852Z</time>
      </trkpt>
      <trkpt lat="45.81672191619873" lon="4.548532962799072">
        <ele>370.87</ele>
        <time>2024-08-13T09:24:00.861Z</time>
      </trkpt>
      <trkpt lat="45.81645369529724" lon="4.548779726028442">
        <ele>369.83</ele>
        <time>2024-08-13T09:24:09.875Z</time>
      </trkpt>
      <trkpt lat="45.81617474555969" lon="4.549219608306885">
        <ele>368.72</ele>
        <time>2024-08-13T09:24:18.896Z</time>
      </trkpt>
      <trkpt lat="45.81604599952698" lon="4.54958438873291">
        <ele>367.57</ele>
        <time>2024-08-13T09:24:27.921Z</time>
      </trkpt>
      <trkpt lat="45.81600308418274" lon="4.549798965454102">
        <ele>366.69</ele>
        <time>2024-08-13T09:24:36.949Z</time>
      </trkpt>
      <trkpt lat="45.81599235534668" lon="4.5500242710113525">
        <ele>365.94</ele>
        <time>2024-08-13T09:24:45.979Z</time>
      </trkpt>
      <trkpt lat="45.81600308418274" lon="4.550271034240723">
        <ele>365.45</ele>
        <time>2024-08-13T09:24:55.012Z</time>
      </trkpt>
      <trkpt lat="45.81603527069092" lon="4.5513975620269775">
        <ele>364.8</ele>
        <time>2024-08-13T09:25:04.058Z</time>
      </trkpt>
      <trkpt lat="45.8160138130188" lon="4.5516228675842285">
        <ele>364.7</ele>
        <time>2024-08-13T09:25:13.106Z</time>
      </trkpt>
      <trkpt lat="45.815874338150024" lon="4.552427530288696">
        <ele>365.07</ele>
        <time>2024-08-13T09:25:22.164Z</time>
      </trkpt>
      <trkpt lat="45.81576704978943" lon="4.552749395370483">
        <ele>364.85</ele>
        <time>2024-08-13T09:25:31.225Z</time>
      </trkpt>
      <trkpt lat="45.81570125184953" lon="4.552871184423566">
        <ele>364.63</ele>
        <time>2024-08-13T09:25:40.288Z</time>
      </trkpt>
      <trkpt lat="45.815337896347046" lon="4.553543329238892">
        <ele>362.92</ele>
        <time>2024-08-13T09:25:49.361Z</time>
      </trkpt>
      <trkpt lat="45.81528425216675" lon="4.553725719451904">
        <ele>361.86</ele>
        <time>2024-08-13T09:25:58.436Z</time>
      </trkpt>
      <trkpt lat="45.81527352333069" lon="4.553929567337036">
        <ele>361.29</ele>
        <time>2024-08-13T09:26:07.513Z</time>
      </trkpt>
      <trkpt lat="45.81528425216675" lon="4.554208517074585">
        <ele>361.05</ele>
        <time>2024-08-13T09:26:16.593Z</time>
      </trkpt>
      <trkpt lat="45.81531643867493" lon="4.554476737976074">
        <ele>360.77</ele>
        <time>2024-08-13T09:26:25.676Z</time>
      </trkpt>
      <trkpt lat="45.81555247306824" lon="4.555013179779053">
        <ele>360.79</ele>
        <time>2024-08-13T09:26:34.766Z</time>
      </trkpt>
      <trkpt lat="45.815595388412476" lon="4.555195569992065">
        <ele>360.66</ele>
        <time>2024-08-13T09:26:43.859Z</time>
      </trkpt>
      <trkpt lat="45.8155632019043" lon="4.555377960205078">
        <ele>360.14</ele>
        <time>2024-08-13T09:26:52.954Z</time>
      </trkpt>
      <trkpt lat="45.81543445587158" lon="4.555860757827759">
        <ele>358.78</ele>
        <time>2024-08-13T09:27:02.055Z</time>
      </trkpt>
      <trkpt lat="45.815348625183105" lon="4.55632209777832">
        <ele>357.77</ele>
        <time>2024-08-13T09:27:11.161Z</time>
      </trkpt>
      <trkpt lat="45.815348625183105" lon="4.556622505187988">
        <ele>357.1</ele>
        <time>2024-08-13T09:27:20.270Z</time>
      </trkpt>
      <trkpt lat="45.815391540527344" lon="4.556804895401001">
        <ele>356.68</ele>
        <time>2024-08-13T09:27:29.381Z</time>
      </trkpt>
      <trkpt lat="45.8154559135437" lon="4.556944370269775">
        <ele>356.52</ele>
        <time>2024-08-13T09:27:38.494Z</time>
      </trkpt>
      <trkpt lat="45.81578850746155" lon="4.557523727416992">
        <ele>356.28</ele>
        <time>2024-08-13T09:27:47.616Z</time>
      </trkpt>
      <trkpt lat="45.81603527069092" lon="4.55782413482666">
        <ele>355.87</ele>
        <time>2024-08-13T09:27:56.743Z</time>
      </trkpt>
      <trkpt lat="45.816410779953" lon="4.558006525039673">
        <ele>355.88</ele>
        <time>2024-08-13T09:28:05.876Z</time>
      </trkpt>
      <trkpt lat="45.81671118736267" lon="4.558092355728149">
        <ele>355.72</ele>
        <time>2024-08-13T09:28:15.014Z</time>
      </trkpt>
      <trkpt lat="45.81701159477234" lon="4.558274745941162">
        <ele>355.37</ele>
        <time>2024-08-13T09:28:24.157Z</time>
      </trkpt>
      <trkpt lat="45.81705451011658" lon="4.558392763137817">
        <ele>354.73</ele>
        <time>2024-08-13T09:28:33.302Z</time>
      </trkpt>
      <trkpt lat="45.81705451011658" lon="4.5585644245147705">
        <ele>353.91</ele>
        <time>2024-08-13T09:28:42.449Z</time>
      </trkpt>
      <trkpt lat="45.81700086593628" lon="4.558650255203247">
        <ele>352.95</ele>
        <time>2024-08-13T09:28:51.597Z</time>
      </trkpt>
      <trkpt lat="45.81692576408386" lon="4.558725357055664">
        <ele>351.93</ele>
        <time>2024-08-13T09:29:00.746Z</time>
      </trkpt>
      <trkpt lat="45.81619620323181" lon="4.55933690071106">
        <ele>350.37</ele>
        <time>2024-08-13T09:29:09.909Z</time>
      </trkpt>
      <trkpt lat="45.816099643707275" lon="4.559519290924072">
        <ele>349.14</ele>
        <time>2024-08-13T09:29:19.075Z</time>
      </trkpt>
      <trkpt lat="45.81602454185486" lon="4.559723138809204">
        <ele>347.85</ele>
        <time>2024-08-13T09:29:28.243Z</time>
      </trkpt>
      <trkpt lat="45.81594944000244" lon="4.560120105743408">
        <ele>346.47</ele>
        <time>2024-08-13T09:29:37.416Z</time>
      </trkpt>
      <trkpt lat="45.81592798233032" lon="4.56032395362854">
        <ele>345.21</ele>
        <time>2024-08-13T09:29:46.591Z</time>
      </trkpt>
      <trkpt lat="45.81593871116638" lon="4.560527801513672">
        <ele>344.11</ele>
        <time>2024-08-13T09:29:55.768Z</time>
      </trkpt>
      <trkpt lat="45.81597089767456" lon="4.560624361038208">
        <ele>343.05</ele>
        <time>2024-08-13T09:30:04.947Z</time>
      </trkpt>
      <trkpt lat="45.816131830215454" lon="4.560956954956055">
        <ele>342.21</ele>
        <time>2024-08-13T09:30:14.130Z</time>
      </trkpt>
      <trkpt lat="45.81617474555969" lon="4.561107158660889">
        <ele>341.22</ele>
        <time>2024-08-13T09:30:23.315Z</time>
      </trkpt>
      <trkpt lat="45.816131830215454" lon="4.561300277709961">
        <ele>340.14</ele>
        <time>2024-08-13T09:30:32.502Z</time>
      </trkpt>
      <trkpt lat="45.816088914871216" lon="4.561364650726318">
        <ele>339.01</ele>
        <time>2024-08-13T09:30:41.690Z</time>
      </trkpt>
      <trkpt lat="45.815573930740356" lon="4.561740159988403">
        <ele>337.36</ele>
        <time>2024-08-13T09:30:50.887Z</time>
      </trkpt>
      <trkpt lat="45.814629793167114" lon="4.562920331954956">
        <ele>335.91</ele>
        <time>2024-08-13T09:31:00.104Z</time>
      </trkpt>
      <trkpt lat="45.8145546913147" lon="4.5629847049713135">
        <ele>334.72</ele>
        <time>2024-08-13T09:31:09.323Z</time>
      </trkpt>
      <trkpt lat="45.81446886062622" lon="4.563006162643433">
        <ele>333.52</ele>
        <time>2024-08-13T09:31:18.543Z</time>
      </trkpt>
      <trkpt lat="45.81422209739685" lon="4.562973976135254">
        <ele>332.05</ele>
        <time>2024-08-13T09:31:27.767Z</time>
      </trkpt>
      <trkpt lat="45.814146995544434" lon="4.562995433807373">
        <ele>330.93</ele>
        <time>2024-08-13T09:31:36.992Z</time>
      </trkpt>
      <trkpt lat="45.8139967918396" lon="4.563102722167969">
        <ele>329.96</ele>
        <time>2024-08-13T09:31:46.220Z</time>
      </trkpt>
      <trkpt lat="45.813889503479004" lon="4.563242197036743">
        <ele>328.92</ele>
        <time>2024-08-13T09:31:55.450Z</time>
      </trkpt>
      <trkpt lat="45.81381440162659" lon="4.563456773757935">
        <ele>328.21</ele>
        <time>2024-08-13T09:32:04.683Z</time>
      </trkpt>
      <trkpt lat="45.81372857093811" lon="4.563767910003662">
        <ele>327.61</ele>
        <time>2024-08-13T09:32:13.920Z</time>
      </trkpt>
      <trkpt lat="45.81368565559387" lon="4.5640575885772705">
        <ele>327.25</ele>
        <time>2024-08-13T09:32:23.160Z</time>
      </trkpt>
      <trkpt lat="45.81367492675781" lon="4.5643150806427">
        <ele>327.1</ele>
        <time>2024-08-13T09:32:32.403Z</time>
      </trkpt>
      <trkpt lat="45.81367492675781" lon="4.5645081996917725">
        <ele>327.0</ele>
        <time>2024-08-13T09:32:41.648Z</time>
      </trkpt>
      <trkpt lat="45.81370711326599" lon="4.564690589904785">
        <ele>326.97</ele>
        <time>2024-08-13T09:32:50.895Z</time>
      </trkpt>
      <trkpt lat="45.81377148628235" lon="4.564990997314453">
        <ele>327.02</ele>
        <time>2024-08-13T09:33:00.146Z</time>
      </trkpt>
      <trkpt lat="45.81377148628235" lon="4.565087556838989">
        <ele>326.97</ele>
        <time>2024-08-13T09:33:09.398Z</time>
      </trkpt>
      <trkpt lat="45.81375011242926" lon="4.565227031707764">
        <ele>326.92</ele>
        <time>2024-08-13T09:33:18.652Z</time>
      </trkpt>
      <trkpt lat="45.81366419792175" lon="4.565377235412598">
        <ele>326.74</ele>
        <time>2024-08-13T09:33:27.908Z</time>
      </trkpt>
      <trkpt lat="45.81352472305298" lon="4.565538167953491">
        <ele>326.34</ele>
        <time>2024-08-13T09:33:37.167Z</time>
      </trkpt>
      <trkpt lat="45.81346035003662" lon="4.565688371658325">
        <ele>326.1</ele>
        <time>2024-08-13T09:33:46.428Z</time>
      </trkpt>
      <trkpt lat="45.813438976183534" lon="4.565795660018921">
        <ele>326.05</ele>
        <time>2024-08-13T09:33:55.690Z</time>
      </trkpt>
      <trkpt lat="45.8134388923645" lon="4.565795660018921">
        <ele>325.98</ele>
        <time>2024-08-13T09:34:04.952Z</time>
      </trkpt>
      <trkpt lat="45.81344962120056" lon="4.565967321395874">
        <ele>325.94</ele>
        <time>2024-08-13T09:34:14.216Z</time>
      </trkpt>
      <trkpt lat="45.813642740249634" lon="4.5665037631988525">
        <ele>325.89</ele>
        <time>2024-08-13T09:34:23.487Z</time>
      </trkpt>
      <trkpt lat="45.81370711326599" lon="4.566739797592163">
        <ele>325.73</ele>
        <time>2024-08-13T09:34:32.760Z</time>
      </trkpt>
      <trkpt lat="45.81378221511841" lon="4.567190408706665">
        <ele>325.41</ele>
        <time>2024-08-13T09:34:42.039Z</time>
      </trkpt>
      <trkpt lat="45.813835859298706" lon="4.567286968231201">
        <ele>325.2</ele>
        <time>2024-08-13T09:34:51.319Z</time>
      </trkpt>
      <trkpt lat="45.81391096115112" lon="4.567351341247559">
        <ele>325.0</ele>
        <time>2024-08-13T09:35:00.600Z</time>
      </trkpt>
      <trkpt lat="45.81417918205261" lon="4.567351341247559">
        <ele>324.99</ele>
        <time>2024-08-13T09:35:09.886Z</time>
      </trkpt>
      <trkpt lat="45.81449031829834" lon="4.567265510559082">
        <ele>324.77</ele>
        <time>2024-08-13T09:35:19.177Z</time>
      </trkpt>
      <trkpt lat="45.81456542015076" lon="4.567286968231201">
        <ele>324.19</ele>
        <time>2024-08-13T09:35:28.469Z</time>
      </trkpt>
      <trkpt lat="45.814619064331055" lon="4.567351341247559">
        <ele>323.42</ele>
        <time>2024-08-13T09:35:37.762Z</time>
      </trkpt>
      <trkpt lat="45.81465125083923" lon="4.567469358444214">
        <ele>322.38</ele>
        <time>2024-08-13T09:35:47.056Z</time>
      </trkpt>
      <trkpt lat="45.81465125083923" lon="4.567544460296631">
        <ele>321.27</ele>
        <time>2024-08-13T09:35:56.351Z</time>
      </trkpt>
      <trkpt lat="45.814619064331055" lon="4.567662477493286">
        <ele>319.99</ele>
        <time>2024-08-13T09:36:05.648Z</time>
      </trkpt>
      <trkpt lat="45.81382513046265" lon="4.568606615066528">
        <ele>317.9</ele>
        <time>2024-08-13T09:36:14.961Z</time>
      </trkpt>
      <trkpt lat="45.81327804364264" lon="4.569228887557983">
        <ele>316.37</ele>
        <time>2024-08-13T09:36:24.285Z</time>
      </trkpt>
      <trkpt lat="45.81290245056152" lon="4.569379091262817">
        <ele>314.66</ele>
        <time>2024-08-13T09:36:33.616Z</time>
      </trkpt>
      <trkpt lat="45.81280589103699" lon="4.569464921951294">
        <ele>313.24</ele>
        <time>2024-08-13T09:36:42.948Z</time>
      </trkpt>
      <trkpt lat="45.81274151802063" lon="4.56957221031189">
        <ele>311.81</ele>
        <time>2024-08-13T09:36:52.282Z</time>
      </trkpt>
      <trkpt lat="45.81268787384033" lon="4.569690227508545">
        <ele>310.44</ele>
        <time>2024-08-13T09:37:01.618Z</time>
      </trkpt>
      <trkpt lat="45.81265568733215" lon="4.5700013637542725">
        <ele>309.08</ele>
        <time>2024-08-13T09:37:10.957Z</time>
      </trkpt>
      <trkpt lat="45.81266641616821" lon="4.570226669311523">
        <ele>307.82</ele>
        <time>2024-08-13T09:37:20.299Z</time>
      </trkpt>
      <trkpt lat="45.81269860267639" lon="4.570419788360596">
        <ele>306.67</ele>
        <time>2024-08-13T09:37:29.643Z</time>
      </trkpt>
      <trkpt lat="45.81290245056152" lon="4.571278095245361">
        <ele>305.63</ele>
        <time>2024-08-13T09:37:38.997Z</time>
      </trkpt>
      <trkpt lat="45.81298828125" lon="4.572007656097412">
        <ele>304.22</ele>
        <time>2024-08-13T09:37:48.359Z</time>
      </trkpt>
      <trkpt lat="45.81303119659424" lon="4.5722222328186035">
        <ele>303.17</ele>
        <time>2024-08-13T09:37:57.724Z</time>
      </trkpt>
      <trkpt lat="45.813127756118774" lon="4.572511911392212">
        <ele>302.04</ele>
        <time>2024-08-13T09:38:07.092Z</time>
      </trkpt>
      <trkpt lat="45.81321358680725" lon="4.572715759277344">
        <ele>301.11</ele>
        <time>2024-08-13T09:38:16.463Z</time>
      </trkpt>
      <trkpt lat="45.81331014633179" lon="4.572865962982178">
        <ele>300.33</ele>
        <time>2024-08-13T09:38:25.836Z</time>
      </trkpt>
      <trkpt lat="45.813385248184204" lon="4.572930335998535">
        <ele>299.67</ele>
        <time>2024-08-13T09:38:35.211Z</time>
      </trkpt>
      <trkpt lat="45.81350326538086" lon="4.572983980178833">
        <ele>299.16</ele>
        <time>2024-08-13T09:38:44.588Z</time>
      </trkpt>
      <trkpt lat="45.81366419792175" lon="4.573005437850952">
        <ele>298.78</ele>
        <time>2024-08-13T09:38:53.967Z</time>
      </trkpt>
      <trkpt lat="45.81415772438049" lon="4.573016166687012">
        <ele>298.32</ele>
        <time>2024-08-13T09:39:03.354Z</time>
      </trkpt>
      <trkpt lat="45.814372301101685" lon="4.57305908203125">
        <ele>297.76</ele>
        <time>2024-08-13T09:39:12.745Z</time>
      </trkpt>
      <trkpt lat="45.81456542015076" lon="4.573187828063965">
        <ele>297.14</ele>
        <time>2024-08-13T09:39:22.139Z</time>
      </trkpt>
      <trkpt lat="45.81473708152771" lon="4.5733702182769775">
        <ele>296.5</ele>
        <time>2024-08-13T09:39:31.537Z</time>
      </trkpt>
      <trkpt lat="45.814865827560425" lon="4.573509693145752">
        <ele>296.0</ele>
        <time>2024-08-13T09:39:40.937Z</time>
      </trkpt>
      <trkpt lat="45.81505903042853" lon="4.57381010055542">
        <ele>295.48</ele>
        <time>2024-08-13T09:39:50.342Z</time>
      </trkpt>
      <trkpt lat="45.8150589466095" lon="4.57381010055542">
        <ele>295.16</ele>
        <time>2024-08-13T09:39:59.747Z</time>
      </trkpt>
      <trkpt lat="45.815134048461914" lon="4.5739710330963135">
        <ele>294.84</ele>
        <time>2024-08-13T09:40:09.154Z</time>
      </trkpt>
      <trkpt lat="45.81520915031433" lon="4.57405686378479">
        <ele>294.65</ele>
        <time>2024-08-13T09:40:18.562Z</time>
      </trkpt>
      <trkpt lat="45.815391624346375" lon="4.5742714405059814">
        <ele>294.51</ele>
        <time>2024-08-13T09:40:27.974Z</time>
      </trkpt>
      <trkpt lat="45.81543445587158" lon="4.574325084686279">
        <ele>294.49</ele>
        <time>2024-08-13T09:40:37.387Z</time>
      </trkpt>
      <trkpt lat="45.81569194793701" lon="4.574614763259888">
        <ele>294.59</ele>
        <time>2024-08-13T09:40:46.805Z</time>
      </trkpt>
      <trkpt lat="45.81577777862549" lon="4.574646949768066">
        <ele>294.84</ele>
        <time>2024-08-13T09:40:56.225Z</time>
      </trkpt>
      <trkpt lat="45.81585296429694" lon="4.5746684074401855">
        <ele>295.2</ele>
        <time>2024-08-13T09:41:05.646Z</time>
      </trkpt>
      <trkpt lat="45.81601389683783" lon="4.5747435092926025">
        <ele>295.62</ele>
        <time>2024-08-13T09:41:15.070Z</time>
      </trkpt>
      <trkpt lat="45.816367864608765" lon="4.574882984161377">
        <ele>296.08</ele>
        <time>2024-08-13T09:41:24.500Z</time>
      </trkpt>
      <trkpt lat="45.81644296646118" lon="4.5748937129974365">
        <ele>296.67</ele>
        <time>2024-08-13T09:41:33.931Z</time>
      </trkpt>
      <trkpt lat="45.81646450795233" lon="4.5748937129974365">
        <ele>297.39</ele>
        <time>2024-08-13T09:41:43.362Z</time>
      </trkpt>
      <trkpt lat="45.816882932558656" lon="4.5749688148498535">
        <ele>298.21</ele>
        <time>2024-08-13T09:41:52.800Z</time>
      </trkpt>
      <trkpt lat="45.816882848739624" lon="4.5749688148498535">
        <ele>299.19</ele>
        <time>2024-08-13T09:42:02.238Z</time>
      </trkpt>
      <trkpt lat="45.817140340805054" lon="4.575011730194092">
        <ele>300.36</ele>
        <time>2024-08-13T09:42:11.680Z</time>
      </trkpt>
      <trkpt lat="45.81760176457465" lon="4.57506537437439">
        <ele>301.41</ele>
        <time>2024-08-13T09:42:21.129Z</time>
      </trkpt>
      <trkpt lat="45.81780552864075" lon="4.575086832046509">
        <ele>302.73</ele>
        <time>2024-08-13T09:42:30.582Z</time>
      </trkpt>
      <trkpt lat="45.818030834198" lon="4.5750439167022705">
        <ele>304.32</ele>
        <time>2024-08-13T09:42:40.038Z</time>
      </trkpt>
      <trkpt lat="45.8190393447876" lon="4.574689865112305">
        <ele>306.69</ele>
        <time>2024-08-13T09:42:49.511Z</time>
      </trkpt>
      <trkpt lat="45.819146716967225" lon="4.574689865112305">
        <ele>308.27</ele>
        <time>2024-08-13T09:42:58.986Z</time>
      </trkpt>
      <trkpt lat="45.81925392150879" lon="4.574700593948364">
        <ele>309.86</ele>
        <time>2024-08-13T09:43:08.462Z</time>
      </trkpt>
      <trkpt lat="45.82035907544196" lon="4.575161933898926">
        <ele>311.68</ele>
        <time>2024-08-13T09:43:17.957Z</time>
      </trkpt>
      <trkpt lat="45.821388959884644" lon="4.575526714324951">
        <ele>313.64</ele>
        <time>2024-08-13T09:43:27.469Z</time>
      </trkpt>
      <trkpt lat="45.821389043703675" lon="4.575526714324951">
        <ele>315.01</ele>
        <time>2024-08-13T09:43:36.981Z</time>
      </trkpt>
      <trkpt lat="45.8215606212616" lon="4.57555890083313">
        <ele>316.3</ele>
        <time>2024-08-13T09:43:46.496Z</time>
      </trkpt>
      <trkpt lat="45.82191467285156" lon="4.575408697128296">
        <ele>317.48</ele>
        <time>2024-08-13T09:43:56.016Z</time>
      </trkpt>
      <trkpt lat="45.82219362258911" lon="4.575161933898926">
        <ele>318.66</ele>
        <time>2024-08-13T09:44:05.542Z</time>
      </trkpt>
      <trkpt lat="45.82253694534302" lon="4.574486017227173">
        <ele>319.86</ele>
        <time>2024-08-13T09:44:15.077Z</time>
      </trkpt>
      <trkpt lat="45.82296618260443" lon="4.575001001358032">
        <ele>320.97</ele>
        <time>2024-08-13T09:44:24.621Z</time>
      </trkpt>
      <trkpt lat="45.82304120063782" lon="4.575097560882568">
        <ele>321.48</ele>
        <time>2024-08-13T09:44:34.167Z</time>
      </trkpt>
      <trkpt lat="45.823094844818115" lon="4.575226306915283">
        <ele>321.91</ele>
        <time>2024-08-13T09:44:43.714Z</time>
      </trkpt>
      <trkpt lat="45.82314848899841" lon="4.575397968292236">
        <ele>322.27</ele>
        <time>2024-08-13T09:44:53.263Z</time>
      </trkpt>
      <trkpt lat="45.82316994667053" lon="4.575634002685547">
        <ele>322.59</ele>
        <time>2024-08-13T09:45:02.815Z</time>
      </trkpt>
      <trkpt lat="45.82315921783447" lon="4.575837850570679">
        <ele>322.92</ele>
        <time>2024-08-13T09:45:12.369Z</time>
      </trkpt>
      <trkpt lat="45.823116386309266" lon="4.575977325439453">
        <ele>323.25</ele>
        <time>2024-08-13T09:45:21.925Z</time>
      </trkpt>
      <trkpt lat="45.82275152206421" lon="4.577146768569946">
        <ele>323.41</ele>
        <time>2024-08-13T09:45:31.495Z</time>
      </trkpt>
      <trkpt lat="45.82250475883484" lon="4.5777153968811035">
        <ele>323.91</ele>
        <time>2024-08-13T09:45:41.073Z</time>
      </trkpt>
      <trkpt lat="45.821421230211854" lon="4.5797646045684814">
        <ele>324.61</ele>
        <time>2024-08-13T09:45:50.680Z</time>
      </trkpt>
      <trkpt lat="45.821110010147095" lon="4.580333232879639">
        <ele>325.3</ele>
        <time>2024-08-13T09:46:00.295Z</time>
      </trkpt>
      <trkpt lat="45.8203911781311" lon="4.581105709075928">
        <ele>326.21</ele>
        <time>2024-08-13T09:46:09.924Z</time>
      </trkpt>
      <trkpt lat="45.82020887173712" lon="4.58130955696106">
        <ele>326.5</ele>
        <time>2024-08-13T09:46:19.557Z</time>
      </trkpt>
      <trkpt lat="45.82005858421326" lon="4.581567049026489">
        <ele>326.75</ele>
        <time>2024-08-13T09:46:29.194Z</time>
      </trkpt>
      <trkpt lat="45.81995129585266" lon="4.581856727600098">
        <ele>326.85</ele>
        <time>2024-08-13T09:46:38.834Z</time>
      </trkpt>
      <trkpt lat="45.81989765167236" lon="4.58203911781311">
        <ele>326.83</ele>
        <time>2024-08-13T09:46:48.476Z</time>
      </trkpt>
      <trkpt lat="45.8198440913111" lon="4.582318067550659">
        <ele>326.62</ele>
        <time>2024-08-13T09:46:58.122Z</time>
      </trkpt>
      <trkpt lat="45.819844007492065" lon="4.582318067550659">
        <ele>326.2</ele>
        <time>2024-08-13T09:47:07.768Z</time>
      </trkpt>
      <trkpt lat="45.819833278656006" lon="4.582768678665161">
        <ele>325.53</ele>
        <time>2024-08-13T09:47:17.419Z</time>
      </trkpt>
      <trkpt lat="45.819865465164185" lon="4.58304762840271">
        <ele>324.69</ele>
        <time>2024-08-13T09:47:27.073Z</time>
      </trkpt>
      <trkpt lat="45.81998348236084" lon="4.583455324172974">
        <ele>323.57</ele>
        <time>2024-08-13T09:47:36.732Z</time>
      </trkpt>
      <trkpt lat="45.820122957229614" lon="4.58379864692688">
        <ele>322.18</ele>
        <time>2024-08-13T09:47:46.395Z</time>
      </trkpt>
      <trkpt lat="45.820573568344116" lon="4.584592580795288">
        <ele>320.47</ele>
        <time>2024-08-13T09:47:56.070Z</time>
      </trkpt>
      <trkpt lat="45.82126021385193" lon="4.585697650909424">
        <ele>318.43</ele>
        <time>2024-08-13T09:48:05.761Z</time>
      </trkpt>
      <trkpt lat="45.82144260406494" lon="4.58605170249939">
        <ele>316.96</ele>
        <time>2024-08-13T09:48:15.457Z</time>
      </trkpt>
      <trkpt lat="45.82166790962219" lon="4.58654522895813">
        <ele>315.26</ele>
        <time>2024-08-13T09:48:25.160Z</time>
      </trkpt>
      <trkpt lat="45.822097063064575" lon="4.587607383728027">
        <ele>313.29</ele>
        <time>2024-08-13T09:48:34.877Z</time>
      </trkpt>
      <trkpt lat="45.8222044352442" lon="4.587939977645874">
        <ele>311.4</ele>
        <time>2024-08-13T09:48:44.598Z</time>
      </trkpt>
      <trkpt lat="45.822333097457886" lon="4.588369131088257">
        <ele>309.54</ele>
        <time>2024-08-13T09:48:54.324Z</time>
      </trkpt>
      <trkpt lat="45.822612047195435" lon="4.589645862579346">
        <ele>307.6</ele>
        <time>2024-08-13T09:49:04.065Z</time>
      </trkpt>
      <trkpt lat="45.82279443740845" lon="4.590353965759277">
        <ele>305.88</ele>
        <time>2024-08-13T09:49:13.814Z</time>
      </trkpt>
      <trkpt lat="45.822815895080566" lon="4.590429067611694">
        <ele>304.28</ele>
        <time>2024-08-13T09:49:23.564Z</time>
      </trkpt>
      <trkpt lat="45.82296618260443" lon="4.590976238250732">
        <ele>302.54</ele>
        <time>2024-08-13T09:49:33.321Z</time>
      </trkpt>
      <trkpt lat="45.82330942153931" lon="4.592317342758179">
        <ele>300.99</ele>
        <time>2024-08-13T09:49:43.094Z</time>
      </trkpt>
      <trkpt lat="45.82349181175232" lon="4.592907428741455">
        <ele>300.01</ele>
        <time>2024-08-13T09:49:52.874Z</time>
      </trkpt>
      <trkpt lat="45.823845863342285" lon="4.593583345413208">
        <ele>298.65</ele>
        <time>2024-08-13T09:50:02.663Z</time>
      </trkpt>
      <trkpt lat="45.82401752471924" lon="4.594001770019531">
        <ele>297.67</ele>
        <time>2024-08-13T09:50:12.458Z</time>
      </trkpt>
      <trkpt lat="45.82428574562073" lon="4.594806432723999">
        <ele>296.61</ele>
        <time>2024-08-13T09:50:22.263Z</time>
      </trkpt>
      <trkpt lat="45.82425355911255" lon="4.594892263412476">
        <ele>296.09</ele>
        <time>2024-08-13T09:50:32.069Z</time>
      </trkpt>
      <trkpt lat="45.82425355911255" lon="4.594961414113641">
        <ele>295.6</ele>
        <time>2024-08-13T09:50:41.876Z</time>
      </trkpt>
      <trkpt lat="45.82425355911255" lon="4.594962755218148">
        <ele>295.56</ele>
        <time>2024-08-13T09:50:51.683Z</time>
      </trkpt>
      <trkpt lat="45.82425364293158" lon="4.594999551773071">
        <ele>296.99</ele>
        <time>2024-08-13T09:51:01.490Z</time>
      </trkpt>
      <trkpt lat="45.82427501678467" lon="4.59504246711731">
        <ele>297.01</ele>
        <time>2024-08-13T09:51:11.298Z</time>
      </trkpt>
      <trkpt lat="45.824339389801025" lon="4.595085382461548">
        <ele>296.9</ele>
        <time>2024-08-13T09:51:21.107Z</time>
      </trkpt>
      <trkpt lat="45.82441449165344" lon="4.595063924789429">
        <ele>296.71</ele>
        <time>2024-08-13T09:51:30.917Z</time>
      </trkpt>
      <trkpt lat="45.824843645095825" lon="4.595729112625122">
        <ele>296.47</ele>
        <time>2024-08-13T09:51:40.737Z</time>
      </trkpt>
      <trkpt lat="45.8258415106684" lon="4.5979392528533936">
        <ele>295.89</ele>
        <time>2024-08-13T09:51:50.587Z</time>
      </trkpt>
      <trkpt lat="45.825841426849365" lon="4.5979392528533936">
        <ele>295.56</ele>
        <time>2024-08-13T09:52:00.437Z</time>
      </trkpt>
      <trkpt lat="45.82601308822632" lon="4.598293304443359">
        <ele>295.2</ele>
        <time>2024-08-13T09:52:10.291Z</time>
      </trkpt>
      <trkpt lat="45.8260452747345" lon="4.598400592803955">
        <ele>294.96</ele>
        <time>2024-08-13T09:52:20.147Z</time>
      </trkpt>
      <trkpt lat="45.82605600357056" lon="4.598507881164551">
        <ele>294.76</ele>
        <time>2024-08-13T09:52:30.004Z</time>
      </trkpt>
      <trkpt lat="45.82619556225836" lon="4.598937034606934">
        <ele>294.63</ele>
        <time>2024-08-13T09:52:39.866Z</time>
      </trkpt>
      <trkpt lat="45.82620620727539" lon="4.599076509475708">
        <ele>294.33</ele>
        <time>2024-08-13T09:52:49.730Z</time>
      </trkpt>
      <trkpt lat="45.8261848334223" lon="4.599097967147827">
        <ele>293.97</ele>
        <time>2024-08-13T09:52:59.594Z</time>
      </trkpt>
      <trkpt lat="45.82616329193115" lon="4.599205255508423">
        <ele>293.48</ele>
        <time>2024-08-13T09:53:09.460Z</time>
      </trkpt>
      <trkpt lat="45.826174104586244" lon="4.59926962852478">
        <ele>292.96</ele>
        <time>2024-08-13T09:53:19.326Z</time>
      </trkpt>
      <trkpt lat="45.82621693611145" lon="4.599355459213257">
        <ele>292.37</ele>
        <time>2024-08-13T09:53:29.193Z</time>
      </trkpt>
      <trkpt lat="45.82625985145569" lon="4.5993876457214355">
        <ele>291.67</ele>
        <time>2024-08-13T09:53:39.061Z</time>
      </trkpt>
      <trkpt lat="45.82650661468506" lon="4.599752426147461">
        <ele>290.77</ele>
        <time>2024-08-13T09:53:48.935Z</time>
      </trkpt>
      <trkpt lat="45.826581716537476" lon="4.599806070327759">
        <ele>289.7</ele>
        <time>2024-08-13T09:53:58.810Z</time>
      </trkpt>
      <trkpt lat="45.826603174209595" lon="4.599848985671997">
        <ele>288.53</ele>
        <time>2024-08-13T09:54:08.686Z</time>
      </trkpt>
      <trkpt lat="45.82679629325867" lon="4.600149393081665">
        <ele>286.93</ele>
        <time>2024-08-13T09:54:18.566Z</time>
      </trkpt>
      <trkpt lat="45.827375650405884" lon="4.600954055786133">
        <ele>285.04</ele>
        <time>2024-08-13T09:54:28.459Z</time>
      </trkpt>
      <trkpt lat="45.827611684799194" lon="4.601308107376099">
        <ele>283.49</ele>
        <time>2024-08-13T09:54:38.358Z</time>
      </trkpt>
      <trkpt lat="45.82774043083191" lon="4.601597785949707">
        <ele>281.76</ele>
        <time>2024-08-13T09:54:48.261Z</time>
      </trkpt>
      <trkpt lat="45.827826261520386" lon="4.601908922195435">
        <ele>280.08</ele>
        <time>2024-08-13T09:54:58.167Z</time>
      </trkpt>
      <trkpt lat="45.82805156707764" lon="4.603228569030762">
        <ele>278.17</ele>
        <time>2024-08-13T09:55:08.089Z</time>
      </trkpt>
      <trkpt lat="45.82813739776611" lon="4.603550434112549">
        <ele>276.76</ele>
        <time>2024-08-13T09:55:18.014Z</time>
      </trkpt>
      <trkpt lat="45.82829833030701" lon="4.6038830280303955">
        <ele>275.45</ele>
        <time>2024-08-13T09:55:27.944Z</time>
      </trkpt>
      <trkpt lat="45.82846999168396" lon="4.604226350784302">
        <ele>274.1</ele>
        <time>2024-08-13T09:55:37.879Z</time>
      </trkpt>
      <trkpt lat="45.82849153317511" lon="4.604322910308838">
        <ele>272.8</ele>
        <time>2024-08-13T09:55:47.815Z</time>
      </trkpt>
      <trkpt lat="45.82854509353638" lon="4.604365825653076">
        <ele>271.61</ele>
        <time>2024-08-13T09:55:57.752Z</time>
      </trkpt>
      <trkpt lat="45.82870602607727" lon="4.604634046554565">
        <ele>270.35</ele>
        <time>2024-08-13T09:56:07.693Z</time>
      </trkpt>
      <trkpt lat="45.82874894142151" lon="4.60477352142334">
        <ele>269.07</ele>
        <time>2024-08-13T09:56:17.635Z</time>
      </trkpt>
      <trkpt lat="45.82880258560181" lon="4.60502028465271">
        <ele>267.69</ele>
        <time>2024-08-13T09:56:27.580Z</time>
      </trkpt>
      <trkpt lat="45.828834772109985" lon="4.60527777671814">
        <ele>266.28</ele>
        <time>2024-08-13T09:56:37.528Z</time>
      </trkpt>
      <trkpt lat="45.828845500946045" lon="4.60552453994751">
        <ele>264.82</ele>
        <time>2024-08-13T09:56:47.479Z</time>
      </trkpt>
      <trkpt lat="45.82880258560181" lon="4.605792760848999">
        <ele>263.29</ele>
        <time>2024-08-13T09:56:57.433Z</time>
      </trkpt>
      <trkpt lat="45.82871675491333" lon="4.605996608734131">
        <ele>261.66</ele>
        <time>2024-08-13T09:57:07.390Z</time>
      </trkpt>
      <trkpt lat="45.82854509353638" lon="4.606318473815918">
        <ele>259.94</ele>
        <time>2024-08-13T09:57:17.351Z</time>
      </trkpt>
      <trkpt lat="45.82842707633972" lon="4.606447219848633">
        <ele>258.18</ele>
        <time>2024-08-13T09:57:27.315Z</time>
      </trkpt>
      <trkpt lat="45.82816958427429" lon="4.606618881225586">
        <ele>256.35</ele>
        <time>2024-08-13T09:57:37.283Z</time>
      </trkpt>
      <trkpt lat="45.8280086517334" lon="4.606651067733765">
        <ele>254.57</ele>
        <time>2024-08-13T09:57:47.254Z</time>
      </trkpt>
      <trkpt lat="45.82764387130737" lon="4.606565237045288">
        <ele>252.67</ele>
        <time>2024-08-13T09:57:57.231Z</time>
      </trkpt>
      <trkpt lat="45.8263457659632" lon="4.605696201324463">
        <ele>250.48</ele>
        <time>2024-08-13T09:58:07.231Z</time>
      </trkpt>
      <trkpt lat="45.8254873752594" lon="4.605138301849365">
        <ele>249.16</ele>
        <time>2024-08-13T09:58:17.246Z</time>
      </trkpt>
      <trkpt lat="45.82489728927612" lon="4.604837894439697">
        <ele>247.62</ele>
        <time>2024-08-13T09:58:27.271Z</time>
      </trkpt>
      <trkpt lat="45.824081897735596" lon="4.604494571685791">
        <ele>246.28</ele>
        <time>2024-08-13T09:58:37.309Z</time>
      </trkpt>
      <trkpt lat="45.82394242286682" lon="4.604387283325195">
        <ele>245.27</ele>
        <time>2024-08-13T09:58:47.350Z</time>
      </trkpt>
      <trkpt lat="45.82378149032593" lon="4.6043336391448975">
        <ele>244.05</ele>
        <time>2024-08-13T09:58:57.394Z</time>
      </trkpt>
      <trkpt lat="45.823599100112915" lon="4.604312181472778">
        <ele>242.71</ele>
        <time>2024-08-13T09:59:07.441Z</time>
      </trkpt>
      <trkpt lat="45.82339525222778" lon="4.6043336391448975">
        <ele>241.39</ele>
        <time>2024-08-13T09:59:17.491Z</time>
      </trkpt>
      <trkpt lat="45.823352336883545" lon="4.604355096817017">
        <ele>240.2</ele>
        <time>2024-08-13T09:59:27.542Z</time>
      </trkpt>
      <trkpt lat="45.82327723503113" lon="4.604430198669434">
        <ele>238.94</ele>
        <time>2024-08-13T09:59:37.594Z</time>
      </trkpt>
      <trkpt lat="45.823148572817445" lon="4.604687690734863">
        <ele>237.43</ele>
        <time>2024-08-13T09:59:47.650Z</time>
      </trkpt>
      <trkpt lat="45.82306274212897" lon="4.60477352142334">
        <ele>236.44</ele>
        <time>2024-08-13T09:59:57.707Z</time>
      </trkpt>
      <trkpt lat="45.8230197429657" lon="4.604902267456055">
        <ele>235.62</ele>
        <time>2024-08-13T10:00:07.766Z</time>
      </trkpt>
      <trkpt lat="45.82303055562079" lon="4.6050310134887695">
        <ele>234.86</ele>
        <time>2024-08-13T10:00:17.826Z</time>
      </trkpt>
      <trkpt lat="45.82304128445685" lon="4.605063199996948">
        <ele>234.29</ele>
        <time>2024-08-13T10:00:27.887Z</time>
      </trkpt>
      <trkpt lat="45.823094844818115" lon="4.605149030685425">
        <ele>233.8</ele>
        <time>2024-08-13T10:00:37.949Z</time>
      </trkpt>
      <trkpt lat="45.823127031326294" lon="4.60526704788208">
        <ele>233.4</ele>
        <time>2024-08-13T10:00:48.012Z</time>
      </trkpt>
      <trkpt lat="45.82314848899841" lon="4.605449438095093">
        <ele>233.11</ele>
        <time>2024-08-13T10:00:58.077Z</time>
      </trkpt>
      <trkpt lat="45.823116302490234" lon="4.60577130317688">
        <ele>232.9</ele>
        <time>2024-08-13T10:01:08.146Z</time>
      </trkpt>
      <trkpt lat="45.823137843981385" lon="4.605964422225952">
        <ele>232.76</ele>
        <time>2024-08-13T10:01:18.217Z</time>
      </trkpt>
      <trkpt lat="45.82318067550659" lon="4.606114625930786">
        <ele>232.69</ele>
        <time>2024-08-13T10:01:28.290Z</time>
      </trkpt>
      <trkpt lat="45.82329869270325" lon="4.606339931488037">
        <ele>232.65</ele>
        <time>2024-08-13T10:01:38.366Z</time>
      </trkpt>
      <trkpt lat="45.823341608047485" lon="4.606500864028931">
        <ele>232.65</ele>
        <time>2024-08-13T10:01:48.444Z</time>
      </trkpt>
      <trkpt lat="45.82330942153931" lon="4.606543779373169">
        <ele>232.68</ele>
        <time>2024-08-13T10:01:58.523Z</time>
      </trkpt>
      <trkpt lat="45.82329869270325" lon="4.606640338897705">
        <ele>232.72</ele>
        <time>2024-08-13T10:02:08.603Z</time>
      </trkpt>
      <trkpt lat="45.82334169186652" lon="4.606726169586182">
        <ele>232.76</ele>
        <time>2024-08-13T10:02:18.684Z</time>
      </trkpt>
      <trkpt lat="45.823384523391724" lon="4.606736898422241">
        <ele>232.77</ele>
        <time>2024-08-13T10:02:28.766Z</time>
      </trkpt>
      <trkpt lat="45.82342743873596" lon="4.6067047119140625">
        <ele>232.75</ele>
        <time>2024-08-13T10:02:38.849Z</time>
      </trkpt>
      <trkpt lat="45.82345962524414" lon="4.606661796569824">
        <ele>232.66</ele>
        <time>2024-08-13T10:02:48.932Z</time>
      </trkpt>
      <trkpt lat="45.8235239982605" lon="4.606726169586182">
        <ele>232.51</ele>
        <time>2024-08-13T10:02:59.017Z</time>
      </trkpt>
      <trkpt lat="45.82372784614563" lon="4.60701584815979">
        <ele>232.25</ele>
        <time>2024-08-13T10:03:09.106Z</time>
      </trkpt>
      <trkpt lat="45.82391023635864" lon="4.607208967208862">
        <ele>231.98</ele>
        <time>2024-08-13T10:03:19.199Z</time>
      </trkpt>
      <trkpt lat="45.82468279637396" lon="4.607863426208496">
        <ele>232.0</ele>
        <time>2024-08-13T10:03:29.306Z</time>
      </trkpt>
      <trkpt lat="45.8249831199646" lon="4.6080780029296875">
        <ele>231.66</ele>
        <time>2024-08-13T10:03:39.419Z</time>
      </trkpt>
      <trkpt lat="45.82506517879665" lon="4.608146399259567">
        <ele>231.51</ele>
        <time>2024-08-13T10:03:49.533Z</time>
      </trkpt>
    </trkseg>
  </trk>
</gpx>
